| time (UTC) | temp C | wind direction | speed KPH | gust KPH | rain 1hr cm | rain 24hr cm | rain mn cm | humidity % | barometer mb |
| 20260903103150 | 25 | 56 | 4.8 | 9.7 | 0.00 | 0.00 | 0.00 | 75 | 1014.6 |
| 20260903103027 | 25 | 56 | 6.4 | 9.7 | 0.00 | 0.00 | 0.00 | 75 | 1014.6 |
| 20260903102924 | 25 | 56 | 6.4 | 9.7 | 0.00 | 0.00 | 0.00 | 75 | 1014.6 |
| 20260903102843 | 25 | 56 | 6.4 | 9.7 | 0.00 | 0.00 | 0.00 | 75 | 1014.6 |
| 20260903102725 | 25 | 56 | 6.4 | 9.7 | 0.00 | 0.00 | 0.00 | 75 | 1014.5 |
| 20260903102642 | 25 | 51 | 6.4 | 9.7 | 0.00 | 0.00 | 0.00 | 75 | 1014.5 |
| 20260903102541 | 25 | 56 | 8.0 | 9.7 | 0.00 | 0.00 | 0.00 | 75 | 1014.5 |
| 20260903102440 | 25 | 56 | 8.0 | 9.7 | 0.00 | 0.00 | 0.00 | 75 | 1014.5 |
| 20260903102339 | 25 | 56 | 8.0 | 9.7 | 0.00 | 0.00 | 0.00 | 75 | 1014.5 |
| 20260903102237 | 25 | 54 | 8.0 | 9.7 | 0.00 | 0.00 | 0.00 | 75 | 1014.5 |
| 20260903102135 | 25 | 56 | 8.0 | 9.7 | 0.00 | 0.00 | 0.00 | 75 | 1014.5 |
| 20260903102037 | 25 | 56 | 8.0 | 9.7 | 0.00 | 0.00 | 0.00 | 75 | 1014.5 |
| 20260903101935 | 25 | 56 | 8.0 | 9.7 | 0.00 | 0.00 | 0.00 | 75 | 1014.5 |
| 20260903101833 | 25 | 55 | 8.0 | 9.7 | 0.00 | 0.00 | 0.00 | 75 | 1014.5 |
| 20260903101742 | 25 | 55 | 8.0 | 9.7 | 0.00 | 0.00 | 0.00 | 75 | 1014.5 |
| 20260903101651 | 25 | 55 | 8.0 | 9.7 | 0.00 | 0.00 | 0.00 | 75 | 1014.5 |
| 20260903101529 | 25 | 52 | 8.0 | 9.7 | 0.00 | 0.00 | 0.00 | 74 | 1014.5 |
| 20260903101427 | 25 | 54 | 8.0 | 9.7 | 0.00 | 0.00 | 0.00 | 74 | 1014.5 |
| 20260903101329 | 25 | 55 | 6.4 | 9.7 | 0.00 | 0.00 | 0.00 | 74 | 1014.5 |
| 20260903101247 | 25 | 45 | 8.0 | 9.7 | 0.00 | 0.00 | 0.00 | 74 | 1014.5 |
| 20260903101205 | 25 | 48 | 8.0 | 9.7 | 0.00 | 0.00 | 0.00 | 74 | 1014.5 |
| 20260903101103 | 25 | 44 | 6.4 | 9.7 | 0.00 | 0.00 | 0.00 | 74 | 1014.5 |
| 20260903100940 | 25 | 44 | 8.0 | 9.7 | 0.00 | 0.00 | 0.00 | 74 | 1014.5 |
| 20260903100900 | 25 | 45 | 6.4 | 9.7 | 0.00 | 0.00 | 0.00 | 74 | 1014.5 |
| 20260903100736 | 25 | 45 | 6.4 | 9.7 | 0.00 | 0.00 | 0.00 | 74 | 1014.5 |
| 20260903100634 | 25 | 42 | 4.8 | 9.7 | 0.00 | 0.00 | 0.00 | 73 | 1014.5 |
| 20260903100531 | 25 | 44 | 6.4 | 9.7 | 0.00 | 0.00 | 0.00 | 73 | 1014.5 |
| 20260903100433 | 25 | 41 | 6.4 | 9.7 | 0.00 | 0.00 | 0.00 | 73 | 1014.5 |
| 20260903100351 | 25 | 44 | 6.4 | 9.7 | 0.00 | 0.00 | 0.00 | 72 | 1014.5 |
| 20260903100238 | 25 | 44 | 6.4 | 9.7 | 0.00 | 0.00 | 0.00 | 72 | 1014.5 |
| 20260903100147 | 25 | 44 | 8.0 | 9.7 | 0.00 | 0.00 | 0.00 | 72 | 1014.5 |
| 20260903100027 | 25 | 45 | 8.0 | 9.7 | 0.00 | 0.00 | 0.00 | 72 | 1014.5 |
| 20260903095947 | 25 | 44 | 6.4 | 9.7 | 0.00 | 0.00 | 0.00 | 72 | 1014.5 |
| 20260903095843 | 25 | 44 | 6.4 | 9.7 | 0.00 | 0.00 | 0.00 | 72 | 1014.5 |
| 20260903095742 | 25 | 41 | 6.4 | 9.7 | 0.00 | 0.00 | 0.00 | 72 | 1015.3 |
| 20260903095624 | 25 | 42 | 6.4 | 9.7 | 0.00 | 0.00 | 0.00 | 72 | 1015.3 |
| 20260903095544 | 25 | 42 | 6.4 | 9.7 | 0.00 | 0.00 | 0.00 | 72 | 1015.3 |
| 20260903095442 | 25 | 42 | 6.4 | 9.7 | 0.00 | 0.00 | 0.00 | 72 | 1015.3 |
| 20260903095341 | 25 | 42 | 8.0 | 9.7 | 0.00 | 0.00 | 0.00 | 72 | 1015.3 |
| 20260903095240 | 25 | 42 | 6.4 | 9.7 | 0.00 | 0.00 | 0.00 | 72 | 1015.3 |
| 20260903095139 | 25 | 41 | 6.4 | 9.7 | 0.00 | 0.00 | 0.00 | 73 | 1015.3 |
| 20260903095057 | 25 | 41 | 6.4 | 9.7 | 0.00 | 0.00 | 0.00 | 72 | 1015.3 |
| 20260903094934 | 25 | 41 | 6.4 | 9.7 | 0.00 | 0.00 | 0.00 | 72 | 1015.3 |
| 20260903094838 | 25 | 41 | 8.0 | 9.7 | 0.00 | 0.00 | 0.00 | 72 | 1015.3 |
| 20260903094735 | 25 | 38 | 8.0 | 9.7 | 0.00 | 0.00 | 0.00 | 72 | 1015.3 |
| 20260903094704 | 25 | 41 | 6.4 | 9.7 | 0.00 | 0.00 | 0.00 | 72 | 1015.3 |
| 20260903094541 | 25 | 42 | 8.0 | 9.7 | 0.00 | 0.00 | 0.00 | 72 | 1015.3 |
| 20260903094441 | 25 | 41 | 8.0 | 9.7 | 0.00 | 0.00 | 0.00 | 72 | 1015.3 |
| 20260903094340 | 25 | 40 | 8.0 | 9.7 | 0.00 | 0.00 | 0.00 | 72 | 1015.3 |
| 20260903094258 | 25 | 41 | 8.0 | 9.7 | 0.00 | 0.00 | 0.00 | 72 | 1015.3 |
| 20260903094139 | 25 | 25 | 8.0 | 9.7 | 0.00 | 0.00 | 0.00 | 71 | 1015.3 |
| 20260903094037 | 25 | 24 | 8.0 | 9.7 | 0.00 | 0.00 | 0.00 | 71 | 1015.3 |
| 20260903093935 | 25 | 21 | 6.4 | 8.0 | 0.00 | 0.00 | 0.00 | 71 | 1015.3 |
| 20260903093853 | 25 | 23 | 6.4 | 8.0 | 0.00 | 0.00 | 0.00 | 71 | 1015.3 |
| 20260903093732 | 25 | 23 | 6.4 | 8.0 | 0.00 | 0.00 | 0.00 | 71 | 1015.3 |
| 20260903093652 | 25 | 21 | 4.8 | 8.0 | 0.00 | 0.00 | 0.00 | 71 | 1015.3 |
| 20260903093549 | 25 | 8 | 6.4 | 8.0 | 0.00 | 0.00 | 0.00 | 71 | 1015.3 |
| 20260903093426 | 25 | 3 | 8.0 | 8.0 | 0.00 | 0.00 | 0.00 | 71 | 1015.3 |
| 20260903093326 | 25 | 3 | 8.0 | 8.0 | 0.00 | 0.00 | 0.00 | 71 | 1015.3 |
| 20260903093300 | 25 | 4 | 8.0 | 8.0 | 0.00 | 0.00 | 0.00 | 71 | 1015.3 |
| 20260903093148 | 25 | 4 | 4.8 | 8.0 | 0.00 | 0.00 | 0.00 | 71 | 1015.3 |
| 20260903093025 | 25 | 360 | 4.8 | 8.0 | 0.00 | 0.00 | 0.00 | 71 | 1015.3 |
| 20260903092945 | 25 | 4 | 6.4 | 8.0 | 0.00 | 0.00 | 0.00 | 71 | 1015.3 |
| 20260903092844 | 25 | 4 | 6.4 | 8.0 | 0.00 | 0.00 | 0.00 | 71 | 1015.3 |
| 20260903092742 | 25 | 4 | 6.4 | 8.0 | 0.00 | 0.00 | 0.00 | 70 | 1015.3 |
| 20260903092640 | 25 | 4 | 6.4 | 8.0 | 0.00 | 0.00 | 0.00 | 70 | 1015.3 |
| 20260903092537 | 25 | 6 | 6.4 | 8.0 | 0.00 | 0.00 | 0.00 | 70 | 1015.3 |
| 20260903092435 | 25 | 4 | 4.8 | 8.0 | 0.00 | 0.00 | 0.00 | 70 | 1015.3 |
| 20260903092340 | 25 | 328 | 4.8 | 8.0 | 0.00 | 0.00 | 0.00 | 69 | 1015.3 |
| 20260903092259 | 25 | 326 | 6.4 | 8.0 | 0.00 | 0.00 | 0.00 | 69 | 1015.3 |
| 20260903092135 | 25 | 323 | 6.4 | 8.0 | 0.00 | 0.00 | 0.00 | 69 | 1015.3 |
| 20260903092033 | 25 | 328 | 4.8 | 8.0 | 0.00 | 0.00 | 0.00 | 69 | 1015.3 |
| 20260903091930 | 25 | 328 | 4.8 | 8.0 | 0.00 | 0.00 | 0.00 | 69 | 1015.3 |
| 20260903091829 | 25 | 316 | 4.8 | 8.0 | 0.00 | 0.00 | 0.00 | 69 | 1015.3 |
| 20260903091737 | 25 | 326 | 6.4 | 8.0 | 0.00 | 0.00 | 0.00 | 69 | 1015.3 |
| 20260903091647 | 25 | 329 | 6.4 | 8.0 | 0.00 | 0.00 | 0.00 | 70 | 1015.3 |
| 20260903091530 | 25 | 328 | 6.4 | 8.0 | 0.00 | 0.00 | 0.00 | 70 | 1015.3 |
| 20260903091429 | 25 | 325 | 4.8 | 8.0 | 0.00 | 0.00 | 0.00 | 70 | 1015.3 |
| 20260903091328 | 25 | 326 | 6.4 | 8.0 | 0.00 | 0.00 | 0.00 | 70 | 1015.3 |
| 20260903091225 | 25 | 328 | 4.8 | 8.0 | 0.00 | 0.00 | 0.00 | 70 | 1014.4 |
| 20260903091142 | 25 | 328 | 3.2 | 8.0 | 0.00 | 0.00 | 0.00 | 69 | 1014.4 |
| 20260903091101 | 25 | 328 | 4.8 | 8.0 | 0.00 | 0.00 | 0.00 | 69 | 1014.4 |
| 20260903090938 | 25 | 326 | 4.8 | 8.0 | 0.00 | 0.00 | 0.00 | 70 | 1014.4 |
| 20260903090836 | 25 | 326 | 4.8 | 8.0 | 0.00 | 0.00 | 0.00 | 70 | 1014.4 |
| 20260903090739 | 25 | 328 | 4.8 | 8.0 | 0.00 | 0.00 | 0.00 | 69 | 1014.4 |
| 20260903090637 | 25 | 330 | 3.2 | 6.4 | 0.00 | 0.00 | 0.00 | 70 | 1014.4 |
| 20260903090534 | 25 | 328 | 4.8 | 6.4 | 0.00 | 0.00 | 0.00 | 69 | 1014.4 |
| 20260903090433 | 25 | 326 | 4.8 | 6.4 | 0.00 | 0.00 | 0.00 | 69 | 1014.4 |
| 20260903090352 | 25 | 328 | 4.8 | 6.4 | 0.00 | 0.00 | 0.00 | 69 | 1014.4 |
| 20260903090239 | 25 | 325 | 4.8 | 6.4 | 0.00 | 0.00 | 0.00 | 68 | 1014.4 |
| 20260903090148 | 25 | 329 | 4.8 | 6.4 | 0.00 | 0.00 | 0.00 | 68 | 1014.4 |
| 20260903090025 | 25 | 325 | 4.8 | 8.0 | 0.00 | 0.00 | 0.00 | 68 | 1014.4 |
| 20260903085950 | 25 | 328 | 4.8 | 8.0 | 0.00 | 0.00 | 0.00 | 67 | 1014.4 |
| 20260903085848 | 25 | 326 | 4.8 | 8.0 | 0.00 | 0.00 | 0.00 | 67 | 1014.4 |
| 20260903085725 | 25 | 328 | 4.8 | 8.0 | 0.00 | 0.00 | 0.00 | 67 | 1014.3 |
| 20260903085643 | 25 | 326 | 4.8 | 8.0 | 0.00 | 0.00 | 0.00 | 67 | 1014.3 |
| 20260903085542 | 25 | 328 | 4.8 | 8.0 | 0.00 | 0.00 | 0.00 | 67 | 1014.3 |
| 20260903085500 | 25 | 326 | 4.8 | 8.0 | 0.00 | 0.00 | 0.00 | 67 | 1014.3 |
| 20260903085338 | 25 | 304 | 4.8 | 8.0 | 0.00 | 0.00 | 0.00 | 67 | 1014.3 |
| 20260903085237 | 25 | 328 | 4.8 | 8.0 | 0.00 | 0.00 | 0.00 | 67 | 1014.3 |
| 20260903085139 | 25 | 360 | 4.8 | 4.8 | 0.00 | 0.00 | 0.00 | 67 | 1014.3 |
| 20260903085058 | 25 | 360 | 4.8 | 4.8 | 0.00 | 0.00 | 0.00 | 67 | 1014.3 |
| 20260903084936 | 25 | 360 | 4.8 | 4.8 | 0.00 | 0.00 | 0.00 | 67 | 1014.3 |
| 20260903084833 | 25 | 360 | 4.8 | 4.8 | 0.00 | 0.00 | 0.00 | 67 | 1014.3 |
| 20260903084803 | 25 | 360 | 4.8 | 4.8 | 0.00 | 0.00 | 0.00 | 67 | 1014.3 |
| 20260903084651 | 25 | 359 | 4.8 | 4.8 | 0.00 | 0.00 | 0.00 | 67 | 1014.3 |
| 20260903084529 | 25 | 357 | 4.8 | 4.8 | 0.00 | 0.00 | 0.00 | 67 | 1014.3 |
| 20260903084448 | 25 | 360 | 4.8 | 4.8 | 0.00 | 0.00 | 0.00 | 67 | 1014.3 |
| 20260903084326 | 25 | 359 | 4.8 | 4.8 | 0.00 | 0.00 | 0.00 | 67 | 1014.3 |
| 20260903084228 | 25 | 360 | 4.8 | 4.8 | 0.00 | 0.00 | 0.00 | 67 | 1015.1 |
| 20260903084127 | 25 | 360 | 4.8 | 4.8 | 0.00 | 0.00 | 0.00 | 67 | 1015.1 |
| 20260903084024 | 25 | 360 | 4.8 | 4.8 | 0.00 | 0.00 | 0.00 | 67 | 1015.1 |
| 20260903083924 | 25 | 360 | 4.8 | 4.8 | 0.00 | 0.00 | 0.00 | 67 | 1015.1 |
| 20260903083841 | 25 | 360 | 4.8 | 4.8 | 0.00 | 0.00 | 0.00 | 67 | 1015.1 |
| 20260903083739 | 25 | 360 | 4.8 | 4.8 | 0.00 | 0.00 | 0.00 | 67 | 1015.1 |
| 20260903083637 | 26 | 360 | 4.8 | 4.8 | 0.00 | 0.00 | 0.00 | 67 | 1015.1 |
| 20260903083540 | 26 | 356 | 4.8 | 4.8 | 0.00 | 0.00 | 0.00 | 67 | 1015.1 |
| 20260903083438 | 26 | 360 | 4.8 | 4.8 | 0.00 | 0.00 | 0.00 | 67 | 1015.1 |
| 20260903083337 | 26 | 359 | 3.2 | 4.8 | 0.00 | 0.00 | 0.00 | 68 | 1015.1 |
| 20260903083235 | 26 | 356 | 0.0 | 0.0 | 0.00 | 0.00 | 0.00 | 68 | 1015.1 |
| 20260903083205 | 26 | 360 | 0.0 | 0.0 | 0.00 | 0.00 | 0.00 | 67 | 1015.1 |
| 20260903083042 | 26 | 357 | 0.0 | 0.0 | 0.00 | 0.00 | 0.00 | 67 | 1015.1 |
| 20260903082925 | 26 | 360 | 0.0 | 0.0 | 0.00 | 0.00 | 0.00 | 68 | 1015.1 |
| 20260903082842 | 26 | 360 | 0.0 | 0.0 | 0.00 | 0.00 | 0.00 | 68 | 1015.1 |
| 20260903082740 | 26 | 360 | 0.0 | 0.0 | 0.00 | 0.00 | 0.00 | 68 | 1014.4 |
| 20260903082639 | 26 | 360 | 0.0 | 0.0 | 0.00 | 0.00 | 0.00 | 68 | 1014.4 |
| 20260903082537 | 26 | 360 | 0.0 | 0.0 | 0.00 | 0.00 | 0.00 | 68 | 1014.4 |
| 20260903082434 | 26 | 360 | 0.0 | 0.0 | 0.00 | 0.00 | 0.00 | 68 | 1014.4 |
| 20260903082353 | 26 | 360 | 0.0 | 0.0 | 0.00 | 0.00 | 0.00 | 68 | 1014.4 |
| 20260903082229 | 26 | 360 | 0.0 | 0.0 | 0.00 | 0.00 | 0.00 | 68 | 1014.4 |
| 20260903082132 | 26 | 359 | 0.0 | 0.0 | 0.00 | 0.00 | 0.00 | 68 | 1014.4 |
| 20260903082030 | 26 | 360 | 0.0 | 0.0 | 0.00 | 0.00 | 0.00 | 68 | 1014.4 |
| 20260903081926 | 26 | 360 | 0.0 | 0.0 | 0.00 | 0.00 | 0.00 | 68 | 1014.4 |
| 20260903081825 | 26 | 360 | 0.0 | 0.0 | 0.00 | 0.00 | 0.00 | 68 | 1014.4 |
| 20260903081724 | 26 | 360 | 0.0 | 0.0 | 0.00 | 0.00 | 0.00 | 68 | 1014.4 |
| 20260903081654 | 26 | 360 | 0.0 | 0.0 | 0.00 | 0.00 | 0.00 | 68 | 1014.4 |
| 20260903081532 | 26 | 360 | 0.0 | 0.0 | 0.00 | 0.00 | 0.00 | 68 | 1014.4 |
| 20260903081428 | 26 | 360 | 0.0 | 0.0 | 0.00 | 0.00 | 0.00 | 68 | 1014.4 |
| 20260903081331 | 25 | 354 | 0.0 | 0.0 | 0.00 | 0.00 | 0.00 | 68 | 1014.4 |
| 20260903081251 | 25 | 360 | 0.0 | 0.0 | 0.00 | 0.00 | 0.00 | 68 | 1014.3 |
| 20260903081148 | 25 | 360 | 0.0 | 0.0 | 0.00 | 0.00 | 0.00 | 68 | 1014.3 |
| 20260903081107 | 25 | 360 | 0.0 | 0.0 | 0.00 | 0.00 | 0.00 | 68 | 1014.3 |
| 20260903080944 | 25 | 357 | 0.0 | 0.0 | 0.00 | 0.00 | 0.00 | 68 | 1014.3 |
| 20260903080903 | 25 | 360 | 0.0 | 0.0 | 0.00 | 0.00 | 0.00 | 68 | 1014.3 |
| 20260903080740 | 25 | 359 | 0.0 | 0.0 | 0.00 | 0.00 | 0.00 | 68 | 1014.3 |
| 20260903080638 | 25 | 360 | 0.0 | 0.0 | 0.00 | 0.00 | 0.00 | 68 | 1014.3 |
| 20260903080536 | 25 | 360 | 0.0 | 0.0 | 0.00 | 0.00 | 0.00 | 68 | 1014.3 |
| 20260903080438 | 25 | 357 | 0.0 | 0.0 | 0.00 | 0.00 | 0.00 | 68 | 1014.3 |
| 20260903080336 | 25 | 360 | 0.0 | 0.0 | 0.00 | 0.00 | 0.00 | 68 | 1014.3 |
| 20260903080225 | 25 | 360 | 0.0 | 0.0 | 0.00 | 0.00 | 0.00 | 68 | 1014.3 |
| 20260903075937 | 25 | 360 | 0.0 | 0.0 | 0.00 | 0.00 | 0.00 | 68 | 1014.3 |
| 20260903075835 | 25 | 360 | 0.0 | 0.0 | 0.00 | 0.00 | 0.00 | 68 | 1014.3 |
| 20260903075752 | 25 | 360 | 0.0 | 0.0 | 0.00 | 0.00 | 0.00 | 68 | 1014.4 |
| 20260903075630 | 25 | 357 | 0.0 | 0.0 | 0.00 | 0.00 | 0.00 | 68 | 1014.4 |
| 20260903075533 | 25 | 360 | 0.0 | 0.0 | 0.00 | 0.00 | 0.00 | 68 | 1014.4 |
| 20260903075431 | 25 | 360 | 0.0 | 0.0 | 0.00 | 0.00 | 0.00 | 68 | 1014.4 |
| 20260903075350 | 25 | 360 | 0.0 | 0.0 | 0.00 | 0.00 | 0.00 | 68 | 1014.4 |
| 20260903075228 | 25 | 360 | 0.0 | 0.0 | 0.00 | 0.00 | 0.00 | 68 | 1014.4 |
| 20260903075127 | 25 | 360 | 0.0 | 0.0 | 0.00 | 0.00 | 0.00 | 68 | 1014.4 |
| 20260903075046 | 25 | 360 | 0.0 | 0.0 | 0.00 | 0.00 | 0.00 | 68 | 1014.4 |
| 20260903075004 | 25 | 360 | 0.0 | 0.0 | 0.00 | 0.00 | 0.00 | 68 | 1014.4 |
| 20260903074841 | 26 | 360 | 0.0 | 0.0 | 0.00 | 0.00 | 0.00 | 68 | 1014.4 |
| 20260903074724 | 26 | 360 | 0.0 | 0.0 | 0.00 | 0.00 | 0.00 | 68 | 1014.4 |
| 20260903074654 | 25 | 360 | 0.0 | 0.0 | 0.00 | 0.00 | 0.00 | 68 | 1014.4 |
| 20260903074532 | 26 | 360 | 0.0 | 0.0 | 0.00 | 0.00 | 0.00 | 68 | 1014.4 |
| 20260903074430 | 26 | 357 | 0.0 | 0.0 | 0.00 | 0.00 | 0.00 | 68 | 1014.4 |
| 20260903074330 | 26 | 360 | 0.0 | 0.0 | 0.00 | 0.00 | 0.00 | 68 | 1014.4 |
| 20260903074231 | 26 | 360 | 0.0 | 0.0 | 0.00 | 0.00 | 0.00 | 68 | 1014.4 |
| 20260903074127 | 26 | 360 | 0.0 | 0.0 | 0.00 | 0.00 | 0.00 | 68 | 1014.4 |
| 20260903074029 | 26 | 360 | 0.0 | 0.0 | 0.00 | 0.00 | 0.00 | 68 | 1014.4 |
| 20260903073947 | 26 | 360 | 0.0 | 0.0 | 0.00 | 0.00 | 0.00 | 68 | 1014.4 |
| 20260903073846 | 26 | 360 | 0.0 | 0.0 | 0.00 | 0.00 | 0.00 | 68 | 1014.4 |
| 20260903073748 | 26 | 360 | 0.0 | 0.0 | 0.00 | 0.00 | 0.00 | 68 | 1014.4 |
| 20260903073645 | 26 | 360 | 0.0 | 0.0 | 0.00 | 0.00 | 0.00 | 68 | 1014.4 |
| 20260903073603 | 26 | 359 | 0.0 | 0.0 | 0.00 | 0.00 | 0.00 | 68 | 1014.4 |
| 20260903073441 | 26 | 360 | 0.0 | 0.0 | 0.00 | 0.00 | 0.00 | 68 | 1014.4 |
| 20260903073339 | 26 | 360 | 0.0 | 0.0 | 0.00 | 0.00 | 0.00 | 68 | 1014.4 |
| 20260903073258 | 26 | 357 | 0.0 | 0.0 | 0.00 | 0.00 | 0.00 | 68 | 1014.4 |
| 20260903073208 | 26 | 360 | 0.0 | 0.0 | 0.00 | 0.00 | 0.00 | 68 | 1014.4 |
| 20260903073030 | 26 | 360 | 0.0 | 0.0 | 0.00 | 0.00 | 0.00 | 68 | 1014.4 |
| 20260903072929 | 26 | 359 | 0.0 | 0.0 | 0.00 | 0.00 | 0.00 | 68 | 1014.4 |
| 20260903072828 | 26 | 360 | 0.0 | 0.0 | 0.00 | 0.00 | 0.00 | 68 | 1014.4 |
| 20260903072725 | 26 | 360 | 0.0 | 0.0 | 0.00 | 0.00 | 0.00 | 68 | 1014.4 |
| 20260903072643 | 26 | 359 | 0.0 | 0.0 | 0.00 | 0.00 | 0.00 | 68 | 1014.4 |
| 20260903072524 | 26 | 360 | 0.0 | 0.0 | 0.00 | 0.00 | 0.00 | 68 | 1014.4 |
| 20260903072427 | 26 | 360 | 0.0 | 0.0 | 0.00 | 0.00 | 0.00 | 68 | 1014.4 |
| 20260903072325 | 26 | 359 | 0.0 | 0.0 | 0.00 | 0.00 | 0.00 | 68 | 1014.4 |
| 20260903072242 | 26 | 360 | 0.0 | 0.0 | 0.00 | 0.00 | 0.00 | 68 | 1014.4 |
| 20260903072141 | 26 | 360 | 0.0 | 0.0 | 0.00 | 0.00 | 0.00 | 68 | 1014.4 |
| 20260903072042 | 26 | 360 | 0.0 | 0.0 | 0.00 | 0.00 | 0.00 | 68 | 1014.4 |
| 20260903072002 | 26 | 360 | 0.0 | 0.0 | 0.00 | 0.00 | 0.00 | 68 | 1014.4 |
| 20260903071859 | 26 | 360 | 0.0 | 0.0 | 0.00 | 0.00 | 0.00 | 68 | 1014.4 |
| 20260903071704 | 26 | 360 | 0.0 | 0.0 | 0.00 | 0.00 | 0.00 | 68 | 1014.4 |
| 20260903071525 | 26 | 360 | 0.0 | 0.0 | 0.00 | 0.00 | 0.00 | 68 | 1014.4 |
| 20260903071443 | 26 | 360 | 0.0 | 0.0 | 0.00 | 0.00 | 0.00 | 68 | 1014.4 |
| 20260903071341 | 26 | 360 | 0.0 | 0.0 | 0.00 | 0.00 | 0.00 | 68 | 1014.4 |
| 20260903071240 | 26 | 359 | 0.0 | 0.0 | 0.00 | 0.00 | 0.00 | 68 | 1014.4 |
| 20260903071137 | 26 | 360 | 0.0 | 0.0 | 0.00 | 0.00 | 0.00 | 68 | 1014.4 |
| 20260903071035 | 26 | 360 | 0.0 | 0.0 | 0.00 | 0.00 | 0.00 | 68 | 1014.4 |
| 20260903070934 | 26 | 360 | 0.0 | 0.0 | 0.00 | 0.00 | 0.00 | 68 | 1014.4 |
| 20260903070837 | 26 | 360 | 0.0 | 0.0 | 0.00 | 0.00 | 0.00 | 68 | 1014.4 |
| 20260903070736 | 26 | 360 | 0.0 | 0.0 | 0.00 | 0.00 | 0.00 | 68 | 1014.4 |
| 20260903070635 | 26 | 360 | 0.0 | 0.0 | 0.00 | 0.00 | 0.00 | 69 | 1014.4 |
| 20260903070534 | 26 | 359 | 0.0 | 0.0 | 0.00 | 0.00 | 0.00 | 68 | 1014.4 |
| 20260903070453 | 26 | 360 | 0.0 | 0.0 | 0.00 | 0.00 | 0.00 | 68 | 1014.4 |
| 20260903070351 | 26 | 360 | 0.0 | 0.0 | 0.00 | 0.00 | 0.00 | 68 | 1014.4 |
| 20260903070228 | 26 | 360 | 0.0 | 0.0 | 0.00 | 0.00 | 0.00 | 68 | 1014.4 |
| 20260903070200 | 26 | 360 | 0.0 | 0.0 | 0.00 | 0.00 | 0.00 | 68 | 1014.4 |
| 20260903070041 | 26 | 360 | 0.0 | 0.0 | 0.00 | 0.00 | 0.00 | 68 | 1014.4 |
| 20260903065939 | 26 | 360 | 0.0 | 0.0 | 0.00 | 0.00 | 0.00 | 68 | 1014.4 |
| 20260903065837 | 26 | 360 | 0.0 | 0.0 | 0.00 | 0.00 | 0.00 | 68 | 1014.4 |
| 20260903065737 | 26 | 360 | 0.0 | 0.0 | 0.00 | 0.00 | 0.00 | 68 | 1015.4 |
| 20260903065637 | 26 | 360 | 0.0 | 0.0 | 0.00 | 0.00 | 0.00 | 68 | 1015.4 |
| 20260903065535 | 26 | 360 | 0.0 | 0.0 | 0.00 | 0.00 | 0.00 | 68 | 1015.4 |
| 20260903065439 | 26 | 360 | 0.0 | 0.0 | 0.00 | 0.00 | 0.00 | 68 | 1015.4 |
| 20260903065337 | 26 | 360 | 0.0 | 0.0 | 0.00 | 0.00 | 0.00 | 68 | 1015.4 |
| 20260903065236 | 26 | 360 | 0.0 | 0.0 | 0.00 | 0.00 | 0.00 | 68 | 1015.4 |
| 20260903065132 | 26 | 360 | 0.0 | 0.0 | 0.00 | 0.00 | 0.00 | 68 | 1015.4 |
| 20260903065031 | 26 | 360 | 0.0 | 0.0 | 0.00 | 0.00 | 0.00 | 68 | 1015.4 |
| 20260903064950 | 26 | 360 | 0.0 | 0.0 | 0.00 | 0.00 | 0.00 | 68 | 1015.4 |
| 20260903064827 | 26 | 360 | 0.0 | 0.0 | 0.00 | 0.00 | 0.00 | 68 | 1015.4 |
| 20260903064737 | 26 | 360 | 0.0 | 0.0 | 0.00 | 0.00 | 0.00 | 68 | 1015.4 |
| 20260903064649 | 26 | 360 | 0.0 | 0.0 | 0.00 | 0.00 | 0.00 | 68 | 1015.4 |
| 20260903064548 | 26 | 359 | 0.0 | 0.0 | 0.00 | 0.00 | 0.00 | 68 | 1015.4 |
| 20260903064425 | 26 | 359 | 0.0 | 0.0 | 0.00 | 0.00 | 0.00 | 68 | 1015.4 |
| 20260903064325 | 26 | 360 | 0.0 | 0.0 | 0.00 | 0.00 | 0.00 | 68 | 1015.4 |
| 20260903064243 | 26 | 360 | 0.0 | 0.0 | 0.00 | 0.00 | 0.00 | 68 | 1015.4 |
| 20260903064202 | 26 | 360 | 0.0 | 0.0 | 0.00 | 0.00 | 0.00 | 68 | 1015.4 |
| 20260903064040 | 26 | 360 | 0.0 | 0.0 | 0.00 | 0.00 | 0.00 | 68 | 1015.4 |
| 20260903063937 | 26 | 360 | 0.0 | 0.0 | 0.00 | 0.00 | 0.00 | 68 | 1015.4 |
| 20260903063840 | 26 | 359 | 0.0 | 0.0 | 0.00 | 0.00 | 0.00 | 68 | 1015.4 |
| 20260903063739 | 26 | 360 | 0.0 | 0.0 | 0.00 | 0.00 | 0.00 | 68 | 1015.4 |
| 20260903063638 | 26 | 360 | 0.0 | 0.0 | 0.00 | 0.00 | 0.00 | 68 | 1015.4 |
| 20260903063536 | 26 | 360 | 0.0 | 0.0 | 0.00 | 0.00 | 0.00 | 68 | 1015.4 |
| 20260903063434 | 26 | 360 | 0.0 | 0.0 | 0.00 | 0.00 | 0.00 | 68 | 1015.4 |
| 20260903063333 | 26 | 359 | 0.0 | 0.0 | 0.00 | 0.00 | 0.00 | 68 | 1015.4 |
| 20260903063251 | 26 | 357 | 0.0 | 0.0 | 0.00 | 0.00 | 0.00 | 68 | 1015.4 |
| 20260903063221 | 26 | 360 | 0.0 | 0.0 | 0.00 | 0.00 | 0.00 | 68 | 1015.4 |
| 20260903063041 | 26 | 357 | 0.0 | 1.6 | 0.00 | 0.00 | 0.00 | 68 | 1015.4 |
| 20260903062959 | 26 | 360 | 0.0 | 1.6 | 0.00 | 0.00 | 0.00 | 68 | 1015.4 |
| 20260903062835 | 26 | 360 | 0.0 | 3.2 | 0.00 | 0.00 | 0.00 | 68 | 1015.4 |
| 20260903062753 | 26 | 360 | 0.0 | 3.2 | 0.00 | 0.00 | 0.00 | 68 | 1015.5 |
| 20260903062631 | 26 | 360 | 0.0 | 3.2 | 0.00 | 0.00 | 0.00 | 68 | 1015.5 |
| 20260903062530 | 26 | 360 | 0.0 | 3.2 | 0.00 | 0.00 | 0.00 | 68 | 1015.5 |
| 20260903062428 | 26 | 359 | 0.0 | 3.2 | 0.00 | 0.00 | 0.00 | 68 | 1015.5 |
| 20260903062327 | 26 | 360 | 0.0 | 3.2 | 0.00 | 0.00 | 0.00 | 69 | 1015.5 |
| 20260903062230 | 26 | 360 | 1.6 | 3.2 | 0.00 | 0.00 | 0.00 | 69 | 1015.5 |
| 20260903062130 | 26 | 360 | 1.6 | 3.2 | 0.00 | 0.00 | 0.00 | 68 | 1015.5 |
| 20260903062028 | 26 | 360 | 1.6 | 3.2 | 0.00 | 0.00 | 0.00 | 68 | 1015.5 |
| 20260903061928 | 26 | 360 | 1.6 | 3.2 | 0.00 | 0.00 | 0.00 | 68 | 1015.5 |
| 20260903061828 | 26 | 356 | 1.6 | 3.2 | 0.00 | 0.00 | 0.00 | 68 | 1015.5 |
| 20260903061751 | 26 | 359 | 1.6 | 3.2 | 0.00 | 0.00 | 0.00 | 69 | 1015.5 |
| 20260903061700 | 26 | 359 | 1.6 | 3.2 | 0.00 | 0.00 | 0.00 | 69 | 1015.5 |
| 20260903061601 | 26 | 360 | 1.6 | 3.2 | 0.00 | 0.00 | 0.00 | 69 | 1015.5 |
| 20260903061422 | 26 | 360 | 3.2 | 3.2 | 0.00 | 0.00 | 0.00 | 68 | 1015.5 |
| 20260903061343 | 26 | 360 | 1.6 | 3.2 | 0.00 | 0.00 | 0.00 | 68 | 1015.5 |
| 20260903061241 | 26 | 360 | 1.6 | 3.2 | 0.00 | 0.00 | 0.00 | 68 | 1015.4 |
| 20260903061139 | 26 | 360 | 3.2 | 3.2 | 0.00 | 0.00 | 0.00 | 68 | 1015.4 |
| 20260903061038 | 26 | 359 | 3.2 | 3.2 | 0.00 | 0.00 | 0.00 | 68 | 1015.4 |
| 20260903060936 | 26 | 359 | 3.2 | 3.2 | 0.00 | 0.00 | 0.00 | 68 | 1015.4 |
| 20260903060834 | 26 | 360 | 3.2 | 3.2 | 0.00 | 0.00 | 0.00 | 68 | 1015.4 |
| 20260903060738 | 26 | 360 | 3.2 | 3.2 | 0.00 | 0.00 | 0.00 | 68 | 1015.4 |
| 20260903060657 | 26 | 360 | 1.6 | 3.2 | 0.00 | 0.00 | 0.00 | 68 | 1015.4 |
| 20260903060535 | 26 | 357 | 1.6 | 3.2 | 0.00 | 0.00 | 0.00 | 69 | 1015.4 |
| 20260903060433 | 26 | 360 | 1.6 | 3.2 | 0.00 | 0.00 | 0.00 | 69 | 1015.4 |
| 20260903060332 | 26 | 360 | 1.6 | 4.8 | 0.00 | 0.00 | 0.00 | 69 | 1015.4 |
| 20260903060252 | 26 | 360 | 3.2 | 4.8 | 0.00 | 0.00 | 0.00 | 69 | 1015.4 |
| 20260903060221 | 26 | 360 | 1.6 | 4.8 | 0.00 | 0.00 | 0.00 | 69 | 1015.4 |
| 20260903060037 | 26 | 360 | 3.2 | 4.8 | 0.00 | 0.00 | 0.00 | 69 | 1015.4 |
| 20260903055939 | 26 | 360 | 3.2 | 4.8 | 0.00 | 0.00 | 0.00 | 69 | 1015.4 |
| 20260903055838 | 26 | 359 | 3.2 | 4.8 | 0.00 | 0.00 | 0.00 | 69 | 1015.4 |
| 20260903055757 | 26 | 360 | 1.6 | 4.8 | 0.00 | 0.00 | 0.00 | 69 | 1015.5 |
| 20260903055635 | 26 | 359 | 1.6 | 4.8 | 0.00 | 0.00 | 0.00 | 68 | 1015.5 |
| 20260903055534 | 26 | 360 | 3.2 | 4.8 | 0.00 | 0.00 | 0.00 | 68 | 1015.5 |
| 20260903055432 | 26 | 359 | 3.2 | 3.2 | 0.00 | 0.00 | 0.00 | 68 | 1015.5 |
| 20260903055332 | 26 | 360 | 3.2 | 3.2 | 0.00 | 0.00 | 0.00 | 68 | 1015.5 |
| 20260903055234 | 26 | 359 | 3.2 | 3.2 | 0.00 | 0.00 | 0.00 | 68 | 1015.5 |
| 20260903055133 | 26 | 356 | 1.6 | 3.2 | 0.00 | 0.00 | 0.00 | 68 | 1015.5 |
| 20260903055031 | 26 | 360 | 1.6 | 4.8 | 0.00 | 0.00 | 0.00 | 69 | 1015.5 |
| 20260903054930 | 26 | 359 | 3.2 | 4.8 | 0.00 | 0.00 | 0.00 | 67 | 1015.5 |
| 20260903054831 | 26 | 360 | 3.2 | 4.8 | 0.00 | 0.00 | 0.00 | 67 | 1015.5 |
| 20260903054729 | 26 | 359 | 3.2 | 4.8 | 0.00 | 0.00 | 0.00 | 68 | 1015.5 |
| 20260903054700 | 26 | 357 | 3.2 | 4.8 | 0.00 | 0.00 | 0.00 | 68 | 1015.5 |
| 20260903054558 | 26 | 360 | 3.2 | 4.8 | 0.00 | 0.00 | 0.00 | 68 | 1015.5 |
| 20260903054439 | 26 | 360 | 1.6 | 4.8 | 0.00 | 0.00 | 0.00 | 68 | 1015.5 |
| 20260903054338 | 26 | 359 | 1.6 | 4.8 | 0.00 | 0.00 | 0.00 | 68 | 1015.5 |
| 20260903054235 | 26 | 360 | 3.2 | 4.8 | 0.00 | 0.00 | 0.00 | 68 | 1015.6 |
| 20260903054134 | 26 | 360 | 3.2 | 4.8 | 0.00 | 0.00 | 0.00 | 68 | 1015.6 |
| 20260903054034 | 26 | 325 | 3.2 | 4.8 | 0.00 | 0.00 | 0.00 | 69 | 1015.6 |
| 20260903053931 | 26 | 360 | 3.2 | 4.8 | 0.00 | 0.00 | 0.00 | 68 | 1015.6 |
| 20260903053829 | 26 | 6 | 3.2 | 4.8 | 0.00 | 0.00 | 0.00 | 69 | 1015.6 |
| 20260903053732 | 26 | 13 | 3.2 | 4.8 | 0.00 | 0.00 | 0.00 | 68 | 1015.6 |
| 20260903053632 | 26 | 31 | 3.2 | 4.8 | 0.00 | 0.00 | 0.00 | 68 | 1015.6 |
| 20260903053530 | 26 | 31 | 3.2 | 4.8 | 0.00 | 0.00 | 0.00 | 68 | 1015.6 |
| 20260903053428 | 26 | 31 | 3.2 | 4.8 | 0.00 | 0.00 | 0.00 | 68 | 1015.6 |
| 20260903053326 | 26 | 32 | 1.6 | 3.2 | 0.00 | 0.00 | 0.00 | 69 | 1015.6 |
| 20260903053225 | 26 | 34 | 1.6 | 3.2 | 0.00 | 0.00 | 0.00 | 69 | 1015.6 |
| 20260903053155 | 26 | 34 | 1.6 | 3.2 | 0.00 | 0.00 | 0.00 | 68 | 1015.6 |
| 20260903053059 | 26 | 34 | 1.6 | 3.2 | 0.00 | 0.00 | 0.00 | 67 | 1015.6 |
| 20260903052937 | 26 | 32 | 1.6 | 3.2 | 0.00 | 0.00 | 0.00 | 66 | 1015.6 |
| 20260903052834 | 26 | 32 | 1.6 | 3.2 | 0.00 | 0.00 | 0.00 | 66 | 1015.6 |
| 20260903052732 | 26 | 34 | 1.6 | 3.2 | 0.00 | 0.00 | 0.00 | 66 | 1015.6 |
| 20260903052630 | 26 | 32 | 1.6 | 4.8 | 0.00 | 0.00 | 0.00 | 66 | 1015.6 |
| 20260903052531 | 26 | 34 | 1.6 | 4.8 | 0.00 | 0.00 | 0.00 | 66 | 1015.6 |
| 20260903052429 | 26 | 34 | 1.6 | 4.8 | 0.00 | 0.00 | 0.00 | 66 | 1015.6 |
| 20260903052332 | 26 | 32 | 1.6 | 4.8 | 0.00 | 0.00 | 0.00 | 66 | 1015.6 |
| 20260903052231 | 26 | 31 | 3.2 | 4.8 | 0.00 | 0.00 | 0.00 | 66 | 1015.6 |
| 20260903052130 | 26 | 32 | 3.2 | 4.8 | 0.00 | 0.00 | 0.00 | 67 | 1015.6 |
| 20260903052030 | 26 | 34 | 3.2 | 4.8 | 0.00 | 0.00 | 0.00 | 67 | 1015.6 |
| 20260903051928 | 26 | 32 | 3.2 | 4.8 | 0.00 | 0.00 | 0.00 | 67 | 1015.6 |
| 20260903051827 | 26 | 30 | 3.2 | 4.8 | 0.00 | 0.00 | 0.00 | 67 | 1015.6 |
| 20260903051737 | 26 | 34 | 3.2 | 4.8 | 0.00 | 0.00 | 0.00 | 67 | 1015.6 |
| 20260903051650 | 26 | 34 | 4.8 | 4.8 | 0.00 | 0.00 | 0.00 | 68 | 1015.6 |
| 20260903051528 | 26 | 34 | 3.2 | 4.8 | 0.00 | 0.00 | 0.00 | 68 | 1015.6 |
| 20260903051427 | 26 | 34 | 3.2 | 4.8 | 0.00 | 0.00 | 0.00 | 67 | 1015.6 |
| 20260903051325 | 26 | 32 | 4.8 | 4.8 | 0.00 | 0.00 | 0.00 | 67 | 1015.6 |
| 20260903051226 | 26 | 34 | 3.2 | 4.8 | 0.00 | 0.00 | 0.00 | 67 | 1014.7 |
| 20260903051125 | 26 | 34 | 4.8 | 4.8 | 0.00 | 0.00 | 0.00 | 67 | 1014.7 |
| 20260903051044 | 26 | 34 | 3.2 | 4.8 | 0.00 | 0.00 | 0.00 | 68 | 1014.7 |
| 20260903050927 | 26 | 34 | 3.2 | 4.8 | 0.00 | 0.00 | 0.00 | 68 | 1014.7 |
| 20260903050825 | 26 | 35 | 3.2 | 4.8 | 0.00 | 0.00 | 0.00 | 68 | 1014.7 |
| 20260903050724 | 26 | 34 | 3.2 | 4.8 | 0.00 | 0.00 | 0.00 | 68 | 1014.7 |
| 20260903050641 | 26 | 32 | 1.6 | 3.2 | 0.00 | 0.00 | 0.00 | 68 | 1014.7 |
| 20260903050601 | 26 | 34 | 0.0 | 3.2 | 0.00 | 0.00 | 0.00 | 68 | 1014.7 |
| 20260903050438 | 26 | 35 | 1.6 | 3.2 | 0.00 | 0.00 | 0.00 | 66 | 1014.7 |
| 20260903050336 | 26 | 35 | 1.6 | 3.2 | 0.00 | 0.00 | 0.00 | 65 | 1014.7 |
| 20260903050255 | 26 | 34 | 3.2 | 3.2 | 0.00 | 0.00 | 0.00 | 65 | 1014.7 |
| 20260903050207 | 26 | 34 | 1.6 | 3.2 | 0.00 | 0.00 | 0.00 | 65 | 1014.7 |
| 20260903050043 | 26 | 32 | 1.6 | 3.2 | 0.00 | 0.00 | 0.00 | 65 | 1014.7 |
| 20260903045941 | 26 | 34 | 1.6 | 4.8 | 0.00 | 0.00 | 0.00 | 65 | 1014.7 |
| 20260903045859 | 26 | 31 | 0.0 | 4.8 | 0.00 | 0.00 | 0.00 | 65 | 1014.7 |
| 20260903045736 | 26 | 34 | 0.0 | 4.8 | 0.00 | 0.00 | 0.00 | 65 | 1015.5 |
| 20260903045634 | 26 | 34 | 0.0 | 4.8 | 0.00 | 0.00 | 0.00 | 65 | 1015.5 |
| 20260903045533 | 26 | 34 | 0.0 | 4.8 | 0.00 | 0.00 | 0.00 | 65 | 1015.5 |
| 20260903045432 | 26 | 34 | 0.0 | 4.8 | 0.00 | 0.00 | 0.00 | 65 | 1015.5 |
| 20260903045335 | 26 | 34 | 1.6 | 4.8 | 0.00 | 0.00 | 0.00 | 65 | 1015.5 |
| 20260903045235 | 26 | 35 | 1.6 | 4.8 | 0.00 | 0.00 | 0.00 | 65 | 1015.5 |
| 20260903045152 | 26 | 32 | 1.6 | 4.8 | 0.00 | 0.00 | 0.00 | 65 | 1015.5 |
| 20260903045033 | 26 | 34 | 1.6 | 4.8 | 0.00 | 0.00 | 0.00 | 65 | 1015.5 |
| 20260903044932 | 26 | 34 | 0.0 | 4.8 | 0.00 | 0.00 | 0.00 | 65 | 1015.5 |
| 20260903044831 | 26 | 34 | 1.6 | 4.8 | 0.00 | 0.00 | 0.00 | 66 | 1015.5 |
| 20260903044740 | 26 | 34 | 1.6 | 4.8 | 0.00 | 0.00 | 0.00 | 66 | 1015.5 |
| 20260903044648 | 26 | 35 | 0.0 | 4.8 | 0.00 | 0.00 | 0.00 | 66 | 1015.5 |
| 20260903044550 | 26 | 34 | 0.0 | 4.8 | 0.00 | 0.00 | 0.00 | 66 | 1015.5 |
| 20260903044426 | 26 | 34 | 0.0 | 4.8 | 0.00 | 0.00 | 0.00 | 66 | 1015.5 |
| 20260903044346 | 26 | 34 | 0.0 | 4.8 | 0.00 | 0.00 | 0.00 | 66 | 1015.5 |
| 20260903044244 | 26 | 34 | 1.6 | 4.8 | 0.00 | 0.00 | 0.00 | 66 | 1014.7 |
| 20260903044142 | 26 | 34 | 1.6 | 4.8 | 0.00 | 0.00 | 0.00 | 67 | 1014.7 |
| 20260903044040 | 26 | 34 | 3.2 | 4.8 | 0.00 | 0.00 | 0.00 | 66 | 1014.7 |
| 20260903043939 | 26 | 34 | 3.2 | 4.8 | 0.00 | 0.00 | 0.00 | 65 | 1014.7 |
| 20260903043856 | 26 | 34 | 1.6 | 1.6 | 0.00 | 0.00 | 0.00 | 66 | 1014.7 |
| 20260903043738 | 26 | 34 | 0.0 | 1.6 | 0.00 | 0.00 | 0.00 | 66 | 1014.7 |
| 20260903043635 | 26 | 35 | 0.0 | 3.2 | 0.00 | 0.00 | 0.00 | 65 | 1014.7 |
| 20260903043534 | 26 | 34 | 0.0 | 3.2 | 0.00 | 0.00 | 0.00 | 65 | 1014.7 |
| 20260903043453 | 26 | 32 | 0.0 | 3.2 | 0.00 | 0.00 | 0.00 | 65 | 1014.7 |
| 20260903043330 | 26 | 34 | 0.0 | 3.2 | 0.00 | 0.00 | 0.00 | 65 | 1014.7 |
| 20260903043259 | 26 | 32 | 0.0 | 3.2 | 0.00 | 0.00 | 0.00 | 65 | 1014.7 |
| 20260903043147 | 26 | 32 | 0.0 | 3.2 | 0.00 | 0.00 | 0.00 | 65 | 1014.7 |
| 20260903043043 | 26 | 34 | 0.0 | 3.2 | 0.00 | 0.00 | 0.00 | 65 | 1014.7 |
| 20260903042925 | 26 | 34 | 0.0 | 3.2 | 0.00 | 0.00 | 0.00 | 65 | 1014.7 |
| 20260903042824 | 26 | 34 | 1.6 | 3.2 | 0.00 | 0.00 | 0.00 | 65 | 1014.7 |
| 20260903042743 | 26 | 34 | 1.6 | 3.2 | 0.00 | 0.00 | 0.00 | 65 | 1014.6 |
| 20260903042643 | 26 | 31 | 1.6 | 3.2 | 0.00 | 0.00 | 0.00 | 65 | 1014.6 |
| 20260903042541 | 26 | 32 | 1.6 | 3.2 | 0.00 | 0.00 | 0.00 | 65 | 1014.6 |
| 20260903042439 | 26 | 34 | 1.6 | 4.8 | 0.00 | 0.00 | 0.00 | 65 | 1014.6 |
| 20260903042358 | 26 | 34 | 3.2 | 4.8 | 0.00 | 0.00 | 0.00 | 65 | 1014.6 |
| 20260903042236 | 26 | 34 | 1.6 | 4.8 | 0.00 | 0.00 | 0.00 | 65 | 1014.6 |
| 20260903042137 | 26 | 34 | 1.6 | 4.8 | 0.00 | 0.00 | 0.00 | 65 | 1014.6 |
| 20260903042056 | 26 | 34 | 1.6 | 4.8 | 0.00 | 0.00 | 0.00 | 65 | 1014.6 |
| 20260903041953 | 26 | 35 | 3.2 | 4.8 | 0.00 | 0.00 | 0.00 | 65 | 1014.6 |
| 20260903041833 | 26 | 35 | 3.2 | 4.8 | 0.00 | 0.00 | 0.00 | 65 | 1014.6 |
| 20260903041753 | 26 | 34 | 1.6 | 4.8 | 0.00 | 0.00 | 0.00 | 65 | 1014.6 |
| 20260903041701 | 26 | 31 | 1.6 | 4.8 | 0.00 | 0.00 | 0.00 | 65 | 1014.6 |
| 20260903041537 | 26 | 34 | 3.2 | 4.8 | 0.00 | 0.00 | 0.00 | 65 | 1014.6 |
| 20260903041437 | 26 | 32 | 3.2 | 3.2 | 0.00 | 0.00 | 0.00 | 65 | 1014.6 |
| 20260903041340 | 26 | 32 | 3.2 | 3.2 | 0.00 | 0.00 | 0.00 | 65 | 1014.6 |
| 20260903041240 | 26 | 34 | 1.6 | 3.2 | 0.00 | 0.00 | 0.00 | 65 | 1014.6 |
| 20260903041140 | 26 | 34 | 1.6 | 3.2 | 0.00 | 0.00 | 0.00 | 65 | 1014.6 |
| 20260903041040 | 26 | 32 | 1.6 | 3.2 | 0.00 | 0.00 | 0.00 | 64 | 1014.6 |
| 20260903040937 | 26 | 34 | 3.2 | 3.2 | 0.00 | 0.00 | 0.00 | 64 | 1014.6 |
| 20260903040836 | 26 | 34 | 3.2 | 3.2 | 0.00 | 0.00 | 0.00 | 64 | 1014.6 |
| 20260903040755 | 26 | 31 | 1.6 | 3.2 | 0.00 | 0.00 | 0.00 | 64 | 1014.6 |
| 20260903040652 | 26 | 34 | 1.6 | 3.2 | 0.00 | 0.00 | 0.00 | 64 | 1014.6 |
| 20260903040534 | 26 | 34 | 1.6 | 3.2 | 0.00 | 0.00 | 0.00 | 64 | 1014.6 |
| 20260903040432 | 26 | 34 | 1.6 | 3.2 | 0.00 | 0.00 | 0.00 | 64 | 1014.6 |
| 20260903040334 | 26 | 32 | 1.6 | 3.2 | 0.00 | 0.00 | 0.00 | 64 | 1014.6 |
| 20260903040243 | 26 | 34 | 1.6 | 3.2 | 0.00 | 0.00 | 0.00 | 64 | 1014.6 |
| 20260903040152 | 26 | 35 | 1.6 | 3.2 | 0.00 | 0.00 | 0.00 | 64 | 1014.6 |
| 20260903040029 | 27 | 34 | 1.6 | 3.2 | 0.00 | 0.00 | 0.00 | 64 | 1014.6 |
| 20260903035948 | 27 | 32 | 1.6 | 3.2 | 0.00 | 0.00 | 0.00 | 64 | 1014.6 |
| 20260903035905 | 27 | 35 | 1.6 | 3.2 | 0.00 | 0.00 | 0.00 | 64 | 1014.6 |
| 20260903035744 | 27 | 32 | 1.6 | 3.2 | 0.00 | 0.00 | 0.00 | 64 | 1015.7 |
| 20260903035642 | 27 | 34 | 1.6 | 3.2 | 0.00 | 0.00 | 0.00 | 64 | 1015.7 |
| 20260903035601 | 27 | 32 | 1.6 | 3.2 | 0.00 | 0.00 | 0.00 | 64 | 1015.7 |
| 20260903035437 | 27 | 31 | 1.6 | 3.2 | 0.00 | 0.00 | 0.00 | 64 | 1015.7 |
| 20260903035336 | 27 | 35 | 3.2 | 3.2 | 0.00 | 0.00 | 0.00 | 64 | 1015.7 |
| 20260903035234 | 27 | 34 | 1.6 | 3.2 | 0.00 | 0.00 | 0.00 | 64 | 1015.7 |
| 20260903035132 | 27 | 30 | 1.6 | 3.2 | 0.00 | 0.00 | 0.00 | 64 | 1015.7 |
| 20260903035051 | 27 | 32 | 1.6 | 3.2 | 0.00 | 0.00 | 0.00 | 65 | 1015.7 |
| 20260903034949 | 27 | 35 | 1.6 | 3.2 | 0.00 | 0.00 | 0.00 | 65 | 1015.7 |
| 20260903034831 | 27 | 30 | 1.6 | 3.2 | 0.00 | 0.00 | 0.00 | 65 | 1015.7 |
| 20260903034739 | 27 | 34 | 1.6 | 3.2 | 0.00 | 0.00 | 0.00 | 65 | 1015.7 |
| 20260903034648 | 27 | 35 | 1.6 | 3.2 | 0.00 | 0.00 | 0.00 | 65 | 1015.7 |
| 20260903034546 | 27 | 34 | 3.2 | 3.2 | 0.00 | 0.00 | 0.00 | 65 | 1015.7 |
| 20260903034443 | 27 | 34 | 3.2 | 3.2 | 0.00 | 0.00 | 0.00 | 65 | 1015.7 |
| 20260903034342 | 27 | 34 | 1.6 | 3.2 | 0.00 | 0.00 | 0.00 | 65 | 1015.7 |
| 20260903034240 | 27 | 34 | 1.6 | 3.2 | 0.00 | 0.00 | 0.00 | 65 | 1014.9 |
| 20260903034138 | 27 | 35 | 3.2 | 3.2 | 0.00 | 0.00 | 0.00 | 65 | 1014.9 |
| 20260903034042 | 27 | 32 | 3.2 | 3.2 | 0.00 | 0.00 | 0.00 | 65 | 1014.9 |
| 20260903033941 | 27 | 34 | 3.2 | 3.2 | 0.00 | 0.00 | 0.00 | 65 | 1014.9 |
| 20260903033839 | 27 | 31 | 3.2 | 3.2 | 0.00 | 0.00 | 0.00 | 65 | 1014.9 |
| 20260903033757 | 27 | 35 | 1.6 | 3.2 | 0.00 | 0.00 | 0.00 | 65 | 1014.9 |
| 20260903033633 | 27 | 34 | 1.6 | 3.2 | 0.00 | 0.00 | 0.00 | 65 | 1014.9 |
| 20260903033533 | 27 | 34 | 1.6 | 3.2 | 0.00 | 0.00 | 0.00 | 65 | 1014.9 |
| 20260903033452 | 27 | 34 | 3.2 | 3.2 | 0.00 | 0.00 | 0.00 | 65 | 1014.9 |
| 20260903033350 | 27 | 34 | 3.2 | 3.2 | 0.00 | 0.00 | 0.00 | 64 | 1014.9 |
| 20260903033242 | 27 | 31 | 1.6 | 3.2 | 0.00 | 0.00 | 0.00 | 64 | 1014.9 |
| 20260903033152 | 27 | 34 | 1.6 | 3.2 | 0.00 | 0.00 | 0.00 | 64 | 1014.9 |
| 20260903033029 | 27 | 34 | 1.6 | 3.2 | 0.00 | 0.00 | 0.00 | 64 | 1014.9 |
| 20260903032927 | 27 | 34 | 1.6 | 3.2 | 0.00 | 0.00 | 0.00 | 64 | 1014.9 |
| 20260903032826 | 27 | 34 | 0.0 | 3.2 | 0.00 | 0.00 | 0.00 | 64 | 1014.9 |
| 20260903032724 | 27 | 34 | 0.0 | 3.2 | 0.00 | 0.00 | 0.00 | 64 | 1015.9 |
| 20260903032624 | 27 | 34 | 0.0 | 3.2 | 0.00 | 0.00 | 0.00 | 64 | 1015.9 |
| 20260903032527 | 27 | 34 | 0.0 | 3.2 | 0.00 | 0.00 | 0.00 | 64 | 1015.9 |
| 20260903032425 | 27 | 35 | 0.0 | 3.2 | 0.00 | 0.00 | 0.00 | 64 | 1015.9 |
| 20260903032344 | 27 | 35 | 1.6 | 3.2 | 0.00 | 0.00 | 0.00 | 64 | 1015.9 |
| 20260903032305 | 27 | 35 | 1.6 | 3.2 | 0.00 | 0.00 | 0.00 | 64 | 1015.9 |
| 20260903032201 | 27 | 32 | 1.6 | 3.2 | 0.00 | 0.00 | 0.00 | 64 | 1015.9 |
| 20260903032058 | 27 | 34 | 1.6 | 4.8 | 0.00 | 0.00 | 0.00 | 64 | 1015.9 |
| 20260903031935 | 27 | 34 | 1.6 | 4.8 | 0.00 | 0.00 | 0.00 | 64 | 1015.9 |
| 20260903031833 | 27 | 32 | 1.6 | 4.8 | 0.00 | 0.00 | 0.00 | 64 | 1015.9 |
| 20260903031741 | 27 | 34 | 1.6 | 4.8 | 0.00 | 0.00 | 0.00 | 64 | 1015.9 |
| 20260903031655 | 27 | 34 | 0.0 | 4.8 | 0.00 | 0.00 | 0.00 | 64 | 1015.9 |
| 20260903031532 | 27 | 34 | 0.0 | 4.8 | 0.00 | 0.00 | 0.00 | 64 | 1015.9 |
| 20260903031429 | 27 | 34 | 1.6 | 4.8 | 0.00 | 0.00 | 0.00 | 64 | 1015.9 |
| 20260903031348 | 27 | 34 | 1.6 | 4.8 | 0.00 | 0.00 | 0.00 | 64 | 1015.9 |
| 20260903031224 | 27 | 34 | 3.2 | 4.8 | 0.00 | 0.00 | 0.00 | 64 | 1015.1 |
| 20260903031143 | 27 | 34 | 3.2 | 4.8 | 0.00 | 0.00 | 0.00 | 64 | 1015.1 |
| 20260903031041 | 27 | 34 | 1.6 | 4.8 | 0.00 | 0.00 | 0.00 | 64 | 1015.1 |
| 20260903030939 | 27 | 35 | 3.2 | 4.8 | 0.00 | 0.00 | 0.00 | 64 | 1015.1 |
| 20260903030857 | 27 | 34 | 3.2 | 4.8 | 0.00 | 0.00 | 0.00 | 63 | 1015.1 |
| 20260903030759 | 27 | 35 | 3.2 | 4.8 | 0.00 | 0.00 | 0.00 | 63 | 1015.1 |
| 20260903030636 | 27 | 31 | 3.2 | 3.2 | 0.00 | 0.00 | 0.00 | 63 | 1015.1 |
| 20260903030534 | 27 | 34 | 3.2 | 3.2 | 0.00 | 0.00 | 0.00 | 63 | 1015.1 |
| 20260903030430 | 27 | 34 | 3.2 | 3.2 | 0.00 | 0.00 | 0.00 | 63 | 1015.1 |
| 20260903030350 | 27 | 34 | 3.2 | 3.2 | 0.00 | 0.00 | 0.00 | 63 | 1015.1 |
| 20260903030238 | 27 | 34 | 1.6 | 3.2 | 0.00 | 0.00 | 0.00 | 63 | 1015.1 |
| 20260903030148 | 27 | 34 | 1.6 | 3.2 | 0.00 | 0.00 | 0.00 | 63 | 1015.1 |
| 20260903030025 | 27 | 34 | 1.6 | 3.2 | 0.00 | 0.00 | 0.00 | 63 | 1015.1 |
| 20260903025929 | 27 | 34 | 3.2 | 3.2 | 0.00 | 0.00 | 0.00 | 63 | 1015.1 |
| 20260903025846 | 27 | 34 | 3.2 | 3.2 | 0.00 | 0.00 | 0.00 | 63 | 1015.1 |
| 20260903025743 | 27 | 34 | 3.2 | 3.2 | 0.00 | 0.00 | 0.00 | 63 | 1015.0 |
| 20260903025642 | 27 | 32 | 1.6 | 3.2 | 0.00 | 0.00 | 0.00 | 63 | 1015.0 |
| 20260903025541 | 27 | 34 | 1.6 | 3.2 | 0.00 | 0.00 | 0.00 | 63 | 1015.0 |
| 20260903025500 | 27 | 34 | 1.6 | 3.2 | 0.00 | 0.00 | 0.00 | 63 | 1015.0 |
| 20260903025337 | 27 | 35 | 1.6 | 3.2 | 0.00 | 0.00 | 0.00 | 63 | 1015.0 |
| 20260903025235 | 27 | 34 | 1.6 | 3.2 | 0.00 | 0.00 | 0.00 | 63 | 1015.0 |
| 20260903025137 | 27 | 34 | 1.6 | 3.2 | 0.00 | 0.00 | 0.00 | 63 | 1015.0 |
| 20260903025036 | 27 | 35 | 1.6 | 3.2 | 0.00 | 0.00 | 0.00 | 63 | 1015.0 |
| 20260903024933 | 27 | 35 | 3.2 | 3.2 | 0.00 | 0.00 | 0.00 | 63 | 1015.0 |
| 20260903024832 | 27 | 34 | 3.2 | 3.2 | 0.00 | 0.00 | 0.00 | 63 | 1015.0 |
| 20260903024742 | 27 | 34 | 3.2 | 3.2 | 0.00 | 0.00 | 0.00 | 63 | 1015.0 |
| 20260903024651 | 27 | 34 | 3.2 | 3.2 | 0.00 | 0.00 | 0.00 | 62 | 1015.0 |
| 20260903024549 | 27 | 35 | 3.2 | 3.2 | 0.00 | 0.00 | 0.00 | 63 | 1015.0 |
| 20260903024425 | 27 | 34 | 3.2 | 3.2 | 0.00 | 0.00 | 0.00 | 63 | 1015.0 |
| 20260903024328 | 27 | 32 | 1.6 | 3.2 | 0.00 | 0.00 | 0.00 | 63 | 1015.0 |
| 20260903024247 | 27 | 30 | 3.2 | 4.8 | 0.00 | 0.00 | 0.00 | 63 | 1015.0 |
| 20260903024205 | 27 | 34 | 3.2 | 4.8 | 0.00 | 0.00 | 0.00 | 63 | 1015.0 |
| 20260903024041 | 27 | 32 | 1.6 | 4.8 | 0.00 | 0.00 | 0.00 | 63 | 1015.0 |
| 20260903023938 | 27 | 32 | 1.6 | 4.8 | 0.00 | 0.00 | 0.00 | 64 | 1015.0 |
| 20260903023835 | 27 | 32 | 1.6 | 4.8 | 0.00 | 0.00 | 0.00 | 64 | 1015.0 |
| 20260903023733 | 27 | 34 | 1.6 | 4.8 | 0.00 | 0.00 | 0.00 | 64 | 1015.0 |
| 20260903023632 | 27 | 34 | 1.6 | 4.8 | 0.00 | 0.00 | 0.00 | 64 | 1015.0 |
| 20260903023535 | 27 | 30 | 3.2 | 4.8 | 0.00 | 0.00 | 0.00 | 64 | 1015.0 |
| 20260903023434 | 27 | 34 | 3.2 | 4.8 | 0.00 | 0.00 | 0.00 | 64 | 1015.0 |
| 20260903023331 | 27 | 34 | 3.2 | 4.8 | 0.00 | 0.00 | 0.00 | 64 | 1015.0 |
| 20260903023242 | 27 | 32 | 3.2 | 4.8 | 0.00 | 0.00 | 0.00 | 64 | 1015.0 |
| 20260903023152 | 27 | 34 | 3.2 | 4.8 | 0.00 | 0.00 | 0.00 | 64 | 1015.0 |
| 20260903023028 | 27 | 34 | 3.2 | 4.8 | 0.00 | 0.00 | 0.00 | 64 | 1015.0 |
| 20260903022927 | 27 | 32 | 3.2 | 3.2 | 0.00 | 0.00 | 0.00 | 64 | 1015.0 |
| 20260903022850 | 27 | 34 | 3.2 | 3.2 | 0.00 | 0.00 | 0.00 | 64 | 1015.0 |
| 20260903022809 | 27 | 30 | 3.2 | 3.2 | 0.00 | 0.00 | 0.00 | 63 | 1015.0 |
| 20260903022644 | 27 | 34 | 1.6 | 3.2 | 0.00 | 0.00 | 0.00 | 63 | 1015.0 |
| 20260903022603 | 27 | 34 | 1.6 | 3.2 | 0.00 | 0.00 | 0.00 | 63 | 1015.0 |
| 20260903022440 | 27 | 34 | 1.6 | 3.2 | 0.00 | 0.00 | 0.00 | 63 | 1015.0 |
| 20260903022338 | 27 | 31 | 0.0 | 3.2 | 0.00 | 0.00 | 0.00 | 64 | 1015.0 |
| 20260903022237 | 27 | 32 | 0.0 | 0.0 | 0.00 | 0.00 | 0.00 | 64 | 1015.0 |
| 20260903022136 | 27 | 32 | 0.0 | 0.0 | 0.00 | 0.00 | 0.00 | 64 | 1015.0 |
| 20260903022039 | 27 | 32 | 0.0 | 0.0 | 0.00 | 0.00 | 0.00 | 64 | 1015.0 |
| 20260903021937 | 27 | 34 | 0.0 | 0.0 | 0.00 | 0.00 | 0.00 | 64 | 1015.0 |
| 20260903021836 | 27 | 32 | 0.0 | 0.0 | 0.00 | 0.00 | 0.00 | 64 | 1015.0 |
| 20260903021735 | 27 | 34 | 0.0 | 0.0 | 0.00 | 0.00 | 0.00 | 64 | 1015.0 |
| 20260903021704 | 27 | 32 | 0.0 | 0.0 | 0.00 | 0.00 | 0.00 | 63 | 1015.0 |
| 20260903021540 | 27 | 32 | 0.0 | 0.0 | 0.00 | 0.00 | 0.00 | 63 | 1015.0 |
| 20260903021440 | 27 | 34 | 0.0 | 0.0 | 0.00 | 0.00 | 0.00 | 63 | 1015.0 |
| 20260903021342 | 27 | 34 | 0.0 | 0.0 | 0.00 | 0.00 | 0.00 | 63 | 1015.0 |
| 20260903021241 | 27 | 31 | 0.0 | 0.0 | 0.00 | 0.00 | 0.00 | 64 | 1015.1 |
| 20260903021139 | 27 | 34 | 0.0 | 0.0 | 0.00 | 0.00 | 0.00 | 64 | 1015.1 |
| 20260903021058 | 27 | 34 | 0.0 | 0.0 | 0.00 | 0.00 | 0.00 | 64 | 1015.1 |
| 20260903020934 | 27 | 31 | 0.0 | 0.0 | 0.00 | 0.00 | 0.00 | 63 | 1015.1 |
| 20260903020832 | 27 | 30 | 0.0 | 0.0 | 0.00 | 0.00 | 0.00 | 63 | 1015.1 |
| 20260903020731 | 27 | 34 | 0.0 | 0.0 | 0.00 | 0.00 | 0.00 | 63 | 1015.1 |
| 20260903020635 | 27 | 34 | 0.0 | 0.0 | 0.00 | 0.00 | 0.00 | 63 | 1015.1 |
| 20260903020532 | 27 | 34 | 0.0 | 0.0 | 0.00 | 0.00 | 0.00 | 63 | 1015.1 |
| 20260903020434 | 27 | 34 | 0.0 | 0.0 | 0.00 | 0.00 | 0.00 | 63 | 1015.1 |
| 20260903020332 | 27 | 34 | 0.0 | 0.0 | 0.00 | 0.00 | 0.00 | 63 | 1015.1 |
| 20260903020251 | 27 | 34 | 0.0 | 0.0 | 0.00 | 0.00 | 0.00 | 63 | 1015.1 |
| 20260903020221 | 27 | 32 | 0.0 | 0.0 | 0.00 | 0.00 | 0.00 | 63 | 1015.1 |
| 20260903020038 | 27 | 31 | 0.0 | 0.0 | 0.00 | 0.00 | 0.00 | 63 | 1015.1 |
| 20260903015936 | 27 | 32 | 0.0 | 0.0 | 0.00 | 0.00 | 0.00 | 63 | 1015.1 |
| 20260903015839 | 27 | 34 | 0.0 | 0.0 | 0.00 | 0.00 | 0.00 | 63 | 1015.1 |
| 20260903015738 | 27 | 32 | 0.0 | 0.0 | 0.00 | 0.00 | 0.00 | 63 | 1014.9 |
| 20260903015638 | 27 | 31 | 0.0 | 0.0 | 0.00 | 0.00 | 0.00 | 63 | 1014.9 |
| 20260903015536 | 27 | 32 | 0.0 | 0.0 | 0.00 | 0.00 | 0.00 | 63 | 1014.9 |
| 20260903015433 | 27 | 34 | 0.0 | 0.0 | 0.00 | 0.00 | 0.00 | 63 | 1014.9 |
| 20260903015331 | 27 | 32 | 0.0 | 0.0 | 0.00 | 0.00 | 0.00 | 62 | 1014.9 |
| 20260903015234 | 27 | 34 | 0.0 | 0.0 | 0.00 | 0.00 | 0.00 | 63 | 1014.9 |
| 20260903015133 | 27 | 34 | 0.0 | 0.0 | 0.00 | 0.00 | 0.00 | 62 | 1014.9 |
| 20260903015031 | 27 | 34 | 0.0 | 0.0 | 0.00 | 0.00 | 0.00 | 62 | 1014.9 |
| 20260903014928 | 27 | 32 | 0.0 | 0.0 | 0.00 | 0.00 | 0.00 | 63 | 1014.9 |
| 20260903014826 | 27 | 32 | 0.0 | 1.6 | 0.00 | 0.00 | 0.00 | 63 | 1014.9 |
| 20260903014736 | 27 | 32 | 0.0 | 3.2 | 0.00 | 0.00 | 0.00 | 63 | 1014.9 |
| 20260903014645 | 27 | 31 | 0.0 | 3.2 | 0.00 | 0.00 | 0.00 | 63 | 1014.9 |
| 20260903014542 | 27 | 34 | 0.0 | 3.2 | 0.00 | 0.00 | 0.00 | 63 | 1014.9 |
| 20260903014444 | 27 | 34 | 0.0 | 3.2 | 0.00 | 0.00 | 0.00 | 63 | 1014.9 |
| 20260903014342 | 27 | 34 | 0.0 | 3.2 | 0.00 | 0.00 | 0.00 | 63 | 1014.9 |
| 20260903014241 | 27 | 34 | 0.0 | 3.2 | 0.00 | 0.00 | 0.00 | 63 | 1014.8 |
| 20260903014139 | 27 | 31 | 0.0 | 3.2 | 0.00 | 0.00 | 0.00 | 62 | 1014.8 |
| 20260903014059 | 27 | 30 | 0.0 | 3.2 | 0.00 | 0.00 | 0.00 | 62 | 1014.8 |
| 20260903013956 | 27 | 34 | 1.6 | 3.2 | 0.00 | 0.00 | 0.00 | 62 | 1014.8 |
| 20260903013833 | 27 | 32 | 1.6 | 3.2 | 0.00 | 0.00 | 0.00 | 62 | 1014.8 |
| 20260903013731 | 27 | 34 | 1.6 | 3.2 | 0.00 | 0.00 | 0.00 | 62 | 1014.8 |
| 20260903013634 | 27 | 32 | 1.6 | 3.2 | 0.00 | 0.00 | 0.00 | 62 | 1014.8 |
| 20260903013533 | 27 | 30 | 0.0 | 3.2 | 0.00 | 0.00 | 0.00 | 62 | 1014.8 |
| 20260903013431 | 27 | 34 | 0.0 | 1.6 | 0.00 | 0.00 | 0.00 | 62 | 1014.8 |
| 20260903013331 | 27 | 34 | 0.0 | 1.6 | 0.00 | 0.00 | 0.00 | 62 | 1014.8 |
| 20260903013241 | 27 | 32 | 0.0 | 1.6 | 0.00 | 0.00 | 0.00 | 62 | 1014.8 |
| 20260903013150 | 27 | 32 | 0.0 | 1.6 | 0.00 | 0.00 | 0.00 | 62 | 1014.8 |
| 20260903013027 | 27 | 32 | 0.0 | 3.2 | 0.00 | 0.00 | 0.00 | 62 | 1014.8 |
| 20260903012929 | 27 | 31 | 0.0 | 3.2 | 0.00 | 0.00 | 0.00 | 62 | 1014.8 |
| 20260903012847 | 27 | 34 | 0.0 | 3.2 | 0.00 | 0.00 | 0.00 | 62 | 1014.8 |
| 20260903012726 | 27 | 34 | 0.0 | 3.2 | 0.00 | 0.00 | 0.00 | 62 | 1014.5 |
| 20260903012644 | 27 | 34 | 0.0 | 3.2 | 0.00 | 0.00 | 0.00 | 62 | 1014.5 |
| 20260903012542 | 27 | 32 | 0.0 | 3.2 | 0.00 | 0.00 | 0.00 | 61 | 1014.5 |
| 20260903012440 | 27 | 31 | 0.0 | 3.2 | 0.00 | 0.00 | 0.00 | 61 | 1014.5 |
| 20260903012339 | 27 | 34 | 0.0 | 3.2 | 0.00 | 0.00 | 0.00 | 61 | 1014.5 |
| 20260903012242 | 27 | 32 | 1.6 | 3.2 | 0.00 | 0.00 | 0.00 | 61 | 1014.5 |
| 20260903012201 | 27 | 34 | 1.6 | 3.2 | 0.00 | 0.00 | 0.00 | 60 | 1014.5 |
| 20260903012039 | 27 | 32 | 1.6 | 1.6 | 0.00 | 0.00 | 0.00 | 61 | 1014.5 |
| 20260903011957 | 27 | 32 | 1.6 | 3.2 | 0.00 | 0.00 | 0.00 | 62 | 1014.5 |
| 20260903011833 | 27 | 34 | 0.0 | 3.2 | 0.00 | 0.00 | 0.00 | 62 | 1014.5 |
| 20260903011732 | 27 | 31 | 0.0 | 3.2 | 0.00 | 0.00 | 0.00 | 62 | 1014.5 |
| 20260903011702 | 27 | 32 | 0.0 | 3.2 | 0.00 | 0.00 | 0.00 | 61 | 1014.5 |
| 20260903011539 | 28 | 31 | 0.0 | 3.2 | 0.00 | 0.00 | 0.00 | 60 | 1014.5 |
| 20260903011437 | 28 | 34 | 0.0 | 3.2 | 0.00 | 0.00 | 0.00 | 59 | 1014.5 |
| 20260903011341 | 28 | 34 | 1.6 | 3.2 | 0.00 | 0.00 | 0.00 | 59 | 1014.5 |
| 20260903011238 | 28 | 34 | 1.6 | 3.2 | 0.00 | 0.00 | 0.00 | 59 | 1014.5 |
| 20260903011139 | 28 | 34 | 1.6 | 3.2 | 0.00 | 0.00 | 0.00 | 59 | 1014.5 |
| 20260903011057 | 28 | 34 | 1.6 | 3.2 | 0.00 | 0.00 | 0.00 | 59 | 1014.5 |
| 20260903010935 | 28 | 32 | 1.6 | 3.2 | 0.00 | 0.00 | 0.00 | 59 | 1014.5 |
| 20260903010831 | 28 | 34 | 1.6 | 3.2 | 0.00 | 0.00 | 0.00 | 59 | 1014.5 |
| 20260903010750 | 28 | 34 | 1.6 | 3.2 | 0.00 | 0.00 | 0.00 | 59 | 1014.5 |
| 20260903010626 | 28 | 34 | 1.6 | 3.2 | 0.00 | 0.00 | 0.00 | 59 | 1014.5 |
| 20260903010529 | 28 | 34 | 1.6 | 3.2 | 0.00 | 0.00 | 0.00 | 59 | 1014.5 |
| 20260903010427 | 28 | 32 | 1.6 | 3.2 | 0.00 | 0.00 | 0.00 | 60 | 1014.5 |
| 20260903010330 | 28 | 34 | 1.6 | 3.2 | 0.00 | 0.00 | 0.00 | 59 | 1014.5 |
| 20260903010300 | 28 | 34 | 1.6 | 3.2 | 0.00 | 0.00 | 0.00 | 59 | 1014.5 |
| 20260903010150 | 28 | 34 | 1.6 | 3.2 | 0.00 | 0.00 | 0.00 | 59 | 1014.5 |
| 20260903010026 | 28 | 32 | 1.6 | 3.2 | 0.00 | 0.00 | 0.00 | 59 | 1014.5 |
| 20260903005925 | 28 | 34 | 1.6 | 3.2 | 0.00 | 0.00 | 0.00 | 59 | 1014.5 |
| 20260903005828 | 28 | 34 | 1.6 | 3.2 | 0.00 | 0.00 | 0.00 | 59 | 1014.5 |
| 20260903005728 | 28 | 32 | 1.6 | 4.8 | 0.00 | 0.00 | 0.00 | 59 | 1014.4 |
| 20260903005626 | 28 | 31 | 1.6 | 4.8 | 0.00 | 0.00 | 0.00 | 59 | 1014.4 |
| 20260903005526 | 28 | 34 | 3.2 | 4.8 | 0.00 | 0.00 | 0.00 | 59 | 1014.4 |
| 20260903005424 | 28 | 34 | 3.2 | 4.8 | 0.00 | 0.00 | 0.00 | 59 | 1014.4 |
| 20260903005342 | 28 | 32 | 3.2 | 4.8 | 0.00 | 0.00 | 0.00 | 58 | 1014.4 |
| 20260903005301 | 28 | 30 | 1.6 | 4.8 | 0.00 | 0.00 | 0.00 | 59 | 1014.4 |
| 20260903005158 | 28 | 32 | 1.6 | 4.8 | 0.00 | 0.00 | 0.00 | 59 | 1014.4 |
| 20260903005056 | 28 | 34 | 3.2 | 4.8 | 0.00 | 0.00 | 0.00 | 59 | 1014.4 |
| 20260903004938 | 28 | 34 | 3.2 | 4.8 | 0.00 | 0.00 | 0.00 | 59 | 1014.4 |
| 20260903004837 | 28 | 32 | 3.2 | 4.8 | 0.00 | 0.00 | 0.00 | 59 | 1014.4 |
| 20260903004735 | 28 | 34 | 3.2 | 4.8 | 0.00 | 0.00 | 0.00 | 59 | 1014.4 |
| 20260903004705 | 28 | 34 | 3.2 | 4.8 | 0.00 | 0.00 | 0.00 | 60 | 1014.4 |
| 20260903004541 | 28 | 32 | 3.2 | 4.8 | 0.00 | 0.00 | 0.00 | 59 | 1014.4 |
| 20260903004440 | 28 | 34 | 3.2 | 4.8 | 0.00 | 0.00 | 0.00 | 59 | 1014.4 |
| 20260903004340 | 28 | 34 | 3.2 | 4.8 | 0.00 | 0.00 | 0.00 | 59 | 1014.4 |
| 20260903004243 | 28 | 34 | 3.2 | 4.8 | 0.00 | 0.00 | 0.00 | 59 | 1014.4 |
| 20260903004142 | 28 | 34 | 3.2 | 4.8 | 0.00 | 0.00 | 0.00 | 59 | 1014.4 |
| 20260903004041 | 28 | 34 | 3.2 | 4.8 | 0.00 | 0.00 | 0.00 | 59 | 1014.4 |
| 20260903003959 | 28 | 32 | 1.6 | 4.8 | 0.00 | 0.00 | 0.00 | 59 | 1014.4 |
| 20260903003836 | 28 | 32 | 3.2 | 4.8 | 0.00 | 0.00 | 0.00 | 59 | 1014.4 |
| 20260903003734 | 28 | 30 | 3.2 | 4.8 | 0.00 | 0.00 | 0.00 | 59 | 1014.4 |
| 20260903003633 | 28 | 34 | 3.2 | 4.8 | 0.00 | 0.00 | 0.00 | 59 | 1014.4 |
| 20260903003536 | 28 | 34 | 3.2 | 4.8 | 0.00 | 0.00 | 0.00 | 59 | 1014.4 |
| 20260903003433 | 28 | 34 | 3.2 | 4.8 | 0.00 | 0.00 | 0.00 | 59 | 1014.4 |
| 20260903003353 | 28 | 32 | 3.2 | 4.8 | 0.00 | 0.00 | 0.00 | 59 | 1014.4 |
| 20260903003202 | 28 | 34 | 3.2 | 3.2 | 0.00 | 0.00 | 0.00 | 59 | 1014.4 |
| 20260903003039 | 28 | 34 | 3.2 | 3.2 | 0.00 | 0.00 | 0.00 | 59 | 1014.4 |
| 20260903002938 | 28 | 34 | 3.2 | 3.2 | 0.00 | 0.00 | 0.00 | 59 | 1014.4 |
| 20260903002837 | 28 | 34 | 3.2 | 3.2 | 0.00 | 0.00 | 0.00 | 59 | 1014.4 |
| 20260903002740 | 28 | 34 | 3.2 | 3.2 | 0.00 | 0.00 | 0.00 | 59 | 1014.2 |
| 20260903002638 | 28 | 34 | 3.2 | 3.2 | 0.00 | 0.00 | 0.00 | 59 | 1014.2 |
| 20260903002537 | 28 | 34 | 1.6 | 3.2 | 0.00 | 0.00 | 0.00 | 59 | 1014.2 |
| 20260903002435 | 28 | 32 | 1.6 | 3.2 | 0.00 | 0.00 | 0.00 | 59 | 1014.2 |
| 20260903002357 | 28 | 34 | 1.6 | 3.2 | 0.00 | 0.00 | 0.00 | 59 | 1014.2 |
| 20260903002233 | 28 | 32 | 1.6 | 3.2 | 0.00 | 0.00 | 0.00 | 59 | 1014.2 |
| 20260903002133 | 28 | 34 | 1.6 | 3.2 | 0.00 | 0.00 | 0.00 | 59 | 1014.2 |
| 20260903002035 | 28 | 32 | 1.6 | 3.2 | 0.00 | 0.00 | 0.00 | 59 | 1014.2 |
| 20260903001935 | 28 | 34 | 1.6 | 3.2 | 0.00 | 0.00 | 0.00 | 59 | 1014.2 |
| 20260903001832 | 28 | 34 | 3.2 | 3.2 | 0.00 | 0.00 | 0.00 | 59 | 1014.2 |
| 20260903001731 | 28 | 34 | 3.2 | 3.2 | 0.00 | 0.00 | 0.00 | 59 | 1014.2 |
| 20260903001701 | 28 | 32 | 3.2 | 4.8 | 0.00 | 0.00 | 0.00 | 59 | 1014.2 |
| 20260903001538 | 28 | 34 | 1.6 | 4.8 | 0.00 | 0.00 | 0.00 | 59 | 1014.2 |
| 20260903001458 | 29 | 31 | 1.6 | 4.8 | 0.00 | 0.00 | 0.00 | 59 | 1014.2 |
| 20260903001341 | 29 | 34 | 1.6 | 4.8 | 0.00 | 0.00 | 0.00 | 60 | 1014.2 |
| 20260903001259 | 29 | 35 | 3.2 | 4.8 | 0.00 | 0.00 | 0.00 | 60 | 1014.2 |
| 20260903001136 | 29 | 34 | 3.2 | 4.8 | 0.00 | 0.00 | 0.00 | 60 | 1014.2 |
| 20260903001034 | 29 | 31 | 3.2 | 4.8 | 0.00 | 0.00 | 0.00 | 60 | 1014.2 |
| 20260903000933 | 29 | 32 | 3.2 | 4.8 | 0.00 | 0.00 | 0.00 | 60 | 1014.2 |
| 20260903000832 | 29 | 34 | 3.2 | 4.8 | 0.00 | 0.00 | 0.00 | 60 | 1014.2 |
| 20260903000731 | 29 | 34 | 3.2 | 4.8 | 0.00 | 0.00 | 0.00 | 60 | 1014.2 |
| 20260903000633 | 29 | 30 | 1.6 | 4.8 | 0.00 | 0.00 | 0.00 | 60 | 1014.2 |
| 20260903000532 | 29 | 35 | 3.2 | 4.8 | 0.00 | 0.00 | 0.00 | 60 | 1014.2 |
| 20260903000432 | 29 | 34 | 3.2 | 4.8 | 0.00 | 0.00 | 0.00 | 60 | 1014.2 |
| 20260903000329 | 29 | 34 | 1.6 | 4.8 | 0.00 | 0.00 | 0.00 | 60 | 1014.2 |
| 20260903000240 | 29 | 34 | 1.6 | 4.8 | 0.00 | 0.00 | 0.00 | 60 | 1014.2 |
| 20260903000148 | 29 | 34 | 3.2 | 4.8 | 0.00 | 0.00 | 0.00 | 60 | 1014.2 |
| 20260903000025 | 29 | 32 | 3.2 | 4.8 | 0.00 | 0.00 | 0.00 | 59 | 1014.2 |
| 20260902235927 | 29 | 34 | 3.2 | 4.8 | 0.00 | 0.00 | 0.00 | 59 | 1014.2 |
| 20260902235846 | 29 | 34 | 3.2 | 4.8 | 0.00 | 0.00 | 0.00 | 59 | 1014.2 |
| 20260902235804 | 29 | 34 | 3.2 | 4.8 | 0.00 | 0.00 | 0.00 | 59 | 1014.1 |
| 20260902235642 | 29 | 34 | 3.2 | 4.8 | 0.00 | 0.00 | 0.00 | 59 | 1014.1 |
| 20260902235540 | 29 | 34 | 3.2 | 4.8 | 0.00 | 0.00 | 0.00 | 59 | 1014.1 |
| 20260902235438 | 29 | 34 | 3.2 | 3.2 | 0.00 | 0.00 | 0.00 | 60 | 1014.1 |
| 20260902235336 | 29 | 34 | 1.6 | 3.2 | 0.00 | 0.00 | 0.00 | 60 | 1014.1 |
| 20260902235255 | 29 | 34 | 3.2 | 3.2 | 0.00 | 0.00 | 0.00 | 60 | 1014.1 |
| 20260902235154 | 29 | 35 | 1.6 | 3.2 | 0.00 | 0.00 | 0.00 | 60 | 1014.1 |
| 20260902235035 | 30 | 34 | 1.6 | 3.2 | 0.00 | 0.00 | 0.00 | 59 | 1014.1 |
| 20260902234935 | 30 | 32 | 1.6 | 3.2 | 0.00 | 0.00 | 0.00 | 59 | 1014.1 |
| 20260902234835 | 30 | 35 | 1.6 | 3.2 | 0.00 | 0.00 | 0.00 | 59 | 1014.1 |
| 20260902234734 | 30 | 35 | 1.6 | 4.8 | 0.00 | 0.00 | 0.00 | 59 | 1014.1 |
| 20260902234703 | 30 | 34 | 3.2 | 4.8 | 0.00 | 0.00 | 0.00 | 59 | 1014.1 |
| 20260902234542 | 30 | 34 | 3.2 | 4.8 | 0.00 | 0.00 | 0.00 | 59 | 1014.1 |
| 20260902234501 | 30 | 34 | 3.2 | 4.8 | 0.00 | 0.00 | 0.00 | 59 | 1014.1 |
| 20260902234342 | 30 | 31 | 1.6 | 4.8 | 0.00 | 0.00 | 0.00 | 59 | 1014.1 |
| 20260902234240 | 30 | 34 | 1.6 | 4.8 | 0.00 | 0.00 | 0.00 | 59 | 1014.2 |
| 20260902234139 | 30 | 34 | 3.2 | 4.8 | 0.00 | 0.00 | 0.00 | 59 | 1014.2 |
| 20260902234038 | 30 | 35 | 1.6 | 4.8 | 0.00 | 0.00 | 0.00 | 59 | 1014.2 |
| 20260902233937 | 30 | 34 | 3.2 | 4.8 | 0.00 | 0.00 | 0.00 | 59 | 1014.2 |
| 20260902233834 | 30 | 34 | 3.2 | 4.8 | 0.00 | 0.00 | 0.00 | 59 | 1014.2 |
| 20260902233732 | 30 | 34 | 3.2 | 4.8 | 0.00 | 0.00 | 0.00 | 59 | 1014.2 |
| 20260902233635 | 30 | 35 | 3.2 | 4.8 | 0.00 | 0.00 | 0.00 | 59 | 1014.2 |
| 20260902233533 | 30 | 32 | 3.2 | 4.8 | 0.00 | 0.00 | 0.00 | 59 | 1014.2 |
| 20260902233433 | 30 | 32 | 3.2 | 4.8 | 0.00 | 0.00 | 0.00 | 58 | 1014.2 |
| 20260902233330 | 30 | 34 | 3.2 | 4.8 | 0.00 | 0.00 | 0.00 | 58 | 1014.2 |
| 20260902233228 | 30 | 34 | 1.6 | 4.8 | 0.00 | 0.00 | 0.00 | 58 | 1014.2 |
| 20260902233200 | 30 | 35 | 1.6 | 4.8 | 0.00 | 0.00 | 0.00 | 58 | 1014.2 |
| 20260902233037 | 30 | 31 | 1.6 | 4.8 | 0.00 | 0.00 | 0.00 | 57 | 1014.2 |
| 20260902232939 | 30 | 34 | 3.2 | 4.8 | 0.00 | 0.00 | 0.00 | 57 | 1014.2 |
| 20260902232838 | 30 | 32 | 1.6 | 4.8 | 0.00 | 0.00 | 0.00 | 56 | 1014.2 |
| 20260902232737 | 30 | 34 | 1.6 | 4.8 | 0.00 | 0.00 | 0.00 | 57 | 1014.2 |
| 20260902232636 | 30 | 34 | 1.6 | 4.8 | 0.00 | 0.00 | 0.00 | 57 | 1014.2 |
| 20260902232534 | 30 | 34 | 1.6 | 3.2 | 0.00 | 0.00 | 0.00 | 57 | 1014.2 |
| 20260902232454 | 30 | 32 | 1.6 | 3.2 | 0.00 | 0.00 | 0.00 | 57 | 1014.2 |
| 20260902232330 | 30 | 34 | 3.2 | 3.2 | 0.00 | 0.00 | 0.00 | 57 | 1014.2 |
| 20260902232233 | 30 | 34 | 3.2 | 3.2 | 0.00 | 0.00 | 0.00 | 57 | 1014.2 |
| 20260902232132 | 30 | 35 | 1.6 | 3.2 | 0.00 | 0.00 | 0.00 | 56 | 1014.2 |
| 20260902232030 | 30 | 34 | 1.6 | 3.2 | 0.00 | 0.00 | 0.00 | 56 | 1014.2 |
| 20260902231928 | 30 | 34 | 1.6 | 3.2 | 0.00 | 0.00 | 0.00 | 56 | 1014.2 |
| 20260902231828 | 30 | 34 | 1.6 | 3.2 | 0.00 | 0.00 | 0.00 | 56 | 1014.2 |
| 20260902231758 | 30 | 34 | 1.6 | 3.2 | 0.00 | 0.00 | 0.00 | 56 | 1014.2 |
| 20260902231645 | 30 | 34 | 1.6 | 3.2 | 0.00 | 0.00 | 0.00 | 56 | 1014.2 |
| 20260902231542 | 30 | 34 | 1.6 | 3.2 | 0.00 | 0.00 | 0.00 | 56 | 1014.2 |
| 20260902231444 | 30 | 34 | 1.6 | 3.2 | 0.00 | 0.00 | 0.00 | 56 | 1014.2 |
| 20260902231342 | 30 | 34 | 0.0 | 3.2 | 0.00 | 0.00 | 0.00 | 56 | 1014.2 |
| 20260902231240 | 30 | 35 | 0.0 | 3.2 | 0.00 | 0.00 | 0.00 | 56 | 1014.3 |
| 20260902231138 | 30 | 34 | 0.0 | 3.2 | 0.00 | 0.00 | 0.00 | 55 | 1014.3 |
| 20260902231037 | 30 | 32 | 0.0 | 3.2 | 0.00 | 0.00 | 0.00 | 55 | 1014.3 |
| 20260902230934 | 30 | 34 | 0.0 | 3.2 | 0.00 | 0.00 | 0.00 | 55 | 1014.3 |
| 20260902230852 | 30 | 34 | 1.6 | 3.2 | 0.00 | 0.00 | 0.00 | 55 | 1014.3 |
| 20260902230730 | 30 | 35 | 1.6 | 3.2 | 0.00 | 0.00 | 0.00 | 55 | 1014.3 |
| 20260902230633 | 30 | 32 | 1.6 | 3.2 | 0.00 | 0.00 | 0.00 | 55 | 1014.3 |
| 20260902230534 | 30 | 34 | 0.0 | 3.2 | 0.00 | 0.00 | 0.00 | 55 | 1014.3 |
| 20260902230432 | 30 | 34 | 0.0 | 3.2 | 0.00 | 0.00 | 0.00 | 55 | 1014.3 |
| 20260902230331 | 30 | 34 | 1.6 | 4.8 | 0.00 | 0.00 | 0.00 | 54 | 1014.3 |
| 20260902230241 | 30 | 34 | 0.0 | 4.8 | 0.00 | 0.00 | 0.00 | 55 | 1014.3 |
| 20260902230149 | 30 | 34 | 0.0 | 4.8 | 0.00 | 0.00 | 0.00 | 55 | 1014.3 |
| 20260902230026 | 30 | 34 | 0.0 | 4.8 | 0.00 | 0.00 | 0.00 | 55 | 1014.3 |
| 20260902225929 | 30 | 34 | 0.0 | 4.8 | 0.00 | 0.00 | 0.00 | 55 | 1014.3 |
| 20260902225828 | 30 | 34 | 1.6 | 4.8 | 0.00 | 0.00 | 0.00 | 54 | 1014.3 |
| 20260902225745 | 30 | 35 | 1.6 | 4.8 | 0.00 | 0.00 | 0.00 | 54 | 1014.3 |
| 20260902225642 | 30 | 34 | 3.2 | 4.8 | 0.00 | 0.00 | 0.00 | 54 | 1014.3 |
| 20260902225540 | 30 | 34 | 3.2 | 4.8 | 0.00 | 0.00 | 0.00 | 54 | 1014.3 |
| 20260902225439 | 30 | 35 | 3.2 | 4.8 | 0.00 | 0.00 | 0.00 | 54 | 1014.3 |
| 20260902225357 | 30 | 30 | 1.6 | 4.8 | 0.00 | 0.00 | 0.00 | 54 | 1014.3 |
| 20260902225254 | 31 | 34 | 0.0 | 4.8 | 0.00 | 0.00 | 0.00 | 55 | 1014.3 |
| 20260902225135 | 31 | 34 | 1.6 | 4.8 | 0.00 | 0.00 | 0.00 | 54 | 1014.3 |
| 20260902225034 | 31 | 34 | 4.8 | 4.8 | 0.00 | 0.00 | 0.00 | 52 | 1014.3 |
| 20260902224953 | 31 | 32 | 3.2 | 4.8 | 0.00 | 0.00 | 0.00 | 54 | 1014.3 |
| 20260902224850 | 31 | 34 | 0.0 | 4.8 | 0.00 | 0.00 | 0.00 | 53 | 1014.3 |
| 20260902224753 | 31 | 32 | 0.0 | 6.4 | 0.00 | 0.00 | 0.00 | 53 | 1014.3 |
| 20260902224723 | 31 | 34 | 0.0 | 6.4 | 0.00 | 0.00 | 0.00 | 53 | 1014.3 |
| 20260902224541 | 31 | 32 | 0.0 | 6.4 | 0.00 | 0.00 | 0.00 | 53 | 1014.3 |
| 20260902224439 | 31 | 34 | 0.0 | 6.4 | 0.00 | 0.00 | 0.00 | 53 | 1014.3 |
| 20260902224325 | 31 | 31 | 1.6 | 6.4 | 0.00 | 0.00 | 0.00 | 54 | 1014.3 |
| 20260902224244 | 31 | 32 | 3.2 | 6.4 | 0.00 | 0.00 | 0.00 | 54 | 1014.4 |
| 20260902224202 | 31 | 32 | 3.2 | 6.4 | 0.00 | 0.00 | 0.00 | 54 | 1014.4 |
| 20260902224040 | 31 | 32 | 3.2 | 6.4 | 0.00 | 0.00 | 0.00 | 54 | 1014.4 |
| 20260902223938 | 31 | 32 | 3.2 | 6.4 | 0.00 | 0.00 | 0.00 | 54 | 1014.4 |
| 20260902223836 | 31 | 34 | 3.2 | 4.8 | 0.00 | 0.00 | 0.00 | 54 | 1014.4 |
| 20260902223753 | 31 | 34 | 3.2 | 4.8 | 0.00 | 0.00 | 0.00 | 54 | 1014.4 |
| 20260902223631 | 31 | 32 | 3.2 | 3.2 | 0.00 | 0.00 | 0.00 | 54 | 1014.4 |
| 20260902223535 | 31 | 34 | 1.6 | 3.2 | 0.00 | 0.00 | 0.00 | 53 | 1014.4 |
| 20260902223432 | 31 | 34 | 1.6 | 3.2 | 0.00 | 0.00 | 0.00 | 55 | 1014.4 |
| 20260902223330 | 31 | 32 | 1.6 | 3.2 | 0.00 | 0.00 | 0.00 | 55 | 1014.4 |
| 20260902223240 | 31 | 34 | 1.6 | 3.2 | 0.00 | 0.00 | 0.00 | 54 | 1014.4 |
| 20260902223151 | 31 | 31 | 1.6 | 3.2 | 0.00 | 0.00 | 0.00 | 54 | 1014.4 |
| 20260902223029 | 31 | 32 | 0.0 | 4.8 | 0.00 | 0.00 | 0.00 | 54 | 1014.4 |
| 20260902222927 | 31 | 34 | 1.6 | 4.8 | 0.00 | 0.00 | 0.00 | 53 | 1014.4 |
| 20260902222824 | 31 | 34 | 1.6 | 4.8 | 0.00 | 0.00 | 0.00 | 52 | 1014.4 |
| 20260902222726 | 31 | 34 | 3.2 | 4.8 | 0.00 | 0.00 | 0.00 | 52 | 1014.5 |
| 20260902222645 | 31 | 34 | 1.6 | 4.8 | 0.00 | 0.00 | 0.00 | 52 | 1014.5 |
| 20260902222603 | 31 | 34 | 0.0 | 4.8 | 0.00 | 0.00 | 0.00 | 52 | 1014.5 |
| 20260902222441 | 31 | 34 | 0.0 | 4.8 | 0.00 | 0.00 | 0.00 | 52 | 1014.5 |
| 20260902222340 | 31 | 31 | 0.0 | 4.8 | 0.00 | 0.00 | 0.00 | 52 | 1014.5 |
| 20260902222238 | 31 | 34 | 1.6 | 4.8 | 0.00 | 0.00 | 0.00 | 52 | 1014.5 |
| 20260902222134 | 31 | 34 | 3.2 | 4.8 | 0.00 | 0.00 | 0.00 | 52 | 1014.5 |
| 20260902222032 | 31 | 34 | 3.2 | 4.8 | 0.00 | 0.00 | 0.00 | 51 | 1014.5 |
| 20260902221935 | 31 | 32 | 0.0 | 3.2 | 0.00 | 0.00 | 0.00 | 51 | 1014.5 |
| 20260902221834 | 31 | 32 | 0.0 | 3.2 | 0.00 | 0.00 | 0.00 | 50 | 1014.5 |
| 20260902221731 | 31 | 32 | 0.0 | 4.8 | 0.00 | 0.00 | 0.00 | 50 | 1014.5 |
| 20260902221702 | 31 | 32 | 0.0 | 4.8 | 0.00 | 0.00 | 0.00 | 51 | 1014.5 |
| 20260902221558 | 31 | 32 | 0.0 | 4.8 | 0.00 | 0.00 | 0.00 | 50 | 1014.5 |
| 20260902221436 | 31 | 32 | 1.6 | 4.8 | 0.00 | 0.00 | 0.00 | 48 | 1014.5 |
| 20260902221335 | 31 | 34 | 1.6 | 4.8 | 0.00 | 0.00 | 0.00 | 49 | 1014.5 |
| 20260902221254 | 31 | 34 | 1.6 | 4.8 | 0.00 | 0.00 | 0.00 | 52 | 1014.4 |
| 20260902221134 | 31 | 32 | 1.6 | 4.8 | 0.00 | 0.00 | 0.00 | 52 | 1014.4 |
| 20260902221032 | 31 | 34 | 0.0 | 4.8 | 0.00 | 0.00 | 0.00 | 52 | 1014.4 |
| 20260902220931 | 31 | 32 | 3.2 | 4.8 | 0.00 | 0.00 | 0.00 | 52 | 1014.4 |
| 20260902220829 | 31 | 32 | 1.6 | 4.8 | 0.00 | 0.00 | 0.00 | 52 | 1014.4 |
| 20260902220727 | 31 | 31 | 1.6 | 6.4 | 0.00 | 0.00 | 0.00 | 52 | 1014.4 |
| 20260902220625 | 31 | 34 | 3.2 | 8.0 | 0.00 | 0.00 | 0.00 | 51 | 1014.4 |
| 20260902220526 | 31 | 20 | 3.2 | 8.0 | 0.00 | 0.00 | 0.00 | 50 | 1014.4 |
| 20260902220448 | 31 | 21 | 1.6 | 8.0 | 0.00 | 0.00 | 0.00 | 51 | 1014.4 |
| 20260902220326 | 31 | 21 | 0.0 | 8.0 | 0.00 | 0.00 | 0.00 | 51 | 1014.4 |
| 20260902220245 | 31 | 20 | 1.6 | 8.0 | 0.00 | 0.00 | 0.00 | 51 | 1014.4 |
| 20260902220154 | 31 | 21 | 3.2 | 8.0 | 0.00 | 0.00 | 0.00 | 51 | 1014.4 |
| 20260902220030 | 31 | 21 | 4.8 | 8.0 | 0.00 | 0.00 | 0.00 | 51 | 1014.4 |
| 20260902215928 | 31 | 20 | 4.8 | 8.0 | 0.00 | 0.00 | 0.00 | 50 | 1014.4 |
| 20260902215847 | 31 | 20 | 6.4 | 8.0 | 0.00 | 0.00 | 0.00 | 51 | 1014.4 |
| 20260902215745 | 31 | 20 | 8.0 | 8.0 | 0.00 | 0.00 | 0.00 | 50 | 1014.6 |
| 20260902215703 | 31 | 20 | 6.4 | 8.0 | 0.00 | 0.00 | 0.00 | 50 | 1014.6 |
| 20260902215524 | 31 | 7 | 3.2 | 6.4 | 0.00 | 0.00 | 0.00 | 52 | 1014.6 |
| 20260902215444 | 31 | 6 | 4.8 | 6.4 | 0.00 | 0.00 | 0.00 | 52 | 1014.6 |
| 20260902215402 | 31 | 6 | 4.8 | 6.4 | 0.00 | 0.00 | 0.00 | 51 | 1014.6 |
| 20260902215239 | 31 | 4 | 3.2 | 4.8 | 0.00 | 0.00 | 0.00 | 51 | 1014.6 |
| 20260902215137 | 31 | 6 | 0.0 | 3.2 | 0.00 | 0.00 | 0.00 | 48 | 1014.6 |
| 20260902215036 | 31 | 6 | 0.0 | 0.0 | 0.00 | 0.00 | 0.00 | 47 | 1014.6 |
| 20260902214934 | 31 | 6 | 0.0 | 0.0 | 0.00 | 0.00 | 0.00 | 49 | 1014.6 |
| 20260902214852 | 31 | 6 | 0.0 | 3.2 | 0.00 | 0.00 | 0.00 | 49 | 1014.6 |
| 20260902214816 | 31 | 4 | 0.0 | 4.8 | 0.00 | 0.00 | 0.00 | 50 | 1014.6 |
| 20260902214704 | 31 | 6 | 0.0 | 8.0 | 0.00 | 0.00 | 0.00 | 49 | 1014.6 |
| 20260902214542 | 31 | 6 | 0.0 | 8.0 | 0.00 | 0.00 | 0.00 | 48 | 1014.6 |
| 20260902214440 | 31 | 4 | 0.0 | 8.0 | 0.00 | 0.00 | 0.00 | 48 | 1014.6 |
| 20260902214338 | 31 | 6 | 0.0 | 8.0 | 0.00 | 0.00 | 0.00 | 49 | 1014.6 |
| 20260902214236 | 31 | 3 | 0.0 | 8.0 | 0.00 | 0.00 | 0.00 | 49 | 1014.7 |
| 20260902214134 | 31 | 6 | 0.0 | 8.0 | 0.00 | 0.00 | 0.00 | 49 | 1014.7 |
| 20260902214036 | 31 | 4 | 1.6 | 8.0 | 0.00 | 0.00 | 0.00 | 48 | 1014.7 |
| 20260902213935 | 31 | 360 | 3.2 | 8.0 | 0.00 | 0.00 | 0.00 | 50 | 1014.7 |
| 20260902213834 | 31 | 7 | 4.8 | 8.0 | 0.00 | 0.00 | 0.00 | 50 | 1014.7 |
| 20260902213732 | 31 | 6 | 4.8 | 8.0 | 0.00 | 0.00 | 0.00 | 50 | 1014.7 |
| 20260902213630 | 31 | 4 | 4.8 | 6.4 | 0.00 | 0.00 | 0.00 | 50 | 1014.7 |
| 20260902213529 | 31 | 3 | 1.6 | 3.2 | 0.00 | 0.00 | 0.00 | 50 | 1014.7 |
| 20260902213426 | 31 | 4 | 1.6 | 3.2 | 0.00 | 0.00 | 0.00 | 50 | 1014.7 |
| 20260902213329 | 31 | 3 | 1.6 | 3.2 | 0.00 | 0.00 | 0.00 | 49 | 1014.7 |
| 20260902213258 | 31 | 3 | 0.0 | 3.2 | 0.00 | 0.00 | 0.00 | 50 | 1014.7 |
| 20260902213147 | 31 | 360 | 0.0 | 3.2 | 0.00 | 0.00 | 0.00 | 49 | 1014.7 |
| 20260902213024 | 31 | 3 | 0.0 | 3.2 | 0.00 | 0.00 | 0.00 | 50 | 1014.7 |
| 20260902212942 | 31 | 4 | 0.0 | 3.2 | 0.00 | 0.00 | 0.00 | 50 | 1014.7 |
| 20260902212902 | 31 | 3 | 0.0 | 3.2 | 0.00 | 0.00 | 0.00 | 50 | 1014.7 |
| 20260902212738 | 31 | 3 | 3.2 | 4.8 | 0.00 | 0.00 | 0.00 | 50 | 1014.8 |
| 20260902212638 | 31 | 3 | 1.6 | 6.4 | 0.00 | 0.00 | 0.00 | 50 | 1014.8 |
| 20260902212540 | 31 | 3 | 1.6 | 6.4 | 0.00 | 0.00 | 0.00 | 50 | 1014.8 |
| 20260902212438 | 31 | 1 | 0.0 | 6.4 | 0.00 | 0.00 | 0.00 | 50 | 1014.8 |
| 20260902212336 | 31 | 1 | 0.0 | 6.4 | 0.00 | 0.00 | 0.00 | 50 | 1014.8 |
| 20260902212235 | 31 | 4 | 1.6 | 6.4 | 0.00 | 0.00 | 0.00 | 50 | 1014.8 |
| 20260902212132 | 31 | 1 | 1.6 | 6.4 | 0.00 | 0.00 | 0.00 | 49 | 1014.8 |
| 20260902212030 | 31 | 3 | 3.2 | 6.4 | 0.00 | 0.00 | 0.00 | 49 | 1014.8 |
| 20260902211929 | 31 | 3 | 3.2 | 6.4 | 0.00 | 0.00 | 0.00 | 49 | 1014.8 |
| 20260902211831 | 31 | 4 | 3.2 | 6.4 | 0.00 | 0.00 | 0.00 | 49 | 1014.8 |
| 20260902211731 | 31 | 3 | 3.2 | 8.0 | 0.00 | 0.00 | 0.00 | 49 | 1014.8 |
| 20260902211659 | 31 | 3 | 1.6 | 8.0 | 0.00 | 0.00 | 0.00 | 48 | 1014.8 |
| 20260902211537 | 31 | 3 | 3.2 | 8.0 | 0.00 | 0.00 | 0.00 | 48 | 1014.8 |
| 20260902211435 | 31 | 4 | 3.2 | 8.0 | 0.00 | 0.00 | 0.00 | 47 | 1014.8 |
| 20260902211334 | 31 | 4 | 3.2 | 8.0 | 0.00 | 0.00 | 0.00 | 48 | 1014.8 |
| 20260902211233 | 31 | 4 | 1.6 | 8.0 | 0.00 | 0.00 | 0.00 | 48 | 1014.8 |
| 20260902211135 | 31 | 4 | 0.0 | 8.0 | 0.00 | 0.00 | 0.00 | 47 | 1014.8 |
| 20260902211034 | 31 | 3 | 1.6 | 8.0 | 0.00 | 0.00 | 0.00 | 47 | 1014.8 |
| 20260902210933 | 31 | 4 | 3.2 | 8.0 | 0.00 | 0.00 | 0.00 | 46 | 1014.8 |
| 20260902210832 | 31 | 6 | 1.6 | 4.8 | 0.00 | 0.00 | 0.00 | 47 | 1014.8 |
| 20260902210729 | 31 | 1 | 3.2 | 4.8 | 0.00 | 0.00 | 0.00 | 47 | 1014.8 |
| 20260902210628 | 31 | 4 | 0.0 | 4.8 | 0.00 | 0.00 | 0.00 | 47 | 1014.8 |
| 20260902210531 | 31 | 6 | 3.2 | 4.8 | 0.00 | 0.00 | 0.00 | 46 | 1014.8 |
| 20260902210430 | 31 | 6 | 3.2 | 4.8 | 0.00 | 0.00 | 0.00 | 47 | 1014.8 |
| 20260902210329 | 31 | 4 | 1.6 | 4.8 | 0.00 | 0.00 | 0.00 | 46 | 1014.8 |
| 20260902210239 | 31 | 4 | 1.6 | 4.8 | 0.00 | 0.00 | 0.00 | 47 | 1014.8 |
| 20260902210148 | 31 | 6 | 0.0 | 4.8 | 0.00 | 0.00 | 0.00 | 48 | 1014.8 |
| 20260902210026 | 31 | 6 | 0.0 | 4.8 | 0.00 | 0.00 | 0.00 | 48 | 1014.8 |
| 20260902205925 | 31 | 4 | 1.6 | 4.8 | 0.00 | 0.00 | 0.00 | 47 | 1014.8 |
| 20260902205827 | 31 | 3 | 3.2 | 4.8 | 0.00 | 0.00 | 0.00 | 47 | 1014.8 |
| 20260902205725 | 31 | 4 | 3.2 | 6.4 | 0.00 | 0.00 | 0.00 | 46 | 1014.8 |
| 20260902205643 | 31 | 6 | 3.2 | 6.4 | 0.00 | 0.00 | 0.00 | 47 | 1014.8 |
| 20260902205541 | 31 | 4 | 3.2 | 6.4 | 0.00 | 0.00 | 0.00 | 48 | 1014.8 |
| 20260902205440 | 31 | 4 | 3.2 | 6.4 | 0.00 | 0.00 | 0.00 | 48 | 1014.8 |
| 20260902205357 | 31 | 4 | 3.2 | 6.4 | 0.00 | 0.00 | 0.00 | 48 | 1014.8 |
| 20260902205234 | 31 | 6 | 3.2 | 6.4 | 0.00 | 0.00 | 0.00 | 48 | 1014.8 |
| 20260902205137 | 31 | 4 | 1.6 | 6.4 | 0.00 | 0.00 | 0.00 | 48 | 1014.8 |
| 20260902205043 | 31 | 4 | 3.2 | 6.4 | 0.00 | 0.00 | 0.00 | 47 | 1014.8 |
| 20260902205002 | 31 | 3 | 4.8 | 6.4 | 0.00 | 0.00 | 0.00 | 47 | 1014.8 |
| 20260902204839 | 31 | 4 | 1.6 | 3.2 | 0.00 | 0.00 | 0.00 | 48 | 1014.8 |
| 20260902204757 | 31 | 4 | 0.0 | 1.6 | 0.00 | 0.00 | 0.00 | 47 | 1014.8 |
| 20260902204707 | 31 | 6 | 0.0 | 3.2 | 0.00 | 0.00 | 0.00 | 47 | 1014.8 |
| 20260902204604 | 31 | 4 | 0.0 | 3.2 | 0.00 | 0.00 | 0.00 | 46 | 1014.8 |
| 20260902204441 | 31 | 6 | 0.0 | 3.2 | 0.00 | 0.00 | 0.00 | 47 | 1014.8 |
| 20260902204340 | 31 | 1 | 0.0 | 3.2 | 0.00 | 0.00 | 0.00 | 47 | 1014.8 |
| 20260902204238 | 31 | 6 | 0.0 | 3.2 | 0.00 | 0.00 | 0.00 | 50 | 1014.9 |
| 20260902204200 | 31 | 6 | 0.0 | 3.2 | 0.00 | 0.00 | 0.00 | 50 | 1014.9 |
| 20260902204058 | 31 | 6 | 0.0 | 3.2 | 0.00 | 0.00 | 0.00 | 50 | 1014.9 |
| 20260902203936 | 31 | 6 | 0.0 | 3.2 | 0.00 | 0.00 | 0.00 | 50 | 1014.9 |
| 20260902203833 | 31 | 4 | 1.6 | 3.2 | 0.00 | 0.00 | 0.00 | 49 | 1014.9 |
| 20260902203732 | 31 | 4 | 3.2 | 3.2 | 0.00 | 0.00 | 0.00 | 50 | 1014.9 |
| 20260902203631 | 31 | 6 | 3.2 | 3.2 | 0.00 | 0.00 | 0.00 | 49 | 1014.9 |
| 20260902203529 | 31 | 4 | 1.6 | 3.2 | 0.00 | 0.00 | 0.00 | 49 | 1014.9 |
| 20260902203429 | 31 | 6 | 0.0 | 3.2 | 0.00 | 0.00 | 0.00 | 48 | 1014.9 |
| 20260902203331 | 31 | 6 | 1.6 | 4.8 | 0.00 | 0.00 | 0.00 | 48 | 1014.9 |
| 20260902203241 | 31 | 6 | 1.6 | 4.8 | 0.00 | 0.00 | 0.00 | 48 | 1014.9 |
| 20260902203151 | 31 | 6 | 1.6 | 8.0 | 0.00 | 0.00 | 0.00 | 47 | 1014.9 |
| 20260902203028 | 31 | 4 | 0.0 | 8.0 | 0.00 | 0.00 | 0.00 | 47 | 1014.9 |
| 20260902202947 | 31 | 4 | 1.6 | 9.7 | 0.00 | 0.00 | 0.00 | 47 | 1014.9 |
| 20260902202843 | 31 | 4 | 1.6 | 9.7 | 0.00 | 0.00 | 0.00 | 47 | 1014.9 |
| 20260902202742 | 31 | 4 | 3.2 | 11.3 | 0.00 | 0.00 | 0.00 | 47 | 1015.2 |
| 20260902202641 | 31 | 7 | 3.2 | 11.3 | 0.00 | 0.00 | 0.00 | 47 | 1015.2 |
| 20260902202544 | 31 | 6 | 3.2 | 11.3 | 0.00 | 0.00 | 0.00 | 47 | 1015.2 |
| 20260902202502 | 31 | 6 | 4.8 | 11.3 | 0.00 | 0.00 | 0.00 | 46 | 1015.2 |
| 20260902202339 | 31 | 6 | 4.8 | 11.3 | 0.00 | 0.00 | 0.00 | 47 | 1015.2 |
| 20260902202257 | 31 | 6 | 6.4 | 11.3 | 0.00 | 0.00 | 0.00 | 47 | 1015.2 |
| 20260902202135 | 31 | 20 | 6.4 | 11.3 | 0.00 | 0.00 | 0.00 | 47 | 1015.2 |
| 20260902202033 | 31 | 21 | 8.0 | 11.3 | 0.00 | 0.00 | 0.00 | 47 | 1015.2 |
| 20260902201952 | 31 | 24 | 6.4 | 11.3 | 0.00 | 0.00 | 0.00 | 49 | 1015.2 |
| 20260902201828 | 31 | 11 | 4.8 | 9.7 | 0.00 | 0.00 | 0.00 | 50 | 1015.2 |
| 20260902201730 | 31 | 13 | 4.8 | 9.7 | 0.00 | 0.00 | 0.00 | 49 | 1015.2 |
| 20260902201700 | 31 | 13 | 4.8 | 9.7 | 0.00 | 0.00 | 0.00 | 50 | 1015.2 |
| 20260902201538 | 31 | 6 | 4.8 | 9.7 | 0.00 | 0.00 | 0.00 | 50 | 1015.2 |
| 20260902201436 | 31 | 4 | 4.8 | 9.7 | 0.00 | 0.00 | 0.00 | 49 | 1015.2 |
| 20260902201334 | 31 | 11 | 8.0 | 9.7 | 0.00 | 0.00 | 0.00 | 49 | 1015.2 |
| 20260902201233 | 31 | 21 | 0.0 | 9.7 | 0.00 | 0.00 | 0.00 | 49 | 1015.3 |
| 20260902201131 | 31 | 18 | 1.6 | 9.7 | 0.00 | 0.00 | 0.00 | 49 | 1015.3 |
| 20260902201033 | 31 | 21 | 3.2 | 11.3 | 0.00 | 0.00 | 0.00 | 49 | 1015.3 |
| 20260902200931 | 31 | 23 | 1.6 | 11.3 | 0.00 | 0.00 | 0.00 | 50 | 1015.3 |
| 20260902200829 | 31 | 27 | 1.6 | 11.3 | 0.00 | 0.00 | 0.00 | 51 | 1015.3 |
| 20260902200748 | 31 | 25 | 1.6 | 11.3 | 0.00 | 0.00 | 0.00 | 51 | 1015.3 |
| 20260902200626 | 31 | 25 | 3.2 | 11.3 | 0.00 | 0.00 | 0.00 | 49 | 1015.3 |
| 20260902200524 | 31 | 25 | 4.8 | 11.3 | 0.00 | 0.00 | 0.00 | 50 | 1015.3 |
| 20260902200443 | 31 | 25 | 3.2 | 11.3 | 0.00 | 0.00 | 0.00 | 50 | 1015.3 |
| 20260902200326 | 31 | 23 | 6.4 | 11.3 | 0.00 | 0.00 | 0.00 | 48 | 1015.3 |
| 20260902200236 | 31 | 1 | 8.0 | 11.3 | 0.00 | 0.00 | 0.00 | 48 | 1015.3 |
| 20260902200146 | 31 | 24 | 6.4 | 11.3 | 0.00 | 0.00 | 0.00 | 50 | 1015.3 |
| 20260902200043 | 31 | 360 | 8.0 | 11.3 | 0.00 | 0.00 | 0.00 | 49 | 1015.3 |
| 20260902195942 | 31 | 14 | 8.0 | 11.3 | 0.00 | 0.00 | 0.00 | 49 | 1015.3 |
| 20260902195840 | 31 | 10 | 6.4 | 9.7 | 0.00 | 0.00 | 0.00 | 48 | 1015.3 |
| 20260902195759 | 31 | 4 | 6.4 | 9.7 | 0.00 | 0.00 | 0.00 | 50 | 1015.5 |
| 20260902195636 | 31 | 3 | 4.8 | 9.7 | 0.00 | 0.00 | 0.00 | 50 | 1015.5 |
| 20260902195555 | 31 | 3 | 4.8 | 9.7 | 0.00 | 0.00 | 0.00 | 50 | 1015.5 |
| 20260902195436 | 31 | 1 | 6.4 | 9.7 | 0.00 | 0.00 | 0.00 | 50 | 1015.5 |
| 20260902195335 | 31 | 7 | 1.6 | 8.0 | 0.00 | 0.00 | 0.00 | 50 | 1015.5 |
| 20260902195233 | 31 | 10 | 3.2 | 8.0 | 0.00 | 0.00 | 0.00 | 49 | 1015.5 |
| 20260902195152 | 31 | 1 | 0.0 | 4.8 | 0.00 | 0.00 | 0.00 | 50 | 1015.5 |
| 20260902195030 | 31 | 1 | 1.6 | 4.8 | 0.00 | 0.00 | 0.00 | 50 | 1015.5 |
| 20260902194948 | 31 | 3 | 3.2 | 8.0 | 0.00 | 0.00 | 0.00 | 50 | 1015.5 |
| 20260902194825 | 31 | 1 | 1.6 | 8.0 | 0.00 | 0.00 | 0.00 | 51 | 1015.5 |
| 20260902194739 | 31 | 1 | 3.2 | 8.0 | 0.00 | 0.00 | 0.00 | 50 | 1015.5 |
| 20260902194648 | 31 | 1 | 0.0 | 8.0 | 0.00 | 0.00 | 0.00 | 51 | 1015.5 |
| 20260902194525 | 31 | 1 | 0.0 | 9.7 | 0.00 | 0.00 | 0.00 | 50 | 1015.5 |
| 20260902194443 | 31 | 3 | 0.0 | 9.7 | 0.00 | 0.00 | 0.00 | 50 | 1015.5 |
| 20260902194341 | 31 | 1 | 0.0 | 9.7 | 0.00 | 0.00 | 0.00 | 50 | 1015.5 |
| 20260902194240 | 31 | 3 | 3.2 | 11.3 | 0.00 | 0.00 | 0.00 | 50 | 1015.6 |
| 20260902194138 | 31 | 360 | 4.8 | 11.3 | 0.00 | 0.00 | 0.00 | 49 | 1015.6 |
| 20260902194037 | 31 | 1 | 4.8 | 11.3 | 0.00 | 0.00 | 0.00 | 49 | 1015.6 |
| 20260902193938 | 31 | 7 | 4.8 | 11.3 | 0.00 | 0.00 | 0.00 | 49 | 1015.6 |
| 20260902193837 | 31 | 7 | 4.8 | 11.3 | 0.00 | 0.00 | 0.00 | 49 | 1015.6 |
| 20260902193735 | 31 | 7 | 6.4 | 11.3 | 0.00 | 0.00 | 0.00 | 50 | 1015.6 |
| 20260902193634 | 31 | 8 | 6.4 | 11.3 | 0.00 | 0.00 | 0.00 | 49 | 1015.6 |
| 20260902193533 | 31 | 11 | 6.4 | 11.3 | 0.00 | 0.00 | 0.00 | 49 | 1015.6 |
| 20260902193432 | 31 | 14 | 6.4 | 11.3 | 0.00 | 0.00 | 0.00 | 50 | 1015.6 |
| 20260902193336 | 31 | 323 | 3.2 | 4.8 | 0.00 | 0.00 | 0.00 | 50 | 1015.6 |
| 20260902193255 | 31 | 322 | 1.6 | 3.2 | 0.00 | 0.00 | 0.00 | 50 | 1015.6 |
| 20260902193205 | 31 | 322 | 0.0 | 3.2 | 0.00 | 0.00 | 0.00 | 49 | 1015.6 |
| 20260902193042 | 31 | 320 | 0.0 | 3.2 | 0.00 | 0.00 | 0.00 | 49 | 1015.6 |
| 20260902192939 | 31 | 320 | 0.0 | 3.2 | 0.00 | 0.00 | 0.00 | 49 | 1015.6 |
| 20260902192837 | 31 | 320 | 0.0 | 3.2 | 0.00 | 0.00 | 0.00 | 50 | 1015.6 |
| 20260902192756 | 31 | 320 | 0.0 | 3.2 | 0.00 | 0.00 | 0.00 | 51 | 1015.8 |
| 20260902192632 | 31 | 320 | 1.6 | 3.2 | 0.00 | 0.00 | 0.00 | 52 | 1015.8 |
| 20260902192536 | 31 | 360 | 0.0 | 4.8 | 0.00 | 0.00 | 0.00 | 52 | 1015.8 |
| 20260902192435 | 31 | 360 | 0.0 | 4.8 | 0.00 | 0.00 | 0.00 | 52 | 1015.8 |
| 20260902192333 | 31 | 1 | 0.0 | 4.8 | 0.00 | 0.00 | 0.00 | 51 | 1015.8 |
| 20260902192252 | 31 | 1 | 0.0 | 4.8 | 0.00 | 0.00 | 0.00 | 53 | 1015.8 |
| 20260902192129 | 31 | 1 | 1.6 | 4.8 | 0.00 | 0.00 | 0.00 | 53 | 1015.8 |
| 20260902192027 | 31 | 1 | 0.0 | 4.8 | 0.00 | 0.00 | 0.00 | 52 | 1015.8 |
| 20260902191927 | 31 | 3 | 0.0 | 4.8 | 0.00 | 0.00 | 0.00 | 52 | 1015.8 |
| 20260902191833 | 31 | 4 | 1.6 | 4.8 | 0.00 | 0.00 | 0.00 | 50 | 1015.8 |
| 20260902191751 | 31 | 3 | 3.2 | 4.8 | 0.00 | 0.00 | 0.00 | 50 | 1015.8 |
| 20260902191659 | 31 | 3 | 3.2 | 4.8 | 0.00 | 0.00 | 0.00 | 50 | 1015.8 |
| 20260902191537 | 31 | 3 | 1.6 | 4.8 | 0.00 | 0.00 | 0.00 | 49 | 1015.8 |
| 20260902191436 | 31 | 1 | 1.6 | 4.8 | 0.00 | 0.00 | 0.00 | 49 | 1015.8 |
| 20260902191335 | 31 | 360 | 1.6 | 4.8 | 0.00 | 0.00 | 0.00 | 50 | 1015.8 |
| 20260902191236 | 31 | 1 | 0.0 | 4.8 | 0.00 | 0.00 | 0.00 | 50 | 1016.9 |
| 20260902191135 | 31 | 1 | 0.0 | 4.8 | 0.00 | 0.00 | 0.00 | 51 | 1016.9 |
| 20260902191037 | 31 | 1 | 3.2 | 4.8 | 0.00 | 0.00 | 0.00 | 50 | 1016.9 |
| 20260902190956 | 31 | 1 | 1.6 | 4.8 | 0.00 | 0.00 | 0.00 | 50 | 1016.9 |
| 20260902190833 | 31 | 1 | 0.0 | 4.8 | 0.00 | 0.00 | 0.00 | 52 | 1016.9 |
| 20260902190751 | 31 | 1 | 1.6 | 4.8 | 0.00 | 0.00 | 0.00 | 52 | 1016.9 |
| 20260902190629 | 31 | 4 | 0.0 | 4.8 | 0.00 | 0.00 | 0.00 | 53 | 1016.9 |
| 20260902190528 | 31 | 6 | 0.0 | 4.8 | 0.00 | 0.00 | 0.00 | 52 | 1016.9 |
| 20260902190426 | 31 | 6 | 0.0 | 4.8 | 0.00 | 0.00 | 0.00 | 51 | 1016.9 |
| 20260902190345 | 31 | 6 | 0.0 | 4.8 | 0.00 | 0.00 | 0.00 | 51 | 1016.9 |
| 20260902190227 | 31 | 6 | 1.6 | 4.8 | 0.00 | 0.00 | 0.00 | 51 | 1016.9 |
| 20260902190157 | 31 | 7 | 3.2 | 4.8 | 0.00 | 0.00 | 0.00 | 51 | 1016.9 |
| 20260902190036 | 31 | 4 | 1.6 | 4.8 | 0.00 | 0.00 | 0.00 | 51 | 1016.9 |
| 20260902185935 | 31 | 6 | 0.0 | 4.8 | 0.00 | 0.00 | 0.00 | 52 | 1016.9 |
| 20260902185853 | 31 | 6 | 1.6 | 4.8 | 0.00 | 0.00 | 0.00 | 52 | 1016.9 |
| 20260902185730 | 31 | 6 | 3.2 | 4.8 | 0.00 | 0.00 | 0.00 | 52 | 1016.1 |
| 20260902185628 | 31 | 6 | 3.2 | 4.8 | 0.00 | 0.00 | 0.00 | 53 | 1016.1 |
| 20260902185526 | 31 | 4 | 3.2 | 4.8 | 0.00 | 0.00 | 0.00 | 52 | 1016.1 |
| 20260902185443 | 31 | 7 | 3.2 | 8.0 | 0.00 | 0.00 | 0.00 | 52 | 1016.1 |
| 20260902185346 | 31 | 13 | 3.2 | 8.0 | 0.00 | 0.00 | 0.00 | 52 | 1016.1 |
| 20260902185307 | 31 | 11 | 3.2 | 8.0 | 0.00 | 0.00 | 0.00 | 50 | 1016.1 |
| 20260902185139 | 31 | 14 | 1.6 | 8.0 | 0.00 | 0.00 | 0.00 | 49 | 1016.1 |
| 20260902185057 | 31 | 13 | 1.6 | 8.0 | 0.00 | 0.00 | 0.00 | 50 | 1016.1 |
| 20260902184935 | 31 | 13 | 0.0 | 8.0 | 0.00 | 0.00 | 0.00 | 51 | 1016.1 |
| 20260902184854 | 31 | 14 | 1.6 | 8.0 | 0.00 | 0.00 | 0.00 | 51 | 1016.1 |
| 20260902184731 | 31 | 13 | 1.6 | 8.0 | 0.00 | 0.00 | 0.00 | 52 | 1016.1 |
| 20260902184702 | 31 | 10 | 3.2 | 8.0 | 0.00 | 0.00 | 0.00 | 51 | 1016.1 |
| 20260902184600 | 31 | 13 | 3.2 | 8.0 | 0.00 | 0.00 | 0.00 | 52 | 1016.1 |
| 20260902184457 | 31 | 13 | 1.6 | 6.4 | 0.00 | 0.00 | 0.00 | 50 | 1016.1 |
| 20260902184338 | 31 | 11 | 0.0 | 6.4 | 0.00 | 0.00 | 0.00 | 50 | 1016.1 |
| 20260902184235 | 31 | 13 | 0.0 | 6.4 | 0.00 | 0.00 | 0.00 | 50 | 1017.1 |
| 20260902184134 | 31 | 13 | 1.6 | 8.0 | 0.00 | 0.00 | 0.00 | 50 | 1017.1 |
| 20260902184032 | 31 | 11 | 3.2 | 9.7 | 0.00 | 0.00 | 0.00 | 50 | 1017.1 |
| 20260902183930 | 31 | 11 | 3.2 | 9.7 | 0.00 | 0.00 | 0.00 | 50 | 1017.1 |
| 20260902183829 | 31 | 13 | 1.6 | 11.3 | 0.00 | 0.00 | 0.00 | 48 | 1017.1 |
| 20260902183727 | 31 | 14 | 3.2 | 11.3 | 0.00 | 0.00 | 0.00 | 48 | 1017.1 |
| 20260902183646 | 31 | 13 | 3.2 | 11.3 | 0.00 | 0.00 | 0.00 | 49 | 1017.1 |
| 20260902183547 | 31 | 14 | 1.6 | 11.3 | 0.00 | 0.00 | 0.00 | 50 | 1017.1 |
| 20260902183424 | 31 | 13 | 3.2 | 11.3 | 0.00 | 0.00 | 0.00 | 49 | 1017.1 |
| 20260902183325 | 31 | 13 | 6.4 | 11.3 | 0.00 | 0.00 | 0.00 | 52 | 1017.1 |
| 20260902183244 | 31 | 11 | 6.4 | 11.3 | 0.00 | 0.00 | 0.00 | 51 | 1017.1 |
| 20260902183213 | 31 | 14 | 6.4 | 11.3 | 0.00 | 0.00 | 0.00 | 51 | 1017.1 |
| 20260902183110 | 31 | 18 | 6.4 | 11.3 | 0.00 | 0.00 | 0.00 | 49 | 1017.1 |
| 20260902183007 | 31 | 25 | 6.4 | 11.3 | 0.00 | 0.00 | 0.00 | 48 | 1017.1 |
| 20260902182904 | 31 | 21 | 4.8 | 9.7 | 0.00 | 0.00 | 0.00 | 50 | 1017.1 |
| 20260902182742 | 31 | 21 | 4.8 | 9.7 | 0.00 | 0.00 | 0.00 | 50 | 1016.3 |
| 20260902182639 | 31 | 24 | 4.8 | 6.4 | 0.00 | 0.00 | 0.00 | 49 | 1016.3 |
| 20260902182537 | 31 | 20 | 3.2 | 6.4 | 0.00 | 0.00 | 0.00 | 50 | 1016.3 |
| 20260902182435 | 31 | 23 | 4.8 | 6.4 | 0.00 | 0.00 | 0.00 | 50 | 1016.3 |
| 20260902182334 | 31 | 23 | 1.6 | 4.8 | 0.00 | 0.00 | 0.00 | 49 | 1016.3 |
| 20260902182231 | 31 | 24 | 1.6 | 3.2 | 0.00 | 0.00 | 0.00 | 50 | 1016.3 |
| 20260902182130 | 31 | 23 | 0.0 | 1.6 | 0.00 | 0.00 | 0.00 | 50 | 1016.3 |
| 20260902182028 | 31 | 23 | 0.0 | 1.6 | 0.00 | 0.00 | 0.00 | 51 | 1016.3 |
| 20260902181951 | 31 | 23 | 0.0 | 1.6 | 0.00 | 0.00 | 0.00 | 51 | 1016.3 |
| 20260902181849 | 31 | 24 | 0.0 | 1.6 | 0.00 | 0.00 | 0.00 | 49 | 1016.3 |
| 20260902181728 | 31 | 23 | 0.0 | 3.2 | 0.00 | 0.00 | 0.00 | 50 | 1016.3 |
| 20260902181658 | 31 | 24 | 0.0 | 3.2 | 0.00 | 0.00 | 0.00 | 50 | 1016.3 |
| 20260902181535 | 31 | 23 | 0.0 | 3.2 | 0.00 | 0.00 | 0.00 | 49 | 1016.3 |
| 20260902181432 | 31 | 24 | 0.0 | 3.2 | 0.00 | 0.00 | 0.00 | 49 | 1016.3 |
| 20260902181334 | 31 | 24 | 0.0 | 3.2 | 0.00 | 0.00 | 0.00 | 50 | 1016.3 |
| 20260902181234 | 31 | 23 | 0.0 | 4.8 | 0.00 | 0.00 | 0.00 | 51 | 1017.4 |
| 20260902181137 | 31 | 23 | 0.0 | 4.8 | 0.00 | 0.00 | 0.00 | 51 | 1017.4 |
| 20260902181035 | 31 | 24 | 0.0 | 4.8 | 0.00 | 0.00 | 0.00 | 52 | 1017.4 |
| 20260902180932 | 31 | 18 | 1.6 | 4.8 | 0.00 | 0.00 | 0.00 | 52 | 1017.4 |
| 20260902180833 | 31 | 23 | 1.6 | 4.8 | 0.00 | 0.00 | 0.00 | 52 | 1017.4 |
| 20260902180751 | 31 | 23 | 1.6 | 4.8 | 0.00 | 0.00 | 0.00 | 52 | 1017.4 |
| 20260902180629 | 31 | 24 | 0.0 | 4.8 | 0.00 | 0.00 | 0.00 | 51 | 1017.4 |
| 20260902180528 | 31 | 23 | 1.6 | 4.8 | 0.00 | 0.00 | 0.00 | 51 | 1017.4 |
| 20260902180430 | 31 | 23 | 3.2 | 4.8 | 0.00 | 0.00 | 0.00 | 51 | 1017.4 |
| 20260902180327 | 31 | 23 | 3.2 | 4.8 | 0.00 | 0.00 | 0.00 | 50 | 1017.4 |
| 20260902180235 | 31 | 23 | 3.2 | 4.8 | 0.00 | 0.00 | 0.00 | 50 | 1017.4 |
| 20260902180146 | 31 | 21 | 0.0 | 4.8 | 0.00 | 0.00 | 0.00 | 51 | 1017.4 |
| 20260902180042 | 31 | 17 | 0.0 | 4.8 | 0.00 | 0.00 | 0.00 | 50 | 1017.4 |
| 20260902175941 | 31 | 20 | 0.0 | 4.8 | 0.00 | 0.00 | 0.00 | 53 | 1017.4 |
| 20260902175839 | 31 | 21 | 3.2 | 4.8 | 0.00 | 0.00 | 0.00 | 52 | 1017.4 |
| 20260902175737 | 31 | 18 | 1.6 | 4.8 | 0.00 | 0.00 | 0.00 | 51 | 1016.7 |
| 20260902175656 | 31 | 20 | 3.2 | 4.8 | 0.00 | 0.00 | 0.00 | 53 | 1016.7 |
| 20260902175539 | 30 | 20 | 3.2 | 4.8 | 0.00 | 0.00 | 0.00 | 51 | 1016.7 |
| 20260902175437 | 30 | 21 | 1.6 | 8.0 | 0.00 | 0.00 | 0.00 | 51 | 1016.7 |
| 20260902175335 | 30 | 13 | 0.0 | 8.0 | 0.00 | 0.00 | 0.00 | 50 | 1016.7 |
| 20260902175233 | 30 | 14 | 0.0 | 8.0 | 0.00 | 0.00 | 0.00 | 53 | 1016.7 |
| 20260902175152 | 30 | 16 | 3.2 | 8.0 | 0.00 | 0.00 | 0.00 | 53 | 1016.7 |
| 20260902175029 | 30 | 14 | 3.2 | 8.0 | 0.00 | 0.00 | 0.00 | 53 | 1016.7 |
| 20260902174928 | 30 | 14 | 3.2 | 8.0 | 0.00 | 0.00 | 0.00 | 54 | 1016.7 |
| 20260902174830 | 30 | 14 | 4.8 | 8.0 | 0.00 | 0.00 | 0.00 | 54 | 1016.7 |
| 20260902174738 | 30 | 14 | 3.2 | 8.0 | 0.00 | 0.00 | 0.00 | 56 | 1016.7 |
| 20260902174647 | 30 | 14 | 3.2 | 8.0 | 0.00 | 0.00 | 0.00 | 55 | 1016.7 |
| 20260902174545 | 30 | 10 | 1.6 | 8.0 | 0.00 | 0.00 | 0.00 | 55 | 1016.7 |
| 20260902174503 | 30 | 10 | 1.6 | 8.0 | 0.00 | 0.00 | 0.00 | 54 | 1016.7 |
| 20260902174340 | 30 | 11 | 3.2 | 8.0 | 0.00 | 0.00 | 0.00 | 54 | 1016.7 |
| 20260902174238 | 30 | 11 | 0.0 | 8.0 | 0.00 | 0.00 | 0.00 | 53 | 1017.0 |
| 20260902174137 | 30 | 11 | 1.6 | 8.0 | 0.00 | 0.00 | 0.00 | 55 | 1017.0 |
| 20260902174041 | 30 | 13 | 4.8 | 8.0 | 0.00 | 0.00 | 0.00 | 53 | 1017.0 |
| 20260902173939 | 30 | 11 | 4.8 | 8.0 | 0.00 | 0.00 | 0.00 | 53 | 1017.0 |
| 20260902173841 | 30 | 10 | 4.8 | 6.4 | 0.00 | 0.00 | 0.00 | 54 | 1017.0 |
| 20260902173759 | 30 | 8 | 3.2 | 6.4 | 0.00 | 0.00 | 0.00 | 55 | 1017.0 |
| 20260902173636 | 30 | 7 | 3.2 | 4.8 | 0.00 | 0.00 | 0.00 | 55 | 1017.0 |
| 20260902173535 | 30 | 8 | 1.6 | 4.8 | 0.00 | 0.00 | 0.00 | 57 | 1017.0 |
| 20260902173452 | 30 | 10 | 1.6 | 4.8 | 0.00 | 0.00 | 0.00 | 57 | 1017.0 |
| 20260902173330 | 30 | 10 | 1.6 | 4.8 | 0.00 | 0.00 | 0.00 | 57 | 1017.0 |
| 20260902173231 | 30 | 10 | 0.0 | 4.8 | 0.00 | 0.00 | 0.00 | 55 | 1017.0 |
| 20260902173202 | 30 | 7 | 0.0 | 4.8 | 0.00 | 0.00 | 0.00 | 55 | 1017.0 |
| 20260902173039 | 30 | 8 | 0.0 | 4.8 | 0.00 | 0.00 | 0.00 | 56 | 1017.0 |
| 20260902172938 | 30 | 10 | 1.6 | 4.8 | 0.00 | 0.00 | 0.00 | 55 | 1017.0 |
| 20260902172837 | 30 | 7 | 3.2 | 3.2 | 0.00 | 0.00 | 0.00 | 56 | 1017.0 |
| 20260902172739 | 30 | 7 | 1.6 | 3.2 | 0.00 | 0.00 | 0.00 | 58 | 1017.2 |
| 20260902172639 | 30 | 10 | 1.6 | 3.2 | 0.00 | 0.00 | 0.00 | 57 | 1017.2 |
| 20260902172542 | 30 | 7 | 1.6 | 3.2 | 0.00 | 0.00 | 0.00 | 56 | 1017.2 |
| 20260902172440 | 30 | 10 | 3.2 | 3.2 | 0.00 | 0.00 | 0.00 | 56 | 1017.2 |
| 20260902172359 | 30 | 10 | 1.6 | 3.2 | 0.00 | 0.00 | 0.00 | 55 | 1017.2 |
| 20260902172256 | 30 | 10 | 0.0 | 3.2 | 0.00 | 0.00 | 0.00 | 57 | 1017.2 |
| 20260902172134 | 30 | 10 | 0.0 | 3.2 | 0.00 | 0.00 | 0.00 | 57 | 1017.2 |
| 20260902172031 | 30 | 8 | 0.0 | 3.2 | 0.00 | 0.00 | 0.00 | 58 | 1017.2 |
| 20260902171930 | 30 | 8 | 0.0 | 3.2 | 0.00 | 0.00 | 0.00 | 59 | 1017.2 |
| 20260902171829 | 30 | 10 | 0.0 | 3.2 | 0.00 | 0.00 | 0.00 | 60 | 1017.2 |
| 20260902171742 | 30 | 8 | 0.0 | 3.2 | 0.00 | 0.00 | 0.00 | 60 | 1017.2 |
| 20260902171652 | 30 | 8 | 0.0 | 3.2 | 0.00 | 0.00 | 0.00 | 60 | 1017.2 |
| 20260902171529 | 30 | 10 | 1.6 | 3.2 | 0.00 | 0.00 | 0.00 | 61 | 1017.2 |
| 20260902171427 | 30 | 8 | 1.6 | 3.2 | 0.00 | 0.00 | 0.00 | 60 | 1017.2 |
| 20260902171326 | 30 | 10 | 0.0 | 3.2 | 0.00 | 0.00 | 0.00 | 59 | 1017.2 |
| 20260902171243 | 30 | 10 | 0.0 | 3.2 | 0.00 | 0.00 | 0.00 | 59 | 1018.3 |
| 20260902171143 | 30 | 7 | 1.6 | 3.2 | 0.00 | 0.00 | 0.00 | 59 | 1018.3 |
| 20260902171102 | 30 | 10 | 1.6 | 3.2 | 0.00 | 0.00 | 0.00 | 59 | 1018.3 |
| 20260902170943 | 30 | 7 | 1.6 | 3.2 | 0.00 | 0.00 | 0.00 | 59 | 1018.3 |
| 20260902170902 | 30 | 11 | 1.6 | 3.2 | 0.00 | 0.00 | 0.00 | 59 | 1018.3 |
| 20260902170738 | 30 | 10 | 1.6 | 4.8 | 0.00 | 0.00 | 0.00 | 59 | 1018.3 |
| 20260902170636 | 30 | 10 | 1.6 | 4.8 | 0.00 | 0.00 | 0.00 | 59 | 1018.3 |
| 20260902170535 | 30 | 8 | 1.6 | 4.8 | 0.00 | 0.00 | 0.00 | 59 | 1018.3 |
| 20260902170433 | 30 | 10 | 3.2 | 4.8 | 0.00 | 0.00 | 0.00 | 59 | 1018.3 |
| 20260902170331 | 30 | 10 | 0.0 | 4.8 | 0.00 | 0.00 | 0.00 | 59 | 1018.3 |
| 20260902170233 | 30 | 8 | 1.6 | 4.8 | 0.00 | 0.00 | 0.00 | 59 | 1018.3 |
| 20260902170203 | 30 | 10 | 3.2 | 8.0 | 0.00 | 0.00 | 0.00 | 59 | 1018.3 |
| 20260902170100 | 30 | 10 | 1.6 | 8.0 | 0.00 | 0.00 | 0.00 | 57 | 1018.3 |
| 20260902165937 | 30 | 10 | 1.6 | 9.7 | 0.00 | 0.00 | 0.00 | 58 | 1018.3 |
| 20260902165836 | 30 | 8 | 1.6 | 9.7 | 0.00 | 0.00 | 0.00 | 57 | 1018.3 |
| 20260902165734 | 30 | 7 | 1.6 | 9.7 | 0.00 | 0.00 | 0.00 | 58 | 1018.6 |
| 20260902165654 | 30 | 10 | 3.2 | 9.7 | 0.00 | 0.00 | 0.00 | 57 | 1018.6 |
| 20260902165531 | 30 | 10 | 1.6 | 9.7 | 0.00 | 0.00 | 0.00 | 57 | 1018.6 |
| 20260902165435 | 30 | 8 | 1.6 | 9.7 | 0.00 | 0.00 | 0.00 | 56 | 1018.6 |
| 20260902165333 | 30 | 10 | 3.2 | 9.7 | 0.00 | 0.00 | 0.00 | 56 | 1018.6 |
| 20260902165232 | 30 | 8 | 4.8 | 9.7 | 0.00 | 0.00 | 0.00 | 55 | 1018.6 |
| 20260902165130 | 30 | 11 | 4.8 | 9.7 | 0.00 | 0.00 | 0.00 | 55 | 1018.6 |
| 20260902165030 | 30 | 16 | 0.0 | 9.7 | 0.00 | 0.00 | 0.00 | 55 | 1018.6 |
| 20260902164948 | 30 | 17 | 1.6 | 9.7 | 0.00 | 0.00 | 0.00 | 56 | 1018.6 |
| 20260902164825 | 30 | 17 | 3.2 | 11.3 | 0.00 | 0.00 | 0.00 | 56 | 1018.6 |
| 20260902164756 | 30 | 14 | 3.2 | 11.3 | 0.00 | 0.00 | 0.00 | 56 | 1018.6 |
| 20260902164648 | 30 | 17 | 4.8 | 11.3 | 0.00 | 0.00 | 0.00 | 56 | 1018.6 |
| 20260902164526 | 30 | 17 | 4.8 | 11.3 | 0.00 | 0.00 | 0.00 | 58 | 1018.6 |
| 20260902164443 | 30 | 17 | 4.8 | 11.3 | 0.00 | 0.00 | 0.00 | 58 | 1018.6 |
| 20260902164343 | 30 | 14 | 4.8 | 11.3 | 0.00 | 0.00 | 0.00 | 57 | 1018.6 |
| 20260902164241 | 30 | 13 | 4.8 | 11.3 | 0.00 | 0.00 | 0.00 | 57 | 1018.7 |
| 20260902164139 | 30 | 14 | 4.8 | 11.3 | 0.00 | 0.00 | 0.00 | 57 | 1018.7 |
| 20260902164037 | 30 | 17 | 6.4 | 11.3 | 0.00 | 0.00 | 0.00 | 57 | 1018.7 |
| 20260902163940 | 30 | 10 | 6.4 | 11.3 | 0.00 | 0.00 | 0.00 | 57 | 1018.7 |
| 20260902163837 | 30 | 32 | 3.2 | 8.0 | 0.00 | 0.00 | 0.00 | 58 | 1018.7 |
| 20260902163736 | 30 | 32 | 0.0 | 8.0 | 0.00 | 0.00 | 0.00 | 58 | 1018.7 |
| 20260902163634 | 30 | 34 | 0.0 | 8.0 | 0.00 | 0.00 | 0.00 | 57 | 1018.7 |
| 20260902163553 | 30 | 34 | 1.6 | 8.0 | 0.00 | 0.00 | 0.00 | 58 | 1018.7 |
| 20260902163430 | 30 | 35 | 1.6 | 8.0 | 0.00 | 0.00 | 0.00 | 58 | 1018.7 |
| 20260902163330 | 30 | 34 | 3.2 | 9.7 | 0.00 | 0.00 | 0.00 | 58 | 1018.7 |
| 20260902163240 | 30 | 31 | 4.8 | 9.7 | 0.00 | 0.00 | 0.00 | 58 | 1018.7 |
| 20260902163153 | 30 | 34 | 3.2 | 9.7 | 0.00 | 0.00 | 0.00 | 59 | 1018.7 |
| 20260902163029 | 30 | 38 | 4.8 | 9.7 | 0.00 | 0.00 | 0.00 | 59 | 1018.7 |
| 20260902162928 | 30 | 37 | 6.4 | 9.7 | 0.00 | 0.00 | 0.00 | 59 | 1018.7 |
| 20260902162827 | 30 | 38 | 3.2 | 9.7 | 0.00 | 0.00 | 0.00 | 59 | 1018.7 |
| 20260902162727 | 30 | 35 | 1.6 | 9.7 | 0.00 | 0.00 | 0.00 | 58 | 1017.8 |
| 20260902162624 | 30 | 37 | 3.2 | 9.7 | 0.00 | 0.00 | 0.00 | 57 | 1017.8 |
| 20260902162546 | 30 | 40 | 4.8 | 9.7 | 0.00 | 0.00 | 0.00 | 56 | 1017.8 |
| 20260902162506 | 30 | 11 | 6.4 | 9.7 | 0.00 | 0.00 | 0.00 | 56 | 1017.8 |
| 20260902162403 | 30 | 6 | 8.0 | 9.7 | 0.00 | 0.00 | 0.00 | 57 | 1017.8 |
| 20260902162307 | 30 | 6 | 6.4 | 9.7 | 0.00 | 0.00 | 0.00 | 58 | 1017.8 |
| 20260902162141 | 30 | 6 | 3.2 | 8.0 | 0.00 | 0.00 | 0.00 | 59 | 1017.8 |
| 20260902162040 | 30 | 4 | 4.8 | 8.0 | 0.00 | 0.00 | 0.00 | 59 | 1017.8 |
| 20260902161958 | 30 | 1 | 4.8 | 8.0 | 0.00 | 0.00 | 0.00 | 59 | 1017.8 |
| 20260902161836 | 30 | 7 | 3.2 | 8.0 | 0.00 | 0.00 | 0.00 | 59 | 1017.8 |
| 20260902161734 | 30 | 8 | 3.2 | 8.0 | 0.00 | 0.00 | 0.00 | 59 | 1017.8 |
| 20260902161702 | 30 | 7 | 3.2 | 8.0 | 0.00 | 0.00 | 0.00 | 59 | 1017.8 |
| 20260902161540 | 30 | 8 | 4.8 | 8.0 | 0.00 | 0.00 | 0.00 | 59 | 1017.8 |
| 20260902161438 | 30 | 8 | 3.2 | 8.0 | 0.00 | 0.00 | 0.00 | 59 | 1017.8 |
| 20260902161340 | 30 | 7 | 3.2 | 8.0 | 0.00 | 0.00 | 0.00 | 58 | 1017.8 |
| 20260902161238 | 30 | 6 | 3.2 | 8.0 | 0.00 | 0.00 | 0.00 | 58 | 1017.9 |
| 20260902161137 | 30 | 6 | 1.6 | 8.0 | 0.00 | 0.00 | 0.00 | 60 | 1017.9 |
| 20260902161035 | 30 | 6 | 3.2 | 8.0 | 0.00 | 0.00 | 0.00 | 59 | 1017.9 |
| 20260902160935 | 30 | 4 | 3.2 | 8.0 | 0.00 | 0.00 | 0.00 | 61 | 1017.9 |
| 20260902160833 | 30 | 4 | 4.8 | 8.0 | 0.00 | 0.00 | 0.00 | 62 | 1017.9 |
| 20260902160736 | 29 | 1 | 4.8 | 8.0 | 0.00 | 0.00 | 0.00 | 62 | 1017.9 |
| 20260902160635 | 29 | 3 | 4.8 | 8.0 | 0.00 | 0.00 | 0.00 | 61 | 1017.9 |
| 20260902160533 | 29 | 360 | 4.8 | 8.0 | 0.00 | 0.00 | 0.00 | 61 | 1017.9 |
| 20260902160452 | 29 | 18 | 6.4 | 8.0 | 0.00 | 0.00 | 0.00 | 62 | 1017.9 |
| 20260902160351 | 29 | 18 | 4.8 | 8.0 | 0.00 | 0.00 | 0.00 | 62 | 1017.9 |
| 20260902160248 | 29 | 17 | 4.8 | 8.0 | 0.00 | 0.00 | 0.00 | 62 | 1017.9 |
| 20260902160158 | 29 | 18 | 3.2 | 8.0 | 0.00 | 0.00 | 0.00 | 62 | 1017.9 |
| 20260902160035 | 29 | 17 | 3.2 | 8.0 | 0.00 | 0.00 | 0.00 | 62 | 1017.9 |
| 20260902155934 | 29 | 16 | 3.2 | 8.0 | 0.00 | 0.00 | 0.00 | 61 | 1017.9 |
| 20260902155837 | 29 | 17 | 3.2 | 8.0 | 0.00 | 0.00 | 0.00 | 62 | 1017.9 |
| 20260902155755 | 29 | 16 | 3.2 | 8.0 | 0.00 | 0.00 | 0.00 | 61 | 1018.1 |
| 20260902155631 | 29 | 17 | 3.2 | 8.0 | 0.00 | 0.00 | 0.00 | 62 | 1018.1 |
| 20260902155550 | 29 | 13 | 3.2 | 8.0 | 0.00 | 0.00 | 0.00 | 62 | 1018.1 |
| 20260902155426 | 29 | 16 | 4.8 | 8.0 | 0.00 | 0.00 | 0.00 | 62 | 1018.1 |
| 20260902155324 | 29 | 17 | 1.6 | 8.0 | 0.00 | 0.00 | 0.00 | 61 | 1018.1 |
| 20260902155243 | 29 | 16 | 3.2 | 8.0 | 0.00 | 0.00 | 0.00 | 61 | 1018.1 |
| 20260902155122 | 29 | 14 | 4.8 | 8.0 | 0.00 | 0.00 | 0.00 | 61 | 1018.1 |
| 20260902155047 | 29 | 16 | 4.8 | 8.0 | 0.00 | 0.00 | 0.00 | 61 | 1018.1 |
| 20260902155007 | 29 | 14 | 3.2 | 8.0 | 0.00 | 0.00 | 0.00 | 61 | 1018.1 |
| 20260902154904 | 29 | 13 | 4.8 | 8.0 | 0.00 | 0.00 | 0.00 | 61 | 1018.1 |
| 20260902154733 | 28 | 10 | 6.4 | 8.0 | 0.00 | 0.00 | 0.00 | 63 | 1018.1 |
| 20260902154641 | 28 | 10 | 3.2 | 8.0 | 0.00 | 0.00 | 0.00 | 62 | 1018.1 |
| 20260902154543 | 28 | 8 | 1.6 | 8.0 | 0.00 | 0.00 | 0.00 | 63 | 1018.1 |
| 20260902154439 | 28 | 7 | 0.0 | 8.0 | 0.00 | 0.00 | 0.00 | 63 | 1018.1 |
| 20260902154337 | 28 | 8 | 1.6 | 8.0 | 0.00 | 0.00 | 0.00 | 64 | 1018.1 |
| 20260902154234 | 28 | 8 | 0.0 | 8.0 | 0.00 | 0.00 | 0.00 | 64 | 1018.1 |
| 20260902154137 | 28 | 10 | 0.0 | 8.0 | 0.00 | 0.00 | 0.00 | 64 | 1018.1 |
| 20260902154057 | 28 | 7 | 1.6 | 8.0 | 0.00 | 0.00 | 0.00 | 63 | 1018.1 |
| 20260902153933 | 28 | 8 | 4.8 | 8.0 | 0.00 | 0.00 | 0.00 | 63 | 1018.1 |
| 20260902153832 | 28 | 8 | 4.8 | 8.0 | 0.00 | 0.00 | 0.00 | 63 | 1018.1 |
| 20260902153730 | 28 | 7 | 6.4 | 8.0 | 0.00 | 0.00 | 0.00 | 64 | 1018.1 |
| 20260902153629 | 28 | 8 | 1.6 | 8.0 | 0.00 | 0.00 | 0.00 | 64 | 1018.1 |
| 20260902153528 | 28 | 7 | 4.8 | 8.0 | 0.00 | 0.00 | 0.00 | 65 | 1018.1 |
| 20260902153429 | 28 | 8 | 4.8 | 8.0 | 0.00 | 0.00 | 0.00 | 66 | 1018.1 |
| 20260902153328 | 28 | 6 | 0.0 | 4.8 | 0.00 | 0.00 | 0.00 | 67 | 1018.1 |
| 20260902153238 | 28 | 7 | 0.0 | 4.8 | 0.00 | 0.00 | 0.00 | 67 | 1018.1 |
| 20260902153148 | 28 | 4 | 1.6 | 4.8 | 0.00 | 0.00 | 0.00 | 66 | 1018.1 |
| 20260902153046 | 28 | 6 | 3.2 | 6.4 | 0.00 | 0.00 | 0.00 | 66 | 1018.1 |
| 20260902153005 | 28 | 6 | 3.2 | 6.4 | 0.00 | 0.00 | 0.00 | 65 | 1018.1 |
| 20260902152841 | 28 | 6 | 3.2 | 6.4 | 0.00 | 0.00 | 0.00 | 67 | 1018.1 |
| 20260902152738 | 28 | 4 | 3.2 | 6.4 | 0.00 | 0.00 | 0.00 | 67 | 1018.1 |
| 20260902152637 | 28 | 6 | 1.6 | 6.4 | 0.00 | 0.00 | 0.00 | 66 | 1018.1 |
| 20260902152541 | 28 | 13 | 1.6 | 6.4 | 0.00 | 0.00 | 0.00 | 66 | 1018.1 |
| 20260902152439 | 28 | 14 | 1.6 | 8.0 | 0.00 | 0.00 | 0.00 | 66 | 1018.1 |
| 20260902152337 | 28 | 16 | 3.2 | 8.0 | 0.00 | 0.00 | 0.00 | 65 | 1018.1 |
| 20260902152236 | 28 | 14 | 3.2 | 8.0 | 0.00 | 0.00 | 0.00 | 67 | 1018.1 |
| 20260902152134 | 28 | 14 | 3.2 | 8.0 | 0.00 | 0.00 | 0.00 | 66 | 1018.1 |
| 20260902152032 | 28 | 41 | 1.6 | 8.0 | 0.00 | 0.00 | 0.00 | 66 | 1018.1 |
| 20260902151934 | 28 | 42 | 1.6 | 9.7 | 0.00 | 0.00 | 0.00 | 66 | 1018.1 |
| 20260902151833 | 28 | 40 | 1.6 | 9.7 | 0.00 | 0.00 | 0.00 | 66 | 1018.1 |
| 20260902151803 | 28 | 51 | 3.2 | 9.7 | 0.00 | 0.00 | 0.00 | 66 | 1018.1 |
| 20260902151650 | 28 | 51 | 4.8 | 9.7 | 0.00 | 0.00 | 0.00 | 67 | 1018.1 |
| 20260902151528 | 28 | 54 | 3.2 | 9.7 | 0.00 | 0.00 | 0.00 | 67 | 1018.1 |
| 20260902151426 | 28 | 54 | 0.0 | 9.7 | 0.00 | 0.00 | 0.00 | 67 | 1018.1 |
| 20260902151325 | 28 | 56 | 0.0 | 9.7 | 0.00 | 0.00 | 0.00 | 68 | 1018.1 |
| 20260902151243 | 28 | 54 | 0.0 | 9.7 | 0.00 | 0.00 | 0.00 | 67 | 1017.9 |
| 20260902151125 | 28 | 56 | 4.8 | 9.7 | 0.00 | 0.00 | 0.00 | 67 | 1017.9 |
| 20260902151044 | 28 | 73 | 3.2 | 9.7 | 0.00 | 0.00 | 0.00 | 68 | 1017.9 |
| 20260902151003 | 28 | 200 | 1.6 | 3.2 | 0.00 | 0.00 | 0.00 | 68 | 1017.9 |
| 20260902150901 | 28 | 200 | 0.0 | 4.8 | 0.00 | 0.00 | 0.00 | 67 | 1017.9 |
| 20260902150738 | 28 | 196 | 0.0 | 4.8 | 0.00 | 0.00 | 0.00 | 67 | 1017.9 |
| 20260902150636 | 27 | 196 | 0.0 | 4.8 | 0.00 | 0.00 | 0.00 | 66 | 1017.9 |
| 20260902150535 | 27 | 199 | 0.0 | 4.8 | 0.00 | 0.00 | 0.00 | 66 | 1017.9 |
| 20260902150454 | 27 | 199 | 3.2 | 4.8 | 0.00 | 0.00 | 0.00 | 66 | 1017.9 |
| 20260902150331 | 27 | 200 | 1.6 | 4.8 | 0.00 | 0.00 | 0.00 | 66 | 1017.9 |
| 20260902150254 | 27 | 196 | 0.0 | 4.8 | 0.00 | 0.00 | 0.00 | 65 | 1017.9 |
| 20260902150203 | 27 | 198 | 0.0 | 4.8 | 0.00 | 0.00 | 0.00 | 64 | 1017.9 |
| 20260902150040 | 27 | 196 | 1.6 | 4.8 | 0.00 | 0.00 | 0.00 | 64 | 1017.9 |
| 20260902145939 | 27 | 196 | 1.6 | 4.8 | 0.00 | 0.00 | 0.00 | 64 | 1017.9 |
| 20260902145836 | 27 | 196 | 3.2 | 4.8 | 0.00 | 0.00 | 0.00 | 63 | 1017.9 |
| 20260902145755 | 27 | 195 | 0.0 | 4.8 | 0.00 | 0.00 | 0.00 | 65 | 1017.8 |
| 20260902145634 | 27 | 195 | 0.0 | 4.8 | 0.00 | 0.00 | 0.00 | 65 | 1017.8 |
| 20260902145532 | 27 | 193 | 1.6 | 4.8 | 0.00 | 0.00 | 0.00 | 65 | 1017.8 |
| 20260902145435 | 27 | 195 | 1.6 | 4.8 | 0.00 | 0.00 | 0.00 | 64 | 1017.8 |
| 20260902145334 | 27 | 195 | 3.2 | 4.8 | 0.00 | 0.00 | 0.00 | 65 | 1017.8 |
| 20260902145232 | 27 | 195 | 3.2 | 4.8 | 0.00 | 0.00 | 0.00 | 65 | 1017.8 |
| 20260902145131 | 27 | 193 | 3.2 | 4.8 | 0.00 | 0.00 | 0.00 | 66 | 1017.8 |
| 20260902145030 | 27 | 192 | 3.2 | 4.8 | 0.00 | 0.00 | 0.00 | 66 | 1017.8 |
| 20260902144930 | 27 | 193 | 3.2 | 4.8 | 0.00 | 0.00 | 0.00 | 65 | 1017.8 |
| 20260902144849 | 27 | 192 | 1.6 | 4.8 | 0.00 | 0.00 | 0.00 | 67 | 1017.8 |
| 20260902144742 | 27 | 191 | 3.2 | 4.8 | 0.00 | 0.00 | 0.00 | 67 | 1017.8 |
| 20260902144652 | 27 | 193 | 4.8 | 4.8 | 0.00 | 0.00 | 0.00 | 67 | 1017.8 |
| 20260902144550 | 27 | 192 | 1.6 | 4.8 | 0.00 | 0.00 | 0.00 | 67 | 1017.8 |
| 20260902144426 | 27 | 186 | 0.0 | 1.6 | 0.00 | 0.00 | 0.00 | 69 | 1017.8 |
| 20260902144324 | 27 | 186 | 0.0 | 1.6 | 0.00 | 0.00 | 0.00 | 69 | 1017.8 |
| 20260902144243 | 27 | 185 | 0.0 | 1.6 | 0.00 | 0.00 | 0.00 | 69 | 1017.7 |
| 20260902144144 | 27 | 186 | 0.0 | 1.6 | 0.00 | 0.00 | 0.00 | 69 | 1017.7 |
| 20260902144043 | 27 | 186 | 0.0 | 1.6 | 0.00 | 0.00 | 0.00 | 70 | 1017.7 |
| 20260902143925 | 27 | 184 | 0.0 | 1.6 | 0.00 | 0.00 | 0.00 | 69 | 1017.7 |
| 20260902143843 | 27 | 184 | 0.0 | 1.6 | 0.00 | 0.00 | 0.00 | 69 | 1017.7 |
| 20260902143741 | 27 | 186 | 0.0 | 1.6 | 0.00 | 0.00 | 0.00 | 69 | 1017.7 |
| 20260902143639 | 27 | 185 | 0.0 | 1.6 | 0.00 | 0.00 | 0.00 | 69 | 1017.7 |
| 20260902143537 | 27 | 185 | 0.0 | 3.2 | 0.00 | 0.00 | 0.00 | 69 | 1017.7 |
| 20260902143435 | 27 | 185 | 0.0 | 3.2 | 0.00 | 0.00 | 0.00 | 68 | 1017.7 |
| 20260902143334 | 27 | 186 | 0.0 | 4.8 | 0.00 | 0.00 | 0.00 | 69 | 1017.7 |
| 20260902143257 | 27 | 185 | 0.0 | 4.8 | 0.00 | 0.00 | 0.00 | 69 | 1017.7 |
| 20260902143205 | 27 | 185 | 0.0 | 4.8 | 0.00 | 0.00 | 0.00 | 69 | 1017.7 |
| 20260902143103 | 27 | 184 | 0.0 | 4.8 | 0.00 | 0.00 | 0.00 | 69 | 1017.7 |
| 20260902142940 | 27 | 185 | 0.0 | 4.8 | 0.00 | 0.00 | 0.00 | 68 | 1017.7 |
| 20260902142839 | 27 | 185 | 0.0 | 4.8 | 0.00 | 0.00 | 0.00 | 68 | 1017.7 |
| 20260902142738 | 27 | 185 | 1.6 | 4.8 | 0.00 | 0.00 | 0.00 | 68 | 1017.7 |
| 20260902142637 | 27 | 185 | 1.6 | 4.8 | 0.00 | 0.00 | 0.00 | 69 | 1017.7 |
| 20260902142535 | 27 | 184 | 3.2 | 4.8 | 0.00 | 0.00 | 0.00 | 69 | 1017.7 |
| 20260902142436 | 27 | 186 | 1.6 | 3.2 | 0.00 | 0.00 | 0.00 | 69 | 1017.7 |
| 20260902142334 | 27 | 185 | 1.6 | 3.2 | 0.00 | 0.00 | 0.00 | 69 | 1017.7 |
| 20260902142232 | 27 | 186 | 0.0 | 3.2 | 0.00 | 0.00 | 0.00 | 68 | 1017.7 |
| 20260902142131 | 26 | 186 | 0.0 | 3.2 | 0.00 | 0.00 | 0.00 | 68 | 1017.7 |
| 20260902142049 | 26 | 186 | 0.0 | 3.2 | 0.00 | 0.00 | 0.00 | 68 | 1017.7 |
| 20260902141927 | 26 | 185 | 0.0 | 3.2 | 0.00 | 0.00 | 0.00 | 68 | 1017.7 |
| 20260902141825 | 26 | 185 | 0.0 | 3.2 | 0.00 | 0.00 | 0.00 | 68 | 1017.7 |
| 20260902141738 | 26 | 188 | 1.6 | 3.2 | 0.00 | 0.00 | 0.00 | 68 | 1017.7 |
| 20260902141648 | 26 | 186 | 1.6 | 3.2 | 0.00 | 0.00 | 0.00 | 68 | 1017.7 |
| 20260902141525 | 26 | 186 | 1.6 | 3.2 | 0.00 | 0.00 | 0.00 | 68 | 1017.7 |
| 20260902141424 | 26 | 184 | 0.0 | 4.8 | 0.00 | 0.00 | 0.00 | 68 | 1017.7 |
| 20260902141343 | 26 | 186 | 0.0 | 4.8 | 0.00 | 0.00 | 0.00 | 68 | 1017.7 |
| 20260902141240 | 26 | 186 | 0.0 | 4.8 | 0.00 | 0.00 | 0.00 | 69 | 1017.6 |
| 20260902141159 | 26 | 185 | 0.0 | 4.8 | 0.00 | 0.00 | 0.00 | 69 | 1017.6 |
| 20260902141035 | 26 | 184 | 0.0 | 4.8 | 0.00 | 0.00 | 0.00 | 69 | 1017.6 |
| 20260902140938 | 26 | 185 | 0.0 | 4.8 | 0.00 | 0.00 | 0.00 | 68 | 1017.6 |
| 20260902140837 | 26 | 184 | 1.6 | 4.8 | 0.00 | 0.00 | 0.00 | 68 | 1017.6 |
| 20260902140734 | 26 | 186 | 1.6 | 4.8 | 0.00 | 0.00 | 0.00 | 69 | 1017.6 |
| 20260902140633 | 26 | 186 | 3.2 | 4.8 | 0.00 | 0.00 | 0.00 | 69 | 1017.6 |
| 20260902140531 | 26 | 185 | 0.0 | 4.8 | 0.00 | 0.00 | 0.00 | 69 | 1017.6 |
| 20260902140430 | 26 | 186 | 0.0 | 4.8 | 0.00 | 0.00 | 0.00 | 69 | 1017.6 |
| 20260902140332 | 26 | 182 | 1.6 | 4.8 | 0.00 | 0.00 | 0.00 | 68 | 1017.6 |
| 20260902140230 | 26 | 185 | 1.6 | 4.8 | 0.00 | 0.00 | 0.00 | 69 | 1017.6 |
| 20260902140202 | 26 | 186 | 1.6 | 4.8 | 0.00 | 0.00 | 0.00 | 69 | 1017.6 |
| 20260902140059 | 26 | 184 | 0.0 | 4.8 | 0.00 | 0.00 | 0.00 | 69 | 1017.6 |
| 20260902135937 | 26 | 181 | 0.0 | 4.8 | 0.00 | 0.00 | 0.00 | 70 | 1017.6 |
| 20260902135835 | 26 | 184 | 3.2 | 4.8 | 0.00 | 0.00 | 0.00 | 71 | 1017.6 |
| 20260902135732 | 26 | 182 | 1.6 | 3.2 | 0.00 | 0.00 | 0.00 | 71 | 1017.7 |
| 20260902135652 | 26 | 181 | 0.0 | 3.2 | 0.00 | 0.00 | 0.00 | 71 | 1017.7 |
| 20260902135551 | 26 | 181 | 0.0 | 3.2 | 0.00 | 0.00 | 0.00 | 72 | 1017.7 |
| 20260902135453 | 26 | 175 | 1.6 | 3.2 | 0.00 | 0.00 | 0.00 | 72 | 1017.7 |
| 20260902135330 | 26 | 181 | 0.0 | 3.2 | 0.00 | 0.00 | 0.00 | 72 | 1017.7 |
| 20260902135228 | 26 | 181 | 1.6 | 3.2 | 0.00 | 0.00 | 0.00 | 72 | 1017.7 |
| 20260902135146 | 26 | 179 | 0.0 | 0.0 | 0.00 | 0.00 | 0.00 | 72 | 1017.7 |
| 20260902135025 | 26 | 181 | 0.0 | 0.0 | 0.00 | 0.00 | 0.00 | 73 | 1017.7 |
| 20260902134944 | 26 | 178 | 0.0 | 0.0 | 0.00 | 0.00 | 0.00 | 73 | 1017.7 |
| 20260902134902 | 26 | 179 | 0.0 | 0.0 | 0.00 | 0.00 | 0.00 | 74 | 1017.7 |
| 20260902134739 | 26 | 179 | 0.0 | 0.0 | 0.00 | 0.00 | 0.00 | 75 | 1017.7 |
| 20260902134709 | 26 | 181 | 0.0 | 0.0 | 0.00 | 0.00 | 0.00 | 75 | 1017.7 |
| 20260902134530 | 26 | 179 | 0.0 | 3.2 | 0.00 | 0.00 | 0.00 | 75 | 1017.7 |
| 20260902134429 | 26 | 179 | 0.0 | 4.8 | 0.00 | 0.00 | 0.00 | 75 | 1017.7 |
| 20260902134327 | 26 | 179 | 0.0 | 4.8 | 0.00 | 0.00 | 0.00 | 76 | 1017.7 |
| 20260902134247 | 26 | 181 | 0.0 | 4.8 | 0.00 | 0.00 | 0.00 | 76 | 1017.8 |
| 20260902134124 | 26 | 179 | 0.0 | 4.8 | 0.00 | 0.00 | 0.00 | 76 | 1017.8 |
| 20260902134043 | 26 | 179 | 0.0 | 4.8 | 0.00 | 0.00 | 0.00 | 75 | 1017.8 |
| 20260902133943 | 26 | 179 | 0.0 | 4.8 | 0.00 | 0.00 | 0.00 | 75 | 1017.8 |
| 20260902133824 | 26 | 179 | 0.0 | 4.8 | 0.00 | 0.00 | 0.00 | 75 | 1017.8 |
| 20260902133742 | 26 | 179 | 1.6 | 4.8 | 0.00 | 0.00 | 0.00 | 75 | 1017.8 |
| 20260902133642 | 26 | 179 | 3.2 | 4.8 | 0.00 | 0.00 | 0.00 | 75 | 1017.8 |
| 20260902133538 | 26 | 179 | 3.2 | 4.8 | 0.00 | 0.00 | 0.00 | 76 | 1017.8 |
| 20260902133437 | 26 | 181 | 0.0 | 3.2 | 0.00 | 0.00 | 0.00 | 76 | 1017.8 |
| 20260902133335 | 25 | 176 | 0.0 | 3.2 | 0.00 | 0.00 | 0.00 | 76 | 1017.8 |
| 20260902133244 | 25 | 179 | 1.6 | 3.2 | 0.00 | 0.00 | 0.00 | 76 | 1017.8 |
| 20260902133155 | 25 | 179 | 1.6 | 3.2 | 0.00 | 0.00 | 0.00 | 76 | 1017.8 |
| 20260902133035 | 25 | 179 | 1.6 | 3.2 | 0.00 | 0.00 | 0.00 | 76 | 1017.8 |
| 20260902132933 | 25 | 178 | 1.6 | 3.2 | 0.00 | 0.00 | 0.00 | 75 | 1017.8 |
| 20260902132852 | 25 | 181 | 3.2 | 3.2 | 0.00 | 0.00 | 0.00 | 75 | 1017.8 |
| 20260902132729 | 25 | 179 | 1.6 | 1.6 | 0.00 | 0.00 | 0.00 | 75 | 1017.7 |
| 20260902132628 | 25 | 181 | 1.6 | 1.6 | 0.00 | 0.00 | 0.00 | 75 | 1017.7 |
| 20260902132546 | 25 | 179 | 1.6 | 1.6 | 0.00 | 0.00 | 0.00 | 75 | 1017.7 |
| 20260902132443 | 25 | 179 | 0.0 | 1.6 | 0.00 | 0.00 | 0.00 | 75 | 1017.7 |
| 20260902132341 | 25 | 179 | 0.0 | 0.0 | 0.00 | 0.00 | 0.00 | 75 | 1017.7 |
| 20260902132224 | 25 | 179 | 0.0 | 0.0 | 0.00 | 0.00 | 0.00 | 75 | 1017.7 |
| 20260902132143 | 25 | 178 | 0.0 | 0.0 | 0.00 | 0.00 | 0.00 | 75 | 1017.7 |
| 20260902132041 | 25 | 179 | 0.0 | 0.0 | 0.00 | 0.00 | 0.00 | 75 | 1017.7 |
| 20260902131939 | 25 | 178 | 0.0 | 0.0 | 0.00 | 0.00 | 0.00 | 75 | 1017.7 |
| 20260902131836 | 25 | 179 | 0.0 | 0.0 | 0.00 | 0.00 | 0.00 | 75 | 1017.7 |
| 20260902131755 | 25 | 179 | 0.0 | 0.0 | 0.00 | 0.00 | 0.00 | 75 | 1017.7 |
| 20260902131725 | 25 | 181 | 0.0 | 0.0 | 0.00 | 0.00 | 0.00 | 75 | 1017.7 |
| 20260902131543 | 25 | 179 | 0.0 | 0.0 | 0.00 | 0.00 | 0.00 | 75 | 1017.7 |
| 20260902131424 | 25 | 179 | 0.0 | 0.0 | 0.00 | 0.00 | 0.00 | 74 | 1017.7 |
| 20260902131325 | 25 | 179 | 0.0 | 0.0 | 0.00 | 0.00 | 0.00 | 74 | 1017.7 |
| 20260902131224 | 25 | 179 | 0.0 | 0.0 | 0.00 | 0.00 | 0.00 | 74 | 1017.6 |
| 20260902131142 | 25 | 181 | 0.0 | 0.0 | 0.00 | 0.00 | 0.00 | 74 | 1017.6 |
| 20260902131041 | 25 | 179 | 0.0 | 0.0 | 0.00 | 0.00 | 0.00 | 74 | 1017.6 |
| 20260902130939 | 25 | 179 | 0.0 | 0.0 | 0.00 | 0.00 | 0.00 | 74 | 1017.6 |
| 20260902130837 | 25 | 181 | 0.0 | 0.0 | 0.00 | 0.00 | 0.00 | 74 | 1017.6 |
| 20260902130740 | 25 | 179 | 0.0 | 0.0 | 0.00 | 0.00 | 0.00 | 74 | 1017.6 |
| 20260902130640 | 25 | 179 | 0.0 | 0.0 | 0.00 | 0.00 | 0.00 | 74 | 1017.6 |
| 20260902130538 | 25 | 181 | 0.0 | 0.0 | 0.00 | 0.00 | 0.00 | 74 | 1017.6 |
| 20260902130437 | 25 | 179 | 0.0 | 0.0 | 0.00 | 0.00 | 0.00 | 74 | 1017.6 |
| 20260902130335 | 25 | 179 | 0.0 | 0.0 | 0.00 | 0.00 | 0.00 | 74 | 1017.6 |
| 20260902130233 | 25 | 179 | 0.0 | 0.0 | 0.00 | 0.00 | 0.00 | 74 | 1017.6 |
| 20260902130203 | 25 | 181 | 0.0 | 0.0 | 0.00 | 0.00 | 0.00 | 74 | 1017.6 |
| 20260902125942 | 25 | 179 | 0.0 | 0.0 | 0.00 | 0.00 | 0.00 | 74 | 1017.6 |
| 20260902125903 | 25 | 181 | 0.0 | 0.0 | 0.00 | 0.00 | 0.00 | 74 | 1017.6 |
| 20260902125741 | 25 | 178 | 0.0 | 0.0 | 0.00 | 0.00 | 0.00 | 74 | 1017.7 |
| 20260902125700 | 25 | 181 | 0.0 | 0.0 | 0.00 | 0.00 | 0.00 | 74 | 1017.7 |
| 20260902125538 | 25 | 181 | 0.0 | 0.0 | 0.00 | 0.00 | 0.00 | 74 | 1017.7 |
| 20260902125456 | 25 | 179 | 0.0 | 0.0 | 0.00 | 0.00 | 0.00 | 74 | 1017.7 |
| 20260902125333 | 25 | 179 | 0.0 | 0.0 | 0.00 | 0.00 | 0.00 | 74 | 1017.7 |
| 20260902125231 | 25 | 181 | 0.0 | 0.0 | 0.00 | 0.00 | 0.00 | 74 | 1017.7 |
| 20260902125135 | 25 | 181 | 0.0 | 0.0 | 0.00 | 0.00 | 0.00 | 74 | 1017.7 |
| 20260902125034 | 25 | 179 | 0.0 | 0.0 | 0.00 | 0.00 | 0.00 | 74 | 1017.7 |
| 20260902124952 | 25 | 181 | 0.0 | 0.0 | 0.00 | 0.00 | 0.00 | 74 | 1017.7 |
| 20260902124827 | 25 | 181 | 0.0 | 0.0 | 0.00 | 0.00 | 0.00 | 74 | 1017.7 |
| 20260902124736 | 25 | 181 | 0.0 | 0.0 | 0.00 | 0.00 | 0.00 | 74 | 1017.7 |
| 20260902124645 | 25 | 178 | 0.0 | 0.0 | 0.00 | 0.00 | 0.00 | 74 | 1017.7 |
| 20260902124543 | 25 | 179 | 0.0 | 0.0 | 0.00 | 0.00 | 0.00 | 74 | 1017.7 |
| 20260902124442 | 25 | 178 | 0.0 | 0.0 | 0.00 | 0.00 | 0.00 | 74 | 1017.7 |
| 20260902124343 | 25 | 181 | 0.0 | 0.0 | 0.00 | 0.00 | 0.00 | 74 | 1017.7 |
| 20260902124242 | 25 | 179 | 0.0 | 0.0 | 0.00 | 0.00 | 0.00 | 74 | 1017.7 |
| 20260902124141 | 25 | 179 | 0.0 | 0.0 | 0.00 | 0.00 | 0.00 | 74 | 1017.7 |
| 20260902124039 | 25 | 179 | 0.0 | 0.0 | 0.00 | 0.00 | 0.00 | 74 | 1017.7 |
| 20260902123937 | 25 | 179 | 0.0 | 1.6 | 0.00 | 0.00 | 0.00 | 74 | 1017.7 |
| 20260902123835 | 25 | 181 | 0.0 | 1.6 | 0.00 | 0.00 | 0.00 | 74 | 1017.7 |
| 20260902123733 | 25 | 179 | 0.0 | 1.6 | 0.00 | 0.00 | 0.00 | 74 | 1017.7 |
| 20260902123636 | 25 | 178 | 0.0 | 3.2 | 0.00 | 0.00 | 0.00 | 74 | 1017.7 |
| 20260902123538 | 24 | 179 | 0.0 | 4.8 | 0.00 | 0.00 | 0.00 | 74 | 1017.7 |
| 20260902123437 | 24 | 178 | 0.0 | 4.8 | 0.00 | 0.00 | 0.00 | 74 | 1017.7 |
| 20260902123358 | 24 | 178 | 0.0 | 4.8 | 0.00 | 0.00 | 0.00 | 74 | 1017.7 |
| 20260902123316 | 24 | 181 | 0.0 | 4.8 | 0.00 | 0.00 | 0.00 | 74 | 1017.7 |
| 20260902123205 | 24 | 181 | 0.0 | 4.8 | 0.00 | 0.00 | 0.00 | 74 | 1017.7 |
| 20260902123042 | 24 | 179 | 0.0 | 4.8 | 0.00 | 0.00 | 0.00 | 74 | 1017.7 |
| 20260902122943 | 24 | 178 | 0.0 | 4.8 | 0.00 | 0.00 | 0.00 | 74 | 1017.7 |
| 20260902122905 | 24 | 178 | 1.6 | 4.8 | 0.00 | 0.00 | 0.00 | 73 | 1017.7 |
| 20260902122742 | 24 | 178 | 3.2 | 4.8 | 0.00 | 0.00 | 0.00 | 73 | 1017.5 |
| 20260902122641 | 24 | 178 | 3.2 | 4.8 | 0.00 | 0.00 | 0.00 | 73 | 1017.5 |
| 20260902122559 | 24 | 181 | 3.2 | 4.8 | 0.00 | 0.00 | 0.00 | 73 | 1017.5 |
| 20260902122436 | 24 | 179 | 3.2 | 4.8 | 0.00 | 0.00 | 0.00 | 73 | 1017.5 |
| 20260902122334 | 24 | 179 | 1.6 | 3.2 | 0.00 | 0.00 | 0.00 | 73 | 1017.5 |
| 20260902122252 | 24 | 178 | 1.6 | 3.2 | 0.00 | 0.00 | 0.00 | 73 | 1017.5 |
| 20260902122129 | 24 | 179 | 0.0 | 3.2 | 0.00 | 0.00 | 0.00 | 73 | 1017.5 |
| 20260902122032 | 24 | 179 | 0.0 | 1.6 | 0.00 | 0.00 | 0.00 | 73 | 1017.5 |
| 20260902121930 | 24 | 179 | 0.0 | 1.6 | 0.00 | 0.00 | 0.00 | 74 | 1017.5 |
| 20260902121828 | 24 | 179 | 0.0 | 1.6 | 0.00 | 0.00 | 0.00 | 74 | 1017.5 |
| 20260902121726 | 24 | 178 | 0.0 | 3.2 | 0.00 | 0.00 | 0.00 | 74 | 1017.5 |
| 20260902121656 | 24 | 179 | 0.0 | 3.2 | 0.00 | 0.00 | 0.00 | 74 | 1017.5 |
| 20260902121554 | 24 | 176 | 0.0 | 3.2 | 0.00 | 0.00 | 0.00 | 74 | 1017.5 |
| 20260902121431 | 24 | 176 | 0.0 | 4.8 | 0.00 | 0.00 | 0.00 | 74 | 1017.5 |
| 20260902121333 | 24 | 176 | 0.0 | 4.8 | 0.00 | 0.00 | 0.00 | 73 | 1017.5 |
| 20260902121232 | 24 | 176 | 0.0 | 4.8 | 0.00 | 0.00 | 0.00 | 73 | 1017.2 |
| 20260902121149 | 24 | 178 | 0.0 | 4.8 | 0.00 | 0.00 | 0.00 | 73 | 1017.2 |
| 20260902121024 | 24 | 176 | 0.0 | 4.8 | 0.00 | 0.00 | 0.00 | 72 | 1017.2 |
| 20260902120943 | 24 | 178 | 1.6 | 4.8 | 0.00 | 0.00 | 0.00 | 72 | 1017.2 |
| 20260902120842 | 24 | 175 | 1.6 | 4.8 | 0.00 | 0.00 | 0.00 | 72 | 1017.2 |
| 20260902120740 | 24 | 178 | 1.6 | 4.8 | 0.00 | 0.00 | 0.00 | 72 | 1017.2 |
| 20260902120640 | 24 | 175 | 3.2 | 4.8 | 0.00 | 0.00 | 0.00 | 72 | 1017.2 |
| 20260902120543 | 24 | 174 | 3.2 | 4.8 | 0.00 | 0.00 | 0.00 | 72 | 1017.2 |
| 20260902120502 | 24 | 178 | 3.2 | 4.8 | 0.00 | 0.00 | 0.00 | 72 | 1017.2 |
| 20260902120338 | 24 | 178 | 3.2 | 4.8 | 0.00 | 0.00 | 0.00 | 72 | 1017.2 |
| 20260902120238 | 24 | 178 | 3.2 | 4.8 | 0.00 | 0.00 | 0.00 | 72 | 1017.2 |
| 20260902120207 | 24 | 175 | 3.2 | 4.8 | 0.00 | 0.00 | 0.00 | 72 | 1017.2 |
| 20260902120043 | 24 | 175 | 3.2 | 4.8 | 0.00 | 0.00 | 0.00 | 72 | 1017.2 |
| 20260902115942 | 24 | 178 | 4.8 | 4.8 | 0.00 | 0.00 | 0.00 | 72 | 1017.2 |
| 20260902115841 | 24 | 178 | 3.2 | 8.0 | 0.00 | 0.00 | 0.00 | 72 | 1017.2 |
| 20260902115759 | 24 | 176 | 3.2 | 8.0 | 0.00 | 0.00 | 0.00 | 72 | 1017.0 |
| 20260902115640 | 24 | 176 | 3.2 | 8.0 | 0.00 | 0.00 | 0.00 | 72 | 1017.0 |
| 20260902115538 | 24 | 176 | 3.2 | 8.0 | 0.00 | 0.00 | 0.00 | 72 | 1017.0 |
| 20260902115457 | 24 | 178 | 3.2 | 8.0 | 0.00 | 0.00 | 0.00 | 72 | 1017.0 |
| 20260902115334 | 24 | 176 | 3.2 | 8.0 | 0.00 | 0.00 | 0.00 | 72 | 1017.0 |
| 20260902115231 | 24 | 176 | 4.8 | 8.0 | 0.00 | 0.00 | 0.00 | 72 | 1017.0 |
| 20260902115130 | 24 | 176 | 3.2 | 8.0 | 0.00 | 0.00 | 0.00 | 72 | 1017.0 |
| 20260902115029 | 24 | 178 | 4.8 | 8.0 | 0.00 | 0.00 | 0.00 | 72 | 1017.0 |
| 20260902114932 | 24 | 178 | 3.2 | 6.4 | 0.00 | 0.00 | 0.00 | 72 | 1017.0 |
| 20260902114852 | 24 | 178 | 4.8 | 6.4 | 0.00 | 0.00 | 0.00 | 72 | 1017.0 |
| 20260902114811 | 24 | 174 | 3.2 | 6.4 | 0.00 | 0.00 | 0.00 | 72 | 1017.0 |
| 20260902114657 | 24 | 178 | 4.8 | 6.4 | 0.00 | 0.00 | 0.00 | 72 | 1017.0 |
| 20260902114535 | 24 | 176 | 4.8 | 6.4 | 0.00 | 0.00 | 0.00 | 73 | 1017.0 |
| 20260902114432 | 24 | 178 | 4.8 | 8.0 | 0.00 | 0.00 | 0.00 | 73 | 1017.0 |
| 20260902114351 | 24 | 178 | 4.8 | 8.0 | 0.00 | 0.00 | 0.00 | 73 | 1017.0 |
| 20260902114249 | 24 | 176 | 4.8 | 8.0 | 0.00 | 0.00 | 0.00 | 73 | 1016.8 |
| 20260902114145 | 24 | 178 | 3.2 | 8.0 | 0.00 | 0.00 | 0.00 | 72 | 1016.8 |
| 20260902114043 | 24 | 178 | 3.2 | 8.0 | 0.00 | 0.00 | 0.00 | 73 | 1016.8 |
| 20260902113926 | 24 | 178 | 4.8 | 8.0 | 0.00 | 0.00 | 0.00 | 73 | 1016.8 |
| 20260902113824 | 24 | 176 | 3.2 | 8.0 | 0.00 | 0.00 | 0.00 | 73 | 1016.8 |
| 20260902113742 | 24 | 178 | 4.8 | 8.0 | 0.00 | 0.00 | 0.00 | 73 | 1016.8 |
| 20260902113642 | 24 | 174 | 4.8 | 8.0 | 0.00 | 0.00 | 0.00 | 73 | 1016.8 |
| 20260902113540 | 24 | 178 | 3.2 | 4.8 | 0.00 | 0.00 | 0.00 | 73 | 1016.8 |
| 20260902113437 | 24 | 176 | 3.2 | 4.8 | 0.00 | 0.00 | 0.00 | 73 | 1016.8 |
| 20260902113335 | 24 | 175 | 3.2 | 4.8 | 0.00 | 0.00 | 0.00 | 73 | 1016.8 |
| 20260902113237 | 24 | 176 | 4.8 | 4.8 | 0.00 | 0.00 | 0.00 | 73 | 1016.8 |
| 20260902113147 | 24 | 178 | 4.8 | 4.8 | 0.00 | 0.00 | 0.00 | 73 | 1016.8 |
| 20260902113043 | 24 | 175 | 3.2 | 4.8 | 0.00 | 0.00 | 0.00 | 72 | 1016.8 |
| 20260902113002 | 24 | 178 | 3.2 | 4.8 | 0.00 | 0.00 | 0.00 | 72 | 1016.8 |
| 20260902112839 | 24 | 176 | 4.8 | 4.8 | 0.00 | 0.00 | 0.00 | 73 | 1016.8 |
| 20260902112735 | 24 | 176 | 4.8 | 4.8 | 0.00 | 0.00 | 0.00 | 73 | 1016.7 |
| 20260902112634 | 24 | 176 | 4.8 | 4.8 | 0.00 | 0.00 | 0.00 | 73 | 1016.7 |
| 20260902112532 | 24 | 176 | 3.2 | 4.8 | 0.00 | 0.00 | 0.00 | 73 | 1016.7 |
| 20260902112451 | 24 | 175 | 3.2 | 4.8 | 0.00 | 0.00 | 0.00 | 73 | 1016.7 |
| 20260902112352 | 24 | 176 | 4.8 | 4.8 | 0.00 | 0.00 | 0.00 | 73 | 1016.7 |
| 20260902112251 | 24 | 178 | 4.8 | 4.8 | 0.00 | 0.00 | 0.00 | 73 | 1016.7 |
| 20260902112128 | 24 | 178 | 3.2 | 4.8 | 0.00 | 0.00 | 0.00 | 73 | 1016.7 |
| 20260902112027 | 24 | 178 | 3.2 | 4.8 | 0.00 | 0.00 | 0.00 | 73 | 1016.7 |
| 20260902111927 | 24 | 178 | 3.2 | 4.8 | 0.00 | 0.00 | 0.00 | 72 | 1016.7 |
| 20260902111826 | 24 | 178 | 3.2 | 4.8 | 0.00 | 0.00 | 0.00 | 72 | 1016.7 |
| 20260902111737 | 24 | 178 | 4.8 | 4.8 | 0.00 | 0.00 | 0.00 | 72 | 1016.7 |
| 20260902111645 | 24 | 178 | 3.2 | 4.8 | 0.00 | 0.00 | 0.00 | 72 | 1016.7 |
| 20260902111527 | 24 | 176 | 3.2 | 4.8 | 0.00 | 0.00 | 0.00 | 73 | 1016.7 |
| 20260902111424 | 24 | 178 | 3.2 | 4.8 | 0.00 | 0.00 | 0.00 | 73 | 1016.7 |
| 20260902111343 | 24 | 178 | 4.8 | 4.8 | 0.00 | 0.00 | 0.00 | 72 | 1016.7 |
| 20260902111242 | 24 | 178 | 3.2 | 4.8 | 0.00 | 0.00 | 0.00 | 72 | 1016.7 |
| 20260902111142 | 24 | 176 | 3.2 | 4.8 | 0.00 | 0.00 | 0.00 | 72 | 1016.7 |
| 20260902111043 | 24 | 178 | 3.2 | 8.0 | 0.00 | 0.00 | 0.00 | 72 | 1016.7 |
| 20260902110941 | 24 | 178 | 3.2 | 8.0 | 0.00 | 0.00 | 0.00 | 71 | 1016.7 |
| 20260902110823 | 24 | 175 | 3.2 | 8.0 | 0.00 | 0.00 | 0.00 | 71 | 1016.7 |
| 20260902110742 | 24 | 178 | 3.2 | 8.0 | 0.00 | 0.00 | 0.00 | 71 | 1016.7 |
| 20260902110640 | 24 | 178 | 3.2 | 8.0 | 0.00 | 0.00 | 0.00 | 71 | 1016.7 |
| 20260902110600 | 24 | 178 | 4.8 | 8.0 | 0.00 | 0.00 | 0.00 | 71 | 1016.7 |
| 20260902110458 | 24 | 176 | 3.2 | 8.0 | 0.00 | 0.00 | 0.00 | 71 | 1016.7 |
| 20260902110334 | 24 | 175 | 3.2 | 8.0 | 0.00 | 0.00 | 0.00 | 71 | 1016.7 |
| 20260902110303 | 24 | 176 | 4.8 | 8.0 | 0.00 | 0.00 | 0.00 | 71 | 1016.7 |
| 20260902110151 | 24 | 178 | 4.8 | 8.0 | 0.00 | 0.00 | 0.00 | 71 | 1016.7 |
| 20260902110028 | 24 | 176 | 4.8 | 6.4 | 0.00 | 0.00 | 0.00 | 71 | 1016.7 |
| 20260902105932 | 24 | 179 | 3.2 | 6.4 | 0.00 | 0.00 | 0.00 | 71 | 1016.7 |
| 20260902105830 | 24 | 178 | 4.8 | 8.0 | 0.00 | 0.00 | 0.00 | 71 | 1016.7 |
| 20260902105728 | 24 | 178 | 3.2 | 8.0 | 0.00 | 0.00 | 0.00 | 71 | 1016.6 |
| 20260902105629 | 24 | 178 | 4.8 | 8.0 | 0.00 | 0.00 | 0.00 | 71 | 1016.6 |
| 20260902105551 | 24 | 179 | 4.8 | 8.0 | 0.00 | 0.00 | 0.00 | 71 | 1016.6 |
| 20260902105428 | 24 | 178 | 4.8 | 8.0 | 0.00 | 0.00 | 0.00 | 72 | 1016.6 |
| 20260902105327 | 24 | 179 | 4.8 | 8.0 | 0.00 | 0.00 | 0.00 | 72 | 1016.6 |
| 20260902105227 | 24 | 178 | 4.8 | 8.0 | 0.00 | 0.00 | 0.00 | 72 | 1016.6 |
| 20260902105129 | 24 | 178 | 4.8 | 8.0 | 0.00 | 0.00 | 0.00 | 72 | 1016.6 |
| 20260902105028 | 24 | 174 | 4.8 | 8.0 | 0.00 | 0.00 | 0.00 | 72 | 1016.6 |
| 20260902104926 | 24 | 178 | 4.8 | 8.0 | 0.00 | 0.00 | 0.00 | 72 | 1016.6 |
| 20260902104845 | 24 | 178 | 4.8 | 8.0 | 0.00 | 0.00 | 0.00 | 72 | 1016.6 |
| 20260902104803 | 24 | 178 | 4.8 | 8.0 | 0.00 | 0.00 | 0.00 | 72 | 1016.6 |
| 20260902104650 | 24 | 178 | 6.4 | 8.0 | 0.00 | 0.00 | 0.00 | 72 | 1016.6 |
| 20260902104527 | 24 | 178 | 6.4 | 8.0 | 0.00 | 0.00 | 0.00 | 72 | 1016.6 |
| 20260902104446 | 24 | 178 | 6.4 | 8.0 | 0.00 | 0.00 | 0.00 | 72 | 1016.6 |
| 20260902104404 | 24 | 178 | 6.4 | 8.0 | 0.00 | 0.00 | 0.00 | 72 | 1016.6 |
| 20260902104305 | 24 | 175 | 4.8 | 8.0 | 0.00 | 0.00 | 0.00 | 72 | 1016.5 |
| 20260902104201 | 24 | 178 | 4.8 | 8.0 | 0.00 | 0.00 | 0.00 | 72 | 1016.5 |
| 20260902104037 | 24 | 178 | 4.8 | 8.0 | 0.00 | 0.00 | 0.00 | 72 | 1016.5 |
| 20260902103936 | 24 | 178 | 6.4 | 8.0 | 0.00 | 0.00 | 0.00 | 72 | 1016.5 |
| 20260902103834 | 24 | 178 | 4.8 | 8.0 | 0.00 | 0.00 | 0.00 | 73 | 1016.5 |
| 20260902103732 | 24 | 178 | 4.8 | 8.0 | 0.00 | 0.00 | 0.00 | 72 | 1016.5 |
| 20260902103630 | 24 | 178 | 4.8 | 8.0 | 0.00 | 0.00 | 0.00 | 72 | 1016.5 |
| 20260902103529 | 24 | 178 | 4.8 | 8.0 | 0.00 | 0.00 | 0.00 | 72 | 1016.5 |
| 20260902103430 | 24 | 178 | 4.8 | 8.0 | 0.00 | 0.00 | 0.00 | 73 | 1016.5 |
| 20260902103329 | 24 | 178 | 3.2 | 8.0 | 0.00 | 0.00 | 0.00 | 73 | 1016.5 |
| 20260902103239 | 24 | 178 | 6.4 | 8.0 | 0.00 | 0.00 | 0.00 | 74 | 1016.5 |